[[{"header":{"parameterUnit":"m.s-1","parameterCategory":1,"la1":30.6,"la2":29.2853,"lo1":-89.7004,"lo2":-87.6739,"dy":0.0162,"dx":0.0183,"nx":112,"ny":82,"refTime":"2025-07-15T00:00:00:Z","depth":0,"parameterNumber":2,"parameterNumberName":"U-component_of_WINDS"},"data":[0.0,0.0,0.0,0.0,0.0,0.0,0.0,0.0,0.0,0.0,0.0,0.0,0.0,0.0,0.0,0.0,0.0,0.0,0.0,0.0,0.0,0.0,0.0,0.0,0.0,0.0,0.0,0.0,0.0,0.0,0.0,0.0,0.0,0.0,0.0,0.0,0.0,0.0,0.0,0.0,0.0,0.0,0.0,0.0,0.0,0.0,0.0,0.0,0.0,0.0,0.0,0.0,0.0,0.0,0.0,0.0,0.0,0.0,0.0,0.0,0.0,0.0,0.0,0.0,0.0,0.0,0.0,0.0,0.0,0.0,0.0,0.0,0.0,0.0,0.0,0.0,0.0,0.0,0.0,0.0,0.0,0.0,0.0,0.0,0.0,0.0,0.0,0.0,0.0,0.0,-5.2806,-6.0438,-6.8284,-7.2593,-7.1609,-7.0218,-6.544,-5.6194,0.0,0.0,0.0,0.0,0.0,0.0,0.0,0.0,0.0,0.0,0.0,0.0,0.0,0.0,0.0,0.0,0.0,0.0,0.0,0.0,0.0,0.0,0.0,0.0,0.0,0.0,0.0,0.0,0.0,0.0,0.0,0.0,0.0,0.0,0.0,0.0,0.0,0.0,0.0,0.0,0.0,0.0,0.0,0.0,0.0,0.0,0.0,0.0,0.0,0.0,0.0,0.0,0.0,0.0,0.0,0.0,0.0,0.0,0.0,0.0,0.0,0.0,0.0,0.0,0.0,0.0,0.0,0.0,0.0,0.0,0.0,0.0,0.0,0.0,0.0,0.0,0.0,0.0,0.0,0.0,0.0,0.0,0.0,0.0,0.0,0.0,0.0,0.0,0.0,0.0,0.0,0.0,0.0,0.0,0.0,0.0,0.0,0.0,0.0,0.0,0.0,0.0,0.0,0.0,-5.6327,-6.7578,-7.1793,-7.3747,-7.3586,-7.0413,-6.5421,-5.8428,0.0,0.0,0.0,0.0,0.0,0.0,0.0,0.0,0.0,0.0,0.0,0.0,0.0,0.0,0.0,0.0,0.0,0.0,0.0,0.0,0.0,0.0,0.0,0.0,0.0,0.0,0.0,0.0,0.0,0.0,0.0,0.0,0.0,0.0,0.0,0.0,0.0,0.0,0.0,0.0,0.0,0.0,0.0,0.0,0.0,0.0,0.0,0.0,0.0,0.0,0.0,0.0,0.0,0.0,0.0,0.0,0.0,0.0,0.0,0.0,0.0,0.0,0.0,0.0,0.0,0.0,0.0,0.0,0.0,0.0,0.0,0.0,0.0,0.0,0.0,0.0,0.0,0.0,0.0,0.0,0.0,0.0,0.0,0.0,0.0,0.0,0.0,0.0,0.0,0.0,0.0,0.0,0.0,0.0,0.0,0.0,0.0,0.0,0.0,0.0,0.0,0.0,0.0,-5.5177,-6.1055,-7.126,-7.3565,-7.4265,-7.4033,-7.1154,-6.6045,-5.8343,-5.3001,0.0,0.0,0.0,0.0,0.0,0.0,0.0,0.0,0.0,0.0,0.0,0.0,0.0,0.0,0.0,0.0,0.0,0.0,0.0,0.0,0.0,0.0,0.0,0.0,0.0,0.0,0.0,0.0,0.0,0.0,0.0,0.0,0.0,0.0,0.0,0.0,0.0,0.0,0.0,0.0,0.0,0.0,0.0,0.0,0.0,0.0,0.0,0.0,0.0,0.0,0.0,0.0,0.0,0.0,0.0,0.0,0.0,0.0,0.0,0.0,0.0,0.0,0.0,0.0,0.0,0.0,0.0,0.0,0.0,0.0,0.0,0.0,0.0,0.0,0.0,0.0,0.0,0.0,0.0,0.0,0.0,0.0,0.0,0.0,0.0,0.0,0.0,0.0,0.0,0.0,0.0,0.0,0.0,0.0,0.0,0.0,0.0,0.0,0.0,0.0,0.0,0.0,-6.1771,-6.6193,-7.3829,-7.4798,-7.4801,-7.4654,-7.1148,-6.5691,-5.7973,-5.1862,0.0,0.0,0.0,0.0,0.0,0.0,0.0,0.0,0.0,0.0,0.0,0.0,0.0,0.0,0.0,0.0,0.0,0.0,0.0,0.0,0.0,0.0,0.0,0.0,0.0,0.0,0.0,0.0,0.0,0.0,0.0,0.0,0.0,0.0,0.0,0.0,0.0,0.0,0.0,0.0,0.0,0.0,0.0,0.0,0.0,0.0,0.0,0.0,0.0,0.0,0.0,0.0,0.0,0.0,0.0,0.0,0.0,0.0,0.0,0.0,0.0,0.0,0.0,0.0,0.0,0.0,0.0,0.0,0.0,0.0,0.0,0.0,0.0,0.0,0.0,0.0,0.0,0.0,0.0,0.0,0.0,0.0,0.0,0.0,0.0,0.0,0.0,0.0,0.0,0.0,0.0,0.0,0.0,0.0,0.0,0.0,0.0,0.0,0.0,0.0,0.0,0.0,-6.4676,-7.1477,-7.6041,-7.5868,-7.5733,-7.6461,-6.9489,-6.3083,-5.8325,-4.9372,0.0,0.0,0.0,0.0,0.0,0.0,0.0,0.0,0.0,0.0,0.0,0.0,0.0,0.0,0.0,0.0,0.0,0.0,0.0,0.0,0.0,0.0,0.0,0.0,0.0,0.0,0.0,0.0,0.0,0.0,0.0,0.0,0.0,0.0,0.0,0.0,0.0,0.0,0.0,0.0,0.0,0.0,0.0,0.0,0.0,0.0,0.0,0.0,0.0,0.0,0.0,0.0,0.0,0.0,0.0,0.0,0.0,0.0,0.0,0.0,0.0,0.0,0.0,0.0,0.0,0.0,0.0,0.0,0.0,0.0,0.0,0.0,0.0,0.0,0.0,0.0,0.0,0.0,0.0,0.0,0.0,0.0,0.0,0.0,0.0,0.0,0.0,0.0,0.0,0.0,0.0,0.0,0.0,0.0,0.0,0.0,0.0,0.0,0.0,0.0,0.0,0.0,-6.3291,-6.9922,-7.68,-7.6303,-7.5633,-7.5921,-7.076,-6.4481,-5.7375,0.0,0.0,0.0,0.0,0.0,0.0,0.0,0.0,0.0,0.0,0.0,0.0,0.0,0.0,0.0,0.0,0.0,0.0,0.0,0.0,0.0,0.0,0.0,0.0,0.0,0.0,0.0,0.0,0.0,0.0,0.0,0.0,0.0,0.0,0.0,0.0,0.0,0.0,0.0,0.0,0.0,0.0,0.0,0.0,0.0,0.0,0.0,0.0,0.0,0.0,0.0,0.0,0.0,0.0,0.0,0.0,0.0,0.0,0.0,0.0,0.0,0.0,0.0,0.0,0.0,0.0,0.0,0.0,0.0,0.0,0.0,0.0,0.0,0.0,0.0,0.0,0.0,0.0,0.0,0.0,0.0,0.0,0.0,0.0,0.0,0.0,0.0,0.0,0.0,0.0,0.0,0.0,0.0,0.0,0.0,0.0,0.0,0.0,0.0,0.0,0.0,0.0,-5.7008,-6.3694,-7.0419,-7.7258,-7.6494,-7.5577,-7.5844,-7.0533,-6.4062,-5.6686,0.0,0.0,0.0,0.0,0.0,0.0,0.0,0.0,0.0,0.0,0.0,0.0,0.0,0.0,0.0,0.0,0.0,0.0,0.0,0.0,0.0,0.0,0.0,0.0,0.0,0.0,0.0,0.0,0.0,0.0,0.0,0.0,0.0,0.0,0.0,0.0,0.0,0.0,0.0,0.0,0.0,0.0,0.0,0.0,0.0,0.0,0.0,0.0,0.0,0.0,0.0,0.0,0.0,0.0,0.0,0.0,0.0,0.0,0.0,0.0,0.0,0.0,0.0,0.0,0.0,0.0,0.0,0.0,0.0,0.0,0.0,0.0,0.0,0.0,0.0,0.0,0.0,0.0,0.0,0.0,0.0,0.0,0.0,0.0,0.0,0.0,0.0,0.0,0.0,0.0,0.0,0.0,0.0,0.0,0.0,0.0,0.0,0.0,0.0,0.0,0.0,0.0,-5.7466,-6.6751,-7.4278,-7.764,-7.6494,-7.5806,-7.6609,-6.8279,-6.1048,0.0,0.0,0.0,0.0,0.0,0.0,0.0,0.0,0.0,0.0,0.0,0.0,0.0,0.0,0.0,0.0,0.0,0.0,0.0,0.0,0.0,0.0,0.0,0.0,0.0,0.0,0.0,0.0,0.0,0.0,0.0,0.0,0.0,0.0,0.0,0.0,0.0,0.0,0.0,0.0,0.0,0.0,0.0,0.0,0.0,0.0,0.0,0.0,0.0,0.0,0.0,0.0,0.0,0.0,0.0,0.0,0.0,0.0,0.0,0.0,0.0,0.0,0.0,0.0,0.0,0.0,0.0,0.0,0.0,0.0,0.0,0.0,0.0,0.0,0.0,0.0,0.0,0.0,0.0,0.0,0.0,0.0,0.0,0.0,0.0,0.0,0.0,0.0,0.0,0.0,0.0,0.0,0.0,0.0,0.0,0.0,0.0,0.0,0.0,0.0,0.0,0.0,0.0,-5.7466,-6.6751,-7.4049,-7.68,-7.6112,-7.5348,-7.4966,-7.0801,-6.4848,-5.6965,0.0,0.0,0.0,0.0,0.0,0.0,0.0,0.0,0.0,0.0,0.0,0.0,0.0,0.0,0.0,0.0,0.0,0.0,0.0,0.0,0.0,0.0,0.0,0.0,0.0,0.0,0.0,0.0,0.0,0.0,0.0,0.0,0.0,0.0,0.0,0.0,0.0,0.0,0.0,0.0,0.0,0.0,0.0,0.0,0.0,0.0,0.0,0.0,0.0,0.0,0.0,0.0,0.0,0.0,0.0,0.0,0.0,0.0,0.0,0.0,0.0,0.0,0.0,0.0,0.0,0.0,0.0,0.0,0.0,0.0,0.0,0.0,0.0,0.0,0.0,0.0,0.0,0.0,0.0,0.0,0.0,0.0,0.0,0.0,0.0,0.0,0.0,0.0,0.0,0.0,0.0,0.0,0.0,0.0,0.0,0.0,0.0,0.0,0.0,0.0,0.0,0.0,-5.7886,-6.6942,-7.3934,-7.6418,-7.5959,-7.5271,-7.4775,-7.2062,-6.6904,-5.8664,0.0,0.0,0.0,0.0,0.0,0.0,0.0,0.0,0.0,0.0,0.0,0.0,0.0,0.0,0.0,0.0,0.0,0.0,0.0,0.0,0.0,0.0,0.0,0.0,0.0,0.0,0.0,0.0,0.0,0.0,0.0,0.0,0.0,0.0,0.0,0.0,0.0,0.0,0.0,0.0,0.0,0.0,0.0,0.0,0.0,0.0,0.0,0.0,0.0,0.0,0.0,0.0,0.0,0.0,0.0,0.0,0.0,0.0,0.0,0.0,0.0,0.0,0.0,0.0,0.0,0.0,0.0,0.0,0.0,0.0,0.0,0.0,0.0,0.0,0.0,0.0,0.0,0.0,0.0,0.0,0.0,0.0,0.0,0.0,0.0,0.0,0.0,0.0,0.0,0.0,0.0,0.0,0.0,0.0,0.0,0.0,0.0,0.0,0.0,0.0,0.0,0.0,-5.8574,-6.7247,-7.3934,-7.6341,-7.5921,-7.548,-7.5403,-7.2482,-6.7859,-6.1301,0.0,0.0,0.0,0.0,0.0,0.0,0.0,0.0,0.0,0.0,0.0,0.0,0.0,0.0,0.0,0.0,0.0,0.0,0.0,0.0,0.0,0.0,0.0,0.0,0.0,0.0,0.0,0.0,0.0,0.0,0.0,0.0,0.0,0.0,0.0,0.0,0.0,0.0,0.0,0.0,0.0,0.0,0.0,0.0,0.0,0.0,0.0,0.0,0.0,0.0,0.0,0.0,0.0,0.0,0.0,0.0,0.0,0.0,0.0,0.0,-5.2005,-4.8897,0.0,0.0,0.0,0.0,0.0,0.0,0.0,0.0,0.0,0.0,0.0,0.0,0.0,0.0,0.0,0.0,0.0,0.0,0.0,0.0,0.0,0.0,0.0,0.0,0.0,0.0,0.0,0.0,0.0,0.0,0.0,0.0,0.0,0.0,0.0,0.0,0.0,0.0,0.0,0.0,-5.8574,-6.7247,-7.3705,-7.5539,-7.5577,-7.5233,-7.4545,-7.3246,-7.0113,-6.4688,-5.9606,0.0,0.0,0.0,0.0,0.0,0.0,0.0,0.0,0.0,0.0,0.0,0.0,0.0,0.0,0.0,0.0,0.0,0.0,0.0,0.0,0.0,0.0,0.0,0.0,0.0,0.0,0.0,0.0,0.0,0.0,0.0,0.0,0.0,0.0,0.0,0.0,0.0,0.0,0.0,0.0,0.0,0.0,0.0,0.0,0.0,0.0,0.0,0.0,0.0,0.0,0.0,0.0,0.0,0.0,0.0,0.0,0.0,0.0,0.0,-6.0369,-5.732,0.0,0.0,0.0,0.0,0.0,0.0,0.0,0.0,0.0,0.0,0.0,0.0,0.0,0.0,0.0,0.0,0.0,0.0,0.0,0.0,0.0,0.0,0.0,0.0,0.0,0.0,0.0,0.0,0.0,0.0,0.0,0.0,0.0,0.0,0.0,0.0,0.0,0.0,0.0,0.0,-6.0293,-6.7973,-7.3628,-7.5327,-7.5518,-7.531,-7.4851,-7.4049,-7.1756,-6.7477,-6.3274,0.0,0.0,0.0,0.0,0.0,0.0,0.0,0.0,0.0,0.0,0.0,0.0,0.0,0.0,0.0,0.0,0.0,0.0,0.0,0.0,0.0,0.0,0.0,0.0,0.0,0.0,0.0,0.0,0.0,0.0,0.0,0.0,0.0,0.0,0.0,0.0,0.0,0.0,0.0,0.0,0.0,0.0,0.0,0.0,0.0,0.0,0.0,0.0,0.0,0.0,0.0,0.0,0.0,-6.418,-6.5856,-6.8699,-6.8359,-7.0137,-7.3319,-6.9421,-6.728,-6.614,-6.0773,0.0,0.0,0.0,0.0,0.0,0.0,0.0,0.0,0.0,0.0,0.0,0.0,0.0,0.0,0.0,0.0,0.0,0.0,0.0,0.0,0.0,0.0,-6.4192,-6.5718,-6.8133,-6.7805,-5.9526,0.0,0.0,0.0,0.0,0.0,0.0,0.0,0.0,0.0,0.0,0.0,-6.2433,-6.9043,-7.3781,-7.5365,-7.5518,-7.5535,-7.5535,-7.4715,-7.3012,-7.0085,-6.6743,-6.2859,0.0,0.0,0.0,0.0,0.0,0.0,0.0,0.0,0.0,0.0,0.0,0.0,0.0,0.0,0.0,0.0,0.0,0.0,0.0,0.0,0.0,0.0,0.0,0.0,0.0,0.0,0.0,0.0,0.0,0.0,0.0,0.0,-4.2878,-4.5017,0.0,0.0,0.0,0.0,0.0,0.0,0.0,0.0,0.0,0.0,0.0,0.0,0.0,-6.1991,-6.5511,-6.7878,-6.997,-7.1813,-7.3262,-7.4398,-7.5221,-7.6671,-7.7757,-7.8489,-7.9421,0.0,-6.9033,-6.6812,0.0,0.0,0.0,0.0,0.0,0.0,0.0,0.0,0.0,0.0,0.0,0.0,0.0,0.0,0.0,0.0,0.0,0.0,0.0,0.0,0.0,0.0,-7.2771,-7.3781,-7.3781,-7.3399,-7.2788,-6.5681,-5.8511,-5.5517,-5.3263,-5.0856,0.0,0.0,0.0,0.0,0.0,0.0,-6.3541,-6.9884,-7.4431,-7.5403,-7.5532,-7.5583,-7.5583,-7.4856,-7.3893,-7.2747,-6.9467,-6.6672,-6.4597,-5.9818,0.0,0.0,0.0,0.0,0.0,0.0,0.0,0.0,0.0,0.0,0.0,0.0,0.0,0.0,0.0,0.0,0.0,0.0,0.0,0.0,0.0,0.0,0.0,0.0,0.0,0.0,0.0,0.0,0.0,-4.1249,-4.6115,-4.6874,-4.724,-4.6385,0.0,0.0,0.0,0.0,0.0,0.0,0.0,0.0,0.0,-6.5086,-6.6383,-6.8743,-7.2306,-7.3918,-7.5086,-7.5985,-7.8154,-7.9298,-7.9618,-8.1325,-8.2217,-8.2415,-8.3228,-8.1219,-7.711,-7.3333,-6.9688,-6.6187,0.0,0.0,0.0,0.0,-6.4867,-6.6283,-6.8957,-7.0465,-7.0681,-6.7815,0.0,0.0,0.0,0.0,0.0,0.0,0.0,-6.5253,-6.8744,-7.2274,-7.5386,-7.72,-7.7678,-7.7717,-7.7658,-7.3781,-6.8852,-6.3923,-6.1669,-5.8918,-5.3569,-5.2308,0.0,0.0,0.0,-6.2815,-6.7133,-7.1489,-7.4563,-7.5455,-7.5566,-7.5616,-7.5628,-7.5337,-7.4587,-7.3277,-7.1789,-7.0026,-6.787,-6.4279,-6.0559,0.0,0.0,0.0,0.0,0.0,0.0,0.0,0.0,0.0,0.0,0.0,0.0,0.0,0.0,0.0,0.0,0.0,0.0,0.0,0.0,0.0,0.0,0.0,0.0,0.0,0.0,0.0,0.0,-4.5502,-4.9717,-4.9908,-5.2223,-5.2307,0.0,0.0,0.0,0.0,0.0,0.0,-6.2236,-6.3842,-6.6856,-7.1683,-7.2402,-7.4386,-7.7863,-7.8514,-7.9127,-7.9684,-8.1588,-8.2573,-8.273,-8.4209,-8.494,-8.5027,-8.526,-8.4988,-8.4007,-7.908,-7.6039,-7.4203,-7.1183,-6.9507,-6.9079,-7.1368,-7.2693,-7.3855,-7.6887,-7.87,-7.9209,-7.6109,-7.378,-7.1401,-6.718,0.0,0.0,0.0,0.0,-6.9755,-7.3768,-7.5763,-7.7204,-7.9314,-8.0272,-8.0541,-7.9927,-7.9314,-7.7117,-7.127,-6.9311,-6.6636,-6.0332,-5.9113,0.0,-5.9524,-6.2874,-6.6866,-7.1036,-7.3814,-7.5572,-7.6041,-7.5879,-7.5749,-7.581,-7.558,-7.4819,-7.3377,-7.3246,-7.221,-6.9884,-6.7826,-6.5101,-6.1684,0.0,0.0,0.0,0.0,0.0,0.0,0.0,0.0,0.0,0.0,0.0,0.0,0.0,0.0,0.0,0.0,0.0,0.0,0.0,0.0,0.0,0.0,0.0,0.0,0.0,0.0,0.0,0.0,0.0,-5.6703,-5.9051,0.0,0.0,0.0,0.0,-6.0326,-6.2182,-6.5402,-7.043,-7.1579,-7.3678,-7.7198,-7.7401,-7.8744,-8.143,-8.1534,-8.2452,-8.417,-8.4287,-8.445,-8.4591,-8.5488,-8.5923,-8.5962,-8.6741,-8.7053,-8.6741,-8.3189,-8.0734,-7.904,-7.782,-7.6995,-7.6618,-7.8162,-7.926,-8.0203,-8.2038,-8.2538,-8.2508,-8.3102,-7.9816,-7.5456,-7.435,-7.1772,0.0,0.0,-7.3878,-7.5365,-7.8849,-7.9816,-8.0074,-8.1002,-8.1234,-8.1234,-8.1195,-8.1156,-8.0161,-7.6901,-7.4927,-7.2941,-7.0151,0.0,-6.8616,-6.7834,-7.0153,-7.2724,-7.4612,-7.7085,-7.8374,-7.7599,-7.6719,-7.6134,-7.6083,-7.5211,-7.4312,-7.3524,-7.3351,-7.2544,-7.0885,-6.9962,-6.7871,-6.436,-6.0837,0.0,0.0,0.0,0.0,0.0,0.0,0.0,0.0,0.0,0.0,0.0,0.0,0.0,0.0,0.0,0.0,0.0,0.0,0.0,0.0,0.0,0.0,0.0,0.0,0.0,0.0,0.0,0.0,-5.9563,-6.2481,0.0,-6.0838,-6.2578,-6.4705,-6.6688,-6.897,-7.1756,-7.5237,-7.5741,-7.7296,-8.0163,-8.0358,-8.1378,-8.3463,-8.3537,-8.3906,-8.4642,-8.5188,-8.5474,-8.5572,-8.639,-8.678,-8.678,-8.7092,-8.7209,-8.7092,-8.5884,-8.4715,-8.3578,-8.2642,-8.2149,-8.202,-8.2564,-8.3282,-8.4093,-8.4715,-8.5229,-8.5395,-8.4474,-8.2375,-7.9958,-7.8567,-7.7679,-7.7241,-7.7725,-7.8433,-7.9323,-8.0549,-8.0846,-8.0923,-8.1233,-8.131,-8.131,-8.131,-8.131,-8.0989,-7.986,-7.8329,-7.617,-7.3061,-7.2377,-7.1599,-6.9629,-7.113,-7.3101,-7.4834,-7.632,-7.733,-7.7642,-7.7359,-7.7183,-7.7175,-7.5767,-7.4331,-7.307,-7.2225,-7.1068,-6.9482,-6.9066,-6.8,-6.6218,-6.2885,-5.7912,0.0,0.0,0.0,0.0,0.0,0.0,0.0,0.0,0.0,0.0,0.0,0.0,0.0,0.0,0.0,0.0,0.0,0.0,0.0,0.0,0.0,0.0,0.0,0.0,0.0,0.0,-6.1127,-6.2297,-6.5993,-6.758,-6.5294,-6.8161,-7.0758,-7.2153,-7.4129,-7.625,-7.8497,-7.8959,-8.0086,-8.2114,-8.2523,-8.342,-8.4918,-8.498,-8.5181,-8.5533,-8.6118,-8.6546,-8.6858,-8.7092,-8.7365,-8.7637,-8.7326,-8.7209,-8.7209,-8.7209,-8.6897,-8.6351,-8.5767,-8.5533,-8.5533,-8.5533,-8.5923,-8.639,-8.639,-8.6741,-8.6916,-8.5269,-8.4016,-8.2925,-8.1491,-8.1248,-8.1348,-8.0881,-8.1173,-8.1561,-8.1561,-8.1561,-8.1561,-8.1561,-8.1561,-8.1561,-8.1561,-8.1561,-8.1561,-8.1561,-8.0279,-7.8382,-7.5852,-7.526,-7.4429,-7.2379,-7.317,-7.4386,-7.544,-7.6665,-7.7571,-7.7905,-7.8139,-7.8154,-7.7906,-7.5857,-7.4186,-7.3212,-7.1501,-7.0139,-6.9178,-6.8165,-6.7331,-6.6764,-6.2829,-5.8858,-5.4895,0.0,0.0,0.0,0.0,0.0,0.0,0.0,0.0,0.0,0.0,0.0,0.0,0.0,0.0,0.0,0.0,0.0,0.0,0.0,0.0,0.0,0.0,0.0,-5.6054,-6.1396,-6.5196,-6.5317,-6.9856,-7.2344,-7.0642,-7.3518,-7.5841,-7.6734,-7.7589,-7.8794,-8.0503,-8.1397,-8.2251,-8.3145,-8.4051,-8.4957,-8.586,-8.5967,-8.6429,-8.7209,-8.7209,-8.7637,-8.8417,-8.7598,-8.7676,-8.8417,-8.7559,-8.7209,-8.7209,-8.7209,-8.7209,-8.7209,-8.7209,-8.7209,-8.7209,-8.7209,-8.7209,-8.7209,-8.7209,-8.7209,-8.7032,-8.5978,-8.5058,-8.4204,-8.3301,-8.2446,-8.1822,-8.2071,-8.2143,-8.2143,-8.2104,-8.2104,-8.2104,-8.2104,-8.2104,-8.2104,-8.2104,-8.2104,-8.2104,-8.2104,-8.099,-7.9775,-7.9013,-7.8388,-7.7603,-7.6488,-7.6699,0.0,-7.6702,-7.8399,-7.9326,-7.8507,-7.8988,-7.9043,-7.818,-7.5456,-7.3868,-7.3967,-7.1378,-6.9992,-7.0191,-6.7619,-6.6195,-6.6224,-6.1158,-5.8523,-5.8511,0.0,0.0,0.0,0.0,0.0,0.0,0.0,0.0,0.0,0.0,0.0,0.0,0.0,0.0,0.0,0.0,0.0,0.0,0.0,0.0,0.0,-5.6536,-6.1341,-6.2426,-6.5631,-6.8545,-7.0516,-7.3104,-7.4792,-7.4947,-7.6346,-7.7891,-7.9338,-7.9687,-8.0581,-8.2281,-8.2664,-8.3515,-8.5002,-8.5385,-8.5974,-8.6792,-8.6851,-8.6975,-8.7209,-8.7209,-8.7326,-8.7559,-8.7326,-8.7326,-8.7559,-8.7287,-8.7209,-8.7209,-8.7209,-8.7209,-8.7209,-8.7209,-8.7209,-8.7209,-8.7209,-8.7209,-8.7209,-8.7209,-8.7209,-8.7046,-8.6186,-8.575,-8.5361,-8.4504,-8.4076,-8.3771,-8.3189,-8.3039,-8.2883,-8.226,-8.2104,-8.2104,-8.2104,-8.2104,-8.2104,-8.2104,-8.2104,-8.2104,-8.2104,-8.1258,-8.0544,-8.0348,-8.0195,-7.9358,-7.7203,-7.6975,-7.6825,-7.6136,-7.7075,-7.796,-7.835,-7.8572,-7.8597,-7.8324,-7.5752,-7.3957,-7.3519,-7.0795,-6.9547,-7.0323,-6.8909,-6.8372,-6.8837,-6.5786,-6.3758,0.0,0.0,0.0,0.0,0.0,0.0,0.0,0.0,0.0,0.0,0.0,0.0,0.0,0.0,0.0,0.0,0.0,0.0,0.0,0.0,0.0,0.0,-6.1345,-6.6151,-6.8124,-6.9686,-7.1334,-7.3247,-7.4678,-7.6023,-7.7268,-7.8124,-7.9166,-8.0536,-8.1314,-8.217,-8.3182,-8.3968,-8.4847,-8.586,-8.6292,-8.6741,-8.7209,-8.7209,-8.7209,-8.7209,-8.7209,-8.7404,-8.7715,-8.7365,-8.7404,-8.7715,-8.7365,-8.7209,-8.7209,-8.7209,-8.7209,-8.7209,0.0,0.0,0.0,0.0,-8.7209,-8.7209,-8.7209,-8.7209,-8.7131,-8.6663,-8.6274,-8.5923,-8.5416,-8.4715,-8.4052,-8.3546,-8.339,-8.3195,-8.2338,-8.2377,-8.2533,-8.2182,-8.2104,-8.2104,-8.2104,-8.2104,-8.211,-8.2083,-8.1694,0.0,-8.1441,-8.0841,-7.9578,-7.7295,-7.7038,-7.6634,-7.5313,-7.6294,-7.7296,-7.7804,-7.8507,-7.8936,-7.8936,-7.6409,0.0,0.0,0.0,-6.9999,-6.9884,-6.97,0.0,0.0,0.0,0.0,0.0,0.0,0.0,0.0,-6.5839,-6.6282,0.0,0.0,0.0,0.0,0.0,0.0,0.0,0.0,0.0,0.0,0.0,0.0,0.0,0.0,0.0,0.0,-6.5406,-6.9359,-7.2574,-7.3172,-7.36,-7.4378,-7.5366,-7.6649,-7.8285,-7.9181,-8.0,-8.0896,-8.2455,-8.3429,-8.3546,0.0,0.0,0.0,0.0,-8.7209,-8.7209,-8.7209,-8.7209,-8.7209,-8.7209,-8.7598,-8.8339,-8.7559,-8.7637,-8.83,-8.7559,-8.7209,-8.7209,-8.7209,-8.7209,-8.7209,-8.7209,-8.7209,-8.7209,-8.7209,-8.7209,-8.7209,-8.7209,0.0,0.0,-8.7209,-8.6702,-8.6157,-8.6157,-8.5066,-8.3819,-8.3702,-8.3702,-8.3507,-8.2611,-8.2961,-8.3351,-8.2572,-8.2299,-8.2266,-8.2266,-8.2149,-8.2083,-8.2112,-8.2117,-8.2133,-8.2179,-8.0909,-7.9294,-7.7469,-7.7409,-7.6856,-7.494,-7.6193,-7.7218,-7.7101,-7.8468,0.0,-7.9405,-7.7086,-7.598,-7.6903,-7.4039,-7.1658,-7.0147,-7.1,-7.1383,-7.1099,-7.1969,-7.3472,-7.5602,-7.7454,-7.8729,-7.9239,-7.207,-7.121,0.0,0.0,0.0,0.0,0.0,0.0,0.0,0.0,0.0,0.0,0.0,0.0,0.0,0.0,0.0,-6.4098,-6.8125,-7.1459,-7.2885,-7.4293,-7.5228,-7.5423,-7.6838,-7.8168,-7.9181,-8.0033,-8.0896,-8.1792,-8.2805,-8.3702,-8.4403,-8.5416,-8.6312,-8.6936,-8.7131,-8.7209,-8.7209,-8.7209,-8.7209,-8.7209,-8.7209,0.0,-8.7443,-8.7287,-8.7287,-8.7443,-8.7287,-8.7209,-8.7209,-8.7209,-8.7209,-8.7209,-8.7209,-8.7209,-8.7209,-8.7209,-8.7209,-8.7209,-8.7209,-8.7209,-8.7209,-8.7209,-8.7092,-8.6975,-8.6975,-8.6741,0.0,-8.5689,-8.5494,-8.5299,-8.4403,-8.4325,-8.4403,-8.4247,-8.3663,-8.3169,-8.3153,-8.2613,-8.2112,-8.2182,-8.2187,-8.2196,-8.2183,-8.1906,-8.136,-8.0314,-8.0211,-7.959,-7.7824,-7.7912,-7.7882,-7.7179,-7.7414,-7.7609,-7.7609,-7.6467,-7.5843,-7.6047,-7.6038,-7.5915,-7.5602,-7.7085,-7.7519,-7.6604,-7.758,-7.7885,-7.7421,-7.9959,-8.1197,-8.1173,-7.9602,-7.9757,0.0,0.0,0.0,0.0,0.0,0.0,0.0,0.0,0.0,0.0,0.0,-5.6769,-5.9008,0.0,-6.5938,-6.8144,-7.0706,-7.2873,-7.4227,-7.5168,-7.5713,-7.5713,-7.7233,-7.8636,-7.9415,-8.0305,-8.1325,-8.265,-8.3546,-8.4442,-8.5299,-8.6157,-8.678,-8.7209,-8.7209,-8.7209,-8.7209,-8.7209,-8.7209,-8.7209,-8.7209,-8.7209,-8.7209,-8.7209,-8.7209,-8.7209,-8.7209,-8.7209,-8.7248,-8.7676,-8.7832,-8.7871,-8.8339,-8.7988,-8.7209,-8.7209,-8.7209,-8.7209,-8.7209,-8.7209,-8.7209,-8.7209,-8.7209,-8.7209,-8.7209,-8.6936,-8.6507,-8.6118,-8.6014,-8.5714,-8.4389,-8.4713,-8.5153,-8.4295,-8.3789,-8.3443,-8.3454,-8.2757,-8.2143,-8.2205,-8.221,-8.2218,-8.2237,-8.2241,-8.1971,-8.1122,-8.1005,-8.0537,-7.9209,-7.9053,-7.8897,-7.8468,-7.839,-7.8585,-7.9014,-7.8663,-7.8233,-7.7765,-7.8155,-7.839,-7.839,-7.9248,-7.9661,-7.9548,-8.0091,-8.0462,-8.0719,-8.2523,-8.3571,-8.3909,-8.4344,-8.4458,0.0,0.0,0.0,0.0,0.0,0.0,0.0,0.0,-5.4807,-5.6854,-5.9809,-6.2649,-6.4751,-6.7223,-6.9558,-7.1628,-7.2879,-7.4116,-7.5519,-7.5869,-7.5908,-7.5713,-7.7389,-7.8792,-7.9454,-8.0428,-8.1714,-8.3273,-8.4208,-8.5066,-8.5962,-8.6741,-8.7209,-8.7209,-8.7209,-8.7209,-8.7209,-8.7209,-8.7209,-8.7209,-8.7209,-8.7209,-8.7209,-8.7209,-8.7209,-8.7209,-8.7371,-8.7573,-8.7774,-8.8475,-8.8787,-8.8826,-8.9567,-8.8943,-8.7735,-8.7722,-8.7722,-8.7722,-8.7715,-8.7605,-8.7449,-8.7443,-8.7326,-8.7209,-8.7215,-8.6754,-8.6247,-8.6254,-8.6233,-8.5944,-8.454,-8.5063,-8.5663,-8.4298,-8.3752,-8.3557,-8.3718,-8.3059,-8.2439,-8.246,-8.2468,-8.2433,-8.2329,-8.2293,-8.2059,-8.1356,-8.1239,-8.0927,-8.0068,-7.9951,-7.9873,-7.9717,-7.9717,-7.999,-8.0693,-8.0732,-8.0537,-7.999,-7.9951,-8.0029,-8.0185,-8.0224,-8.0615,-8.1474,-8.1474,-8.2215,-8.3738,-8.4636,-8.5416,-8.6119,-8.6978,-8.6863,-4.0246,-4.1355,-4.3998,-4.8825,-5.0309,-5.2799,0.0,0.0,-6.2267,-6.5493,-6.7773,-6.9251,-6.9596,-7.1173,-7.2556,-7.2891,-7.4344,-7.548,-7.5674,-7.6376,-7.6571,-7.5791,-7.7857,-7.9415,-7.9493,-8.0974,-8.2377,-8.3312,-8.4208,-8.5066,-8.5962,-8.6741,-8.7209,-8.7209,-8.7209,-8.7209,-8.7209,-8.7209,-8.7209,-8.7209,-8.7209,-8.7209,-8.7209,-8.7209,-8.7209,-8.7248,-8.8059,-8.8869,-8.9593,-8.971,-8.9749,-8.9749,-8.9866,-8.9749,-8.9588,-8.9528,-8.9567,-8.9586,-8.9521,-8.9021,-8.8416,-8.8391,-8.7832,-8.7215,-8.7286,-8.7214,-8.7142,-8.7169,-8.7136,-8.7102,-8.6907,-8.6439,-8.5937,-8.5742,-8.4571,-8.3718,-8.4481,-8.3978,-8.3362,-8.3341,-8.3344,-8.311,-8.2411,-8.2293,-8.2254,-8.2176,-8.2137,-8.1825,-8.0966,-8.0849,-8.0576,-7.9795,-7.9717,-7.9756,-7.9834,-7.9834,-8.0146,-8.081,-8.0849,-8.12,-8.1981,-8.202,-8.2371,-8.3191,-8.323,-8.3699,-8.4675,-8.5534,-8.6002,-8.6119,-8.6978,-8.7319,-4.7301,-4.9294,-5.1481,0.0,-5.8407,-6.1509,-6.5004,-6.6054,-6.6835,-6.8824,-7.0215,-7.1153,-7.1186,-7.1821,-7.2645,0.0,-7.4466,-7.529,-7.632,-7.632,-7.6131,-7.5801,-7.7126,-7.8247,-7.8743,-8.0391,-8.2195,-8.4072,-8.4056,-8.4785,-8.6656,-8.6598,-8.6702,-8.7209,-8.7228,-8.728,-8.728,-8.728,-8.7247,-8.7264,-8.7228,-8.7228,-8.7264,-8.7735,-8.8235,-8.88,-8.9181,-8.9554,-8.9954,-9.0462,-9.0657,-9.0696,-9.1203,-9.1398,-9.1281,-9.0239,-8.9888,-8.9816,-8.9298,-8.8874,-8.8495,-8.7972,-8.7225,-8.6607,-8.7125,-8.6623,-8.5921,-8.64,-8.6219,-8.5721,-8.5214,-8.5188,-8.5313,-8.5313,-8.4377,-8.3756,-8.4622,-8.3767,-8.2791,-8.2798,-8.2801,-8.2684,-8.2371,-8.2293,-8.2293,-8.2293,-8.2293,-8.2176,-8.1786,-8.1747,-8.163,-8.1239,-8.12,-8.12,-8.12,-8.12,-8.1356,-8.1747,-8.1747,-8.2137,-8.2957,-8.2996,-8.3386,-8.4245,-8.4245,-8.4675,-8.5573,-8.5924,-8.6353,-8.6861,-8.7212,-8.7404,-5.1275,-5.4151,0.0,-5.9839,-6.4131,-6.7596,-6.7506,-6.8668,-6.9942,-7.0622,-7.1265,-7.1725,-7.1772,-7.2011,-7.264,-7.4166,-7.4595,-7.5268,-7.678,-7.6274,-7.5732,-7.579,-7.6306,-7.7121,-7.8238,-7.9881,-8.1763,-8.3908,-8.3693,-8.4462,-8.6802,-8.6356,-8.6377,-8.7196,-8.7259,-8.7309,-8.7309,-8.7309,-8.7281,-8.7302,-8.7259,-8.7376,-8.7692,-8.8506,-8.9397,-9.0251,-9.0272,-9.0399,-9.0681,-9.1301,-9.1574,-9.1613,-9.2242,-9.2515,-9.232,-9.0837,-9.0442,-9.0472,-8.9608,-8.914,-8.8794,-8.7926,-8.7068,-8.6444,-8.6839,-8.6102,-8.5244,-8.5565,-8.5266,-8.4654,-8.4029,-8.4157,-8.4441,-8.4441,-8.3777,-8.3386,-8.4245,-8.3504,-8.2645,-8.2645,-8.2645,-8.2567,-8.2332,-8.2293,-8.2293,-8.2293,-8.2293,-8.2293,-8.2293,-8.2293,-8.2293,-8.2293,-8.2293,-8.2293,-8.2293,-8.2293,-8.2293,-8.2293,-8.2293,-8.2645,-8.3465,-8.3504,-8.4011,-8.5143,-8.5143,-8.5573,-8.6471,-8.6471,-8.6783,-8.7404,-8.7404,-8.7404,-4.9529,0.0,-5.7039,-6.1358,-6.5037,-6.8041,-6.9794,-7.0922,-7.1633,-7.164,-7.1731,-7.1817,-7.1817,-7.2479,-7.3347,-7.4231,-7.5094,-7.5962,-7.6882,-7.6301,-7.5794,-7.5799,-7.5815,-7.6528,0.0,-7.9903,-8.129,-8.2226,-8.3045,-8.4259,-8.5937,-8.6015,-8.64,-8.7258,-8.7297,-8.7302,-8.7302,-8.7302,-8.7302,-8.7302,-8.7297,-8.7731,-8.8589,-8.9447,-9.0321,-9.1163,-9.1163,-9.1644,-9.2404,-9.2443,-9.2443,-9.2443,-9.2482,-9.2482,-9.2404,-9.1546,-9.1765,-9.229,-9.1408,-9.0555,-8.9715,-8.8828,-8.7965,-8.7112,-8.6354,-8.6086,-8.5895,-8.5058,-8.4828,-8.4789,-8.475,-8.4167,-8.3543,-8.3543,-8.2918,-8.2567,-8.3386,-8.3504,-8.3465,-8.3465,-8.3465,-8.323,-8.245,-8.2293,-8.2293,-8.2293,-8.2293,-8.2293,-8.2293,-8.2293,-8.2293,-8.2293,-8.2293,-8.2293,-8.2293,-8.2293,-8.2293,-8.2293,-8.2293,-8.2645,-8.3465,-8.3504,-8.4323,-8.6041,-8.6041,-8.651,-8.7368,-8.7368,-8.7368,-8.7404,-8.7404,-8.7404,-5.5332,0.0,-6.1997,-6.5114,-6.8108,-7.0487,-7.1092,-7.1505,-7.1788,-7.1788,-7.0909,-7.0157,-7.0126,-7.0385,-7.1044,-7.2498,-7.3965,-7.54,-7.6864,-7.6829,-7.6447,-7.5875,-7.6308,0.0,0.0,0.0,0.0,-8.3678,-8.2573,-8.3268,-8.674,-8.5829,-8.5859,-8.7263,-8.7355,-8.7365,-8.7365,-8.7365,-8.7373,-8.7386,-8.7932,-8.8973,-9.0345,-9.0651,-9.1288,-9.2065,-9.2077,-9.2245,-9.2482,-9.2482,-9.2482,-9.2482,-9.2482,-9.2482,-9.2404,-9.1585,-9.1464,-9.1496,-9.0044,-8.9345,-8.8958,-8.8092,-8.719,-8.657,-8.6886,-8.5758,-8.4434,-8.4711,-8.4011,-8.3152,-8.3152,-8.2918,-8.284,-8.3386,-8.3308,-8.3347,-8.4167,-8.3894,-8.366,-8.4245,-8.3894,-8.3426,-8.3152,-8.3113,-8.2918,-8.2371,-8.2293,-8.2293,-8.2293,-8.2293,-8.2293,-8.2293,-8.2293,-8.2293,-8.2293,-8.2293,-8.2528,-8.3074,-8.3113,-8.3738,-8.5182,-8.5221,-8.5768,-8.6939,-8.6978,-8.7095,-8.7404,-8.7404,-8.7404,-8.7407,-8.7993,-8.8266,-6.0095,-6.303,-6.5125,-6.828,-7.0401,-7.1725,-7.1751,-7.1788,-7.1633,-7.1034,-6.9538,-6.8179,-6.7582,-6.6974,-6.7547,-7.0522,-7.1955,-7.3825,-7.7082,-7.7046,-7.6777,-7.714,-7.7414,-7.7726,0.0,0.0,0.0,-8.323,-8.2713,-8.3643,-8.6765,-8.5856,-8.5886,-8.7286,-8.7382,-8.739,-8.739,-8.739,-8.7549,-8.7876,-8.9047,-9.0204,-9.1232,-9.1574,-9.2007,-9.2503,-9.2518,-9.2482,-9.2482,-9.2482,-9.2482,-9.2482,-9.2482,-9.2326,-9.1975,-9.1155,-9.0648,-9.0218,-8.9086,-8.8696,-8.8579,-8.7681,-8.7017,-8.6627,-8.6861,-8.5768,-8.4401,-8.4362,-8.3543,-8.2645,-8.2371,-8.2293,-8.245,-8.2957,-8.3074,-8.3308,-8.4167,-8.366,-8.3308,-8.4167,-8.366,-8.3074,-8.3074,-8.3074,-8.2918,-8.2371,-8.2293,-8.2293,-8.2293,-8.2293,-8.2293,-8.2293,-8.2567,-8.2723,-8.2723,-8.2996,-8.3426,-8.3933,-8.3972,-8.4597,-8.6041,-8.608,-8.651,-8.7368,-8.7404,-8.7404,-8.7404,-8.772,-8.7876,-8.7876,-8.8774,-8.9164,-6.3521,-6.5418,-6.6489,-7.0661,-7.1693,-7.1719,-7.1739,-7.1716,-7.1185,-6.9451,-6.7664,-6.5853,0.0,0.0,-6.3257,-6.8252,-6.9351,-7.1624,-7.7495,-7.6993,-7.6914,0.0,0.0,0.0,0.0,0.0,0.0,-8.1122,0.0,-8.5104,-8.6119,-8.6119,-8.651,-8.7368,-8.7404,-8.7404,-8.7404,-8.7446,-8.7915,-8.8852,-9.0492,-9.1311,-9.1389,-9.2131,-9.2482,-9.2482,-9.2482,-9.2482,-9.2482,-9.2482,-9.2482,-9.2482,-9.2482,-9.2014,-9.1233,-9.0335,-8.9477,-8.8735,-8.8657,-8.8618,-8.8501,-8.7681,-8.7404,-8.7251,-8.6431,-8.6158,-8.5768,-8.4089,-8.3582,-8.3308,-8.2567,-8.2332,-8.2293,-8.2293,-8.2332,-8.2567,-8.3347,-8.2918,-8.2606,-8.3426,-8.2918,-8.2371,-8.2371,-8.2332,-8.2293,-8.2371,-8.2371,-8.2332,-8.2293,-8.2332,-8.2371,-8.2371,-8.3074,-8.3582,-8.3582,-8.4323,-8.4831,-8.487,-8.487,-8.526,-8.6119,-8.6158,-8.6549,-8.7368,-8.7446,-8.7486,-8.7486,-8.8344,-8.8774,-8.8774,-8.9672,-9.0062,-6.5963,-6.8182,-6.9605,-7.1287,-7.178,-7.1675,-7.1056,-7.0394,-6.9267,-6.69,-6.4006,-6.1234,0.0,0.0,0.0,-6.4316,-6.8897,0.0,-7.6873,-7.8044,0.0,-8.0428,0.0,-8.1279,-8.1323,-8.2254,0.0,0.0,-8.2918,-8.4167,-8.6939,-8.6431,-8.651,-8.7368,-8.7404,-8.7404,-8.7404,-8.8032,-8.9125,-9.0648,-9.1077,-9.1624,-9.2209,-9.2404,-9.2482,-9.2482,-9.2482,-9.2482,-9.2482,-9.2482,-9.2482,-9.2482,-9.2482,-9.2365,-9.2014,-9.0531,-8.9867,-8.9477,-8.8188,-8.772,-8.7681,-8.7486,-8.7404,-8.7368,-8.7134,-8.6627,-8.6002,-8.5573,-8.4519,-8.3465,-8.323,-8.2762,-8.2293,-8.2293,-8.2762,-8.323,-8.3465,-8.3347,-8.3465,-8.4284,-8.3777,-8.3191,-8.3191,-8.2684,-8.2489,-8.3113,-8.3191,-8.2996,-8.2371,-8.2801,-8.3191,-8.3191,-8.3972,-8.448,-8.448,-8.4675,-8.5065,-8.5729,-8.5768,-8.6158,-8.7017,-8.7056,-8.7173,-8.7404,-8.8032,-8.8383,-8.8383,-8.9242,-8.9672,-8.9672,-9.057,-9.096,-6.8672,-7.0357,-7.1226,-7.1686,-7.1828,-7.1262,-6.889,-6.7958,-6.6322,-6.1836,-5.8787,0.0,-5.3592,-5.5273,0.0,0.0,0.0,0.0,-7.6865,-7.8346,-7.9717,0.0,-8.2458,0.0,-8.3194,-8.4089,-8.4792,0.0,-8.4441,-8.4987,-8.729,-8.6939,-8.69,-8.7368,-8.7404,-8.7564,-8.7954,-8.8852,-8.9945,-9.1311,-9.1663,-9.2053,-9.2482,-9.2482,-9.2482,-9.2482,-9.2482,-9.2482,-9.2482,-9.2482,-9.2482,-9.2482,-9.2482,-9.2287,-9.1819,-9.0492,-8.975,-8.9242,-8.7876,-8.7404,-8.7404,-8.7404,-8.7404,-8.7404,-8.7404,-8.7056,-8.6588,-8.6197,-8.5416,-8.4441,-8.3699,-8.3152,-8.2723,-8.2371,-8.2645,-8.3074,-8.3426,-8.323,-8.3113,-8.3621,-8.3308,-8.2957,-8.2957,-8.2606,-8.245,-8.2918,-8.2957,-8.2957,-8.284,-8.3543,-8.4089,-8.4089,-8.4831,-8.5377,-8.5377,-8.5729,-8.6158,-8.6627,-8.6666,-8.69,-8.7368,-8.7404,-8.7564,-8.7954,-8.8461,-8.8891,-8.9281,-9.014,-9.057,-9.0609,-9.1428,-9.1819,-7.1062,-7.1854,-7.1846,-7.1895,-7.1739,-7.044,-6.628,-6.492,-6.2656,-5.6045,0.0,-5.117,-4.8745,-4.9958,-5.3203,-5.9022,0.0,-6.9354,-7.6936,-7.8145,-7.9607,-8.3124,-8.3621,-8.4294,-8.5924,-8.608,-8.6392,-8.7173,-8.6549,-8.6471,-8.7368,-8.7404,-8.7404,-8.7404,-8.7525,-8.7993,-8.8852,-8.975,-9.0609,-9.1467,-9.217,-9.2482,-9.2482,-9.2482,-9.2482,-9.2482,-9.2482,-9.2482,-9.2482,-9.2482,-9.2482,-9.2482,-9.2482,-9.2053,-9.135,-9.0374,-8.9516,-8.8735,-8.7759,-8.7404,-8.7404,-8.7404,-8.7404,-8.7404,-8.7404,-8.7404,-8.7251,-8.651,-8.6197,-8.5768,-8.4245,-8.3777,-8.3504,-8.2801,-8.2528,-8.2645,-8.3347,-8.2879,-8.2293,-8.2293,-8.2293,-8.2293,-8.2293,-8.2293,-8.2371,-8.2606,-8.2528,-8.2801,-8.3738,-8.4401,-8.4831,-8.4948,-8.5768,-8.6275,-8.6275,-8.6978,-8.7404,-8.7404,-8.7404,-8.7446,-8.7564,-8.7564,-8.7993,-8.8852,-8.9008,-8.9437,-9.0179,-9.1038,-9.1467,-9.1467,-9.217,-9.2482,-7.1533,-7.1909,-7.1897,-7.1914,-7.0808,-6.8828,-6.5234,-6.2206,0.0,0.0,-5.0006,-4.7819,-4.5909,-4.8729,-5.28,-5.7497,-6.2954,-6.907,-7.6048,-7.7672,-7.9674,0.0,-8.4451,-8.4913,-8.6008,-8.608,0.0,0.0,-8.6197,-8.6471,-8.7368,-8.7404,-8.7404,-8.7404,-8.811,-8.8891,-8.975,-9.0648,-9.1467,-9.2287,-9.2443,-9.2482,-9.2482,-9.2482,-9.2482,-9.2482,-9.2482,-9.2482,-9.2482,-9.2482,-9.2482,-9.2482,-9.2482,-9.2404,-9.2092,-9.057,-8.9906,-8.9555,-8.7954,-8.7404,-8.7404,-8.7404,-8.7404,-8.7404,-8.7404,-8.7404,-8.7368,-8.7212,-8.6666,-8.6041,-8.5729,-8.5104,-8.4558,-8.4401,-8.3816,-8.3347,-8.3465,-8.2879,-8.2293,-8.2293,-8.2293,-8.2293,-8.2293,-8.2293,-8.2762,-8.4167,-8.3738,-8.3855,-8.5456,-8.5143,-8.5065,-8.5807,-8.6666,-8.7173,-8.7173,-8.7329,-8.7404,-8.7404,-8.7404,-8.772,-8.8422,-8.8461,-8.8891,-8.975,-9.0492,-9.0921,-9.1077,-9.1897,-9.2287,-9.2287,-9.2443,-9.2482,-7.155,-7.1869,-7.1875,-7.1891,-7.0573,-6.7773,-6.2126,0.0,0.0,0.0,-4.5612,-4.4404,-4.3102,-4.6399,0.0,-5.3821,-5.9352,-6.5609,0.0,-7.5,0.0,-8.325,-8.4357,-8.5234,0.0,-8.707,-8.7343,-8.7343,-8.7734,-8.781,-8.7411,-8.7404,-8.7384,-8.733,-8.8246,-8.9078,-8.9883,-9.0835,-9.1682,-9.2448,-9.2463,-9.2482,-9.2482,-9.2482,-9.2482,-9.2482,-9.2482,-9.2482,-9.2482,-9.2482,-9.2482,-9.2482,-9.2482,-9.2482,-9.2365,-9.1116,-9.0374,-8.9828,-8.854,-8.7798,-8.7404,-8.7404,-8.7404,-8.7404,-8.7404,-8.7404,-8.7404,-8.7404,-8.7095,-8.6666,-8.6236,-8.5807,-8.5377,-8.4909,-8.448,-8.4167,-8.4167,-8.3855,-8.3465,-8.2996,-8.3308,-8.3308,-8.245,-8.2645,-8.3074,-8.3426,-8.3152,-8.3347,-8.4597,-8.4362,-8.448,-8.5338,-8.6197,-8.6705,-8.6705,-8.7564,-8.8071,-8.8071,-8.8501,-8.893,-8.9359,-8.9398,-8.9789,-9.0648,-9.1077,-9.1507,-9.1936,-9.2326,-9.2482,-9.2522,-9.2951,-9.3185,-7.1171,-7.1717,-7.183,-7.1881,-7.0255,-6.6736,-5.9352,-5.5916,0.0,0.0,-4.2136,-4.1861,-4.1353,0.0,-4.7621,0.0,-5.5853,-6.1847,0.0,0.0,0.0,0.0,0.0,0.0,-8.7244,-8.7901,0.0,-8.8447,-8.8877,-8.869,-8.7682,-8.7442,-8.7337,-8.7264,-8.8354,-8.9218,-8.9792,-9.0935,-9.182,-9.2383,-9.2473,-9.2482,-9.2482,-9.2482,-9.2482,-9.2482,-9.2482,-9.2482,-9.2482,-9.2482,-9.2482,-9.2482,-9.2482,-9.2482,-9.2404,-9.1585,-9.0765,-8.9867,-8.9008,-8.8149,-8.7404,-8.7404,-8.7404,-8.7404,-8.7404,-8.7404,-8.7404,-8.7404,-8.7404,-8.7251,-8.6549,-8.6392,-8.6158,-8.5299,-8.5065,-8.5026,-8.4831,-8.4792,-8.4597,-8.3894,-8.4323,-8.4362,-8.3074,-8.3347,-8.3621,-8.3191,-8.2801,-8.2918,-8.3933,-8.3738,-8.3816,-8.4714,-8.5573,-8.6197,-8.6353,-8.7798,-8.8696,-8.8696,-8.9516,-9.0062,-9.0257,-9.0296,-9.0687,-9.1546,-9.1546,-9.1858,-9.2482,-9.2678,-9.2795,-9.2795,-9.3654,-9.4083,-7.0349,-7.1357,-7.1885,-7.1909,-6.9338,-6.5211,-5.9098,0.0,0.0,-4.3481,-4.1611,-4.135,-4.2055,-4.3104,0.0,0.0,0.0,-5.9865,0.0,0.0,0.0,0.0,0.0,0.0,0.0,-8.7541,0.0,-8.8243,-8.772,-8.7667,-8.8357,-8.766,-8.7228,-8.7222,-8.8828,-8.9724,-8.9789,-9.1442,-9.2343,-9.2383,-9.2473,-9.2482,-9.2482,-9.2482,-9.2482,-9.2482,-9.2482,-9.2482,-9.2482,-9.2482,-9.2482,-9.2482,-9.2482,-9.2482,-9.2404,-9.1585,-9.0765,-8.9867,-8.9008,-8.8149,-8.7404,-8.7404,-8.7404,-8.7404,-8.7404,-8.7404,-8.7404,-8.7404,-8.7404,-8.7368,-8.729,-8.729,-8.7056,-8.6197,-8.5963,-8.5768,-8.4987,-8.4792,-8.4792,-8.4714,-8.4753,-8.4753,-8.4597,-8.4636,-8.4909,-8.5651,-8.4401,-8.3972,-8.5651,-8.448,-8.3816,-8.4714,-8.5573,-8.6431,-8.7212,-8.8149,-8.8696,-8.8696,-8.9516,-9.0335,-9.1155,-9.1194,-9.1546,-9.2365,-9.2404,-9.2443,-9.2482,-9.3302,-9.3693,-9.3693,-9.4552,-9.4981,-6.8981,-7.0813,-7.176,-7.1767,-6.8735,-6.4188,-5.8207,0.0,-4.8716,-4.2656,-4.1175,-4.1098,-4.1404,-4.2174,-4.4051,0.0,0.0,0.0,0.0,0.0,0.0,0.0,0.0,0.0,0.0,0.0,-8.8739,-8.9634,-8.8446,-8.7881,-8.8248,-8.7549,-8.7135,-8.7069,-8.8808,-8.9706,-8.9682,-9.1506,-9.2383,-9.2383,-9.2473,-9.2482,-9.2482,-9.2482,-9.2482,-9.2482,-9.2482,-9.2482,-9.2482,-9.2482,-9.2482,-9.2482,-9.2482,-9.2482,-9.2443,-9.2131,-9.1507,-9.0726,-9.0374,-8.9672,-8.8891,-8.8344,-8.8188,-8.8071,-8.7564,-8.7404,-8.7404,-8.7404,-8.7404,-8.7404,-8.7404,-8.7404,-8.7329,-8.6978,-8.69,-8.6783,-8.6431,-8.6353,-8.6197,-8.569,-8.6002,-8.6041,-8.4987,-8.5221,-8.5534,-8.5338,-8.4714,-8.4519,-8.5221,-8.4714,-8.4636,-8.5495,-8.5885,-8.6236,-8.6588,-8.8383,-8.9477,-8.9477,-9.0765,-9.1663,-9.2014,-9.2014,-9.217,-9.2482,-9.2482,-9.2756,-9.3263,-9.3615,-9.4083,-9.4591,-9.5488,-9.5879,-6.6311,-6.8967,-7.0628,-7.0901,-6.7695,-6.2973,0.0,-5.2601,-4.7867,-4.2073,-4.096,-4.0941,-4.0907,-4.1652,-4.2991,0.0,0.0,-5.1289,0.0,0.0,0.0,0.0,0.0,0.0,0.0,-8.8338,-8.9423,-8.9771,-8.8479,-8.7677,-8.7677,-8.7228,-8.7089,-8.7336,-8.8771,-8.9674,-8.9903,-9.1535,-9.2336,-9.2337,-9.2443,-9.2482,-9.2482,-9.2482,-9.2482,-9.2482,-9.2482,-9.2482,-9.2482,-9.2482,-9.2482,-9.2482,-9.2482,-9.2482,-9.2482,-9.2482,-9.1975,-9.1311,-9.1311,-9.0726,-8.9867,-8.8969,-8.8696,-8.854,-8.7642,-8.7404,-8.7404,-8.7404,-8.7404,-8.7404,-8.7404,-8.7404,-8.7404,-8.7404,-8.7404,-8.7404,-8.7404,-8.7404,-8.7212,-8.6588,-8.6978,-8.7017,-8.5768,-8.608,-8.6275,-8.5651,-8.5338,-8.5299,-8.5534,-8.5338,-8.5534,-8.6392,-8.6471,-8.6471,-8.6471,-8.8657,-8.9984,-8.9984,-9.1585,-9.2482,-9.2482,-9.2482,-9.2482,-9.2482,-9.2482,-9.2912,-9.381,-9.4044,-9.463,-9.5527,-9.6386,-9.6777,-6.206,-6.5382,-6.8144,-6.9001,-6.5952,-6.1381,-5.6175,-5.1707,-4.7162,-4.1956,-4.0907,-4.0898,-4.0907,-4.1606,-4.2765,-4.4438,0.0,0.0,0.0,0.0,0.0,0.0,0.0,0.0,0.0,-8.719,-8.8853,-8.8002,-8.7178,0.0,-8.6713,-8.6725,-8.7137,-8.8049,-8.8864,-8.9717,-9.0582,-9.1658,-9.2182,-9.2182,-9.2417,-9.2482,-9.2482,-9.2482,-9.2482,-9.2482,-9.2482,-9.2482,-9.2482,-9.2482,-9.2482,-9.2482,-9.2482,-9.2482,-9.2482,-9.2482,-9.1975,-9.1311,-9.1311,-9.0726,-8.9867,-8.8969,-8.8696,-8.854,-8.7642,-8.7404,-8.7404,-8.7404,-8.7404,-8.7404,-8.7404,-8.7404,-8.7404,-8.7404,-8.7404,-8.7404,-8.7404,-8.7404,-8.7404,-8.7407,-8.7404,-8.7404,-8.7368,-8.7368,-8.7368,-8.7365,-8.6627,-8.6392,-8.7251,-8.6627,-8.6431,-8.729,-8.7407,-8.7407,-8.7407,-8.9008,-8.9984,-8.9984,-9.1585,-9.2482,-9.2482,-9.2482,-9.2482,-9.2482,-9.2482,-9.2912,-9.381,-9.4669,-9.5527,-9.6425,-9.7284,-9.7675,-5.6086,-5.8748,-6.0761,-6.045,-5.8448,-5.5514,-5.1513,-4.8638,-4.5686,-4.1723,-4.0893,-4.0912,-4.0902,-4.1086,-4.2776,-4.7411,-4.9058,0.0,0.0,0.0,0.0,0.0,0.0,0.0,0.0,0.0,-8.9085,-8.8814,-8.7448,-8.6636,-8.6636,-8.6636,-8.7062,-8.7977,-8.888,-8.974,-9.0595,-9.1551,-9.2107,-9.2115,-9.2298,-9.2342,-9.2381,-9.2471,-9.2482,-9.2482,-9.2482,-9.2482,-9.2482,-9.2482,-9.2482,-9.2482,-9.2482,-9.2482,-9.2482,-9.2482,-9.2326,-9.2131,-9.2131,-9.1936,-9.1585,-9.0765,-9.0062,-8.9437,-8.854,-8.7876,-8.7404,-8.7404,-8.7404,-8.7404,-8.7404,-8.7404,-8.7404,-8.7404,-8.7404,-8.7404,-8.7404,-8.7404,-8.7404,-8.7404,-8.7404,-8.7404,-8.7404,-8.7404,-8.7404,-8.7404,-8.7173,-8.7095,-8.7368,-8.7173,-8.7095,-8.7368,-8.7404,-8.7404,-8.7404,-8.8461,-8.9359,-8.9945,-9.0492,-9.1077,-9.1663,-9.1663,-9.1663,-9.1663,-9.2209,-9.3224,-9.4708,-9.4981,-9.584,-9.7284,-9.7558,-9.7714,-5.1131,-5.3719,-5.5598,-5.5359,-5.3772,-5.1558,-4.8755,-4.654,-4.4287,-4.1476,-4.0917,-4.0897,-4.0876,-4.1325,-4.2974,-4.6758,-4.8667,0.0,0.0,0.0,0.0,0.0,0.0,0.0,0.0,-8.8892,-8.9511,-8.9201,-8.7886,-8.6958,-8.661,-8.661,-8.7164,-8.8417,-8.8959,-8.9668,-9.0519,-9.1471,-9.1979,-9.2048,-9.2155,-9.2239,-9.2285,-9.2381,-9.2443,-9.2478,-9.2496,-9.2482,0.0,-9.2482,-9.2482,-9.2482,-9.2482,-9.2482,-9.2482,-9.2482,-9.2482,-9.2482,-9.2482,-9.2482,-9.2365,-9.1546,-9.0726,-8.9906,-8.9359,-8.8344,-8.7404,-8.7404,-8.7404,-8.7404,-8.7404,-8.7404,-8.7404,-8.7404,-8.7404,-8.7404,-8.7404,-8.7404,-8.7404,-8.7404,-8.7404,-8.7404,-8.7404,-8.7404,-8.7404,-8.7404,-8.7404,-8.7404,-8.7404,-8.7404,-8.7404,-8.7404,-8.7404,-8.7404,-8.7404,-8.8188,-8.893,-8.9477,-8.9828,-9.0374,-9.1272,-9.1311,-9.1428,-9.1741,-9.2248,-9.3185,-9.4591,-9.5254,-9.6308,-9.7714,-9.7714,-9.7714,0.0,-4.9881,-5.1863,-5.2607,-5.1053,-4.8916,-4.724,-4.5059,0.0,-4.1256,-4.0902,-4.0959,-4.1135,-4.2324,-4.3518,-4.4105,-4.754,0.0,0.0,0.0,0.0,0.0,-8.1387,0.0,-8.5488,-8.8505,-9.0091,-8.9317,-8.8428,-8.7538,-8.6726,-8.6648,-8.7383,-8.9047,-8.9163,-8.9627,-9.0478,-9.1401,-9.1889,-9.1889,-9.2002,-9.2139,-9.2169,-9.2241,-9.2301,0.0,-9.2443,-9.2499,-9.2493,-9.2493,-9.2489,-9.2482,-9.2482,-9.2482,-9.2482,-9.2482,-9.2482,-9.2482,-9.2482,-9.2482,-9.2365,-9.1546,-9.0765,-9.0062,-9.0023,-8.8852,-8.7564,-8.7525,-8.7486,-8.7486,-8.7407,-8.7404,-8.7404,-8.7404,-8.7404,-8.7404,-8.7404,-8.7404,-8.7404,-8.7404,-8.7404,-8.7404,-8.7404,-8.7404,-8.7404,-8.7404,-8.7404,-8.7404,-8.7404,-8.7404,-8.7407,-8.7486,-8.7446,-8.7446,-8.7564,-8.8227,-8.8657,-8.8774,-8.9477,-9.0335,-9.135,-9.1311,-9.1663,-9.2482,-9.2561,-9.299,-9.381,-9.5567,-9.6816,-9.7597,-9.7675,-9.7714,-4.2286,0.0,-4.4487,-4.4015,-4.3976,-4.3748,0.0,-4.2446,-4.2193,-4.114,-4.087,-4.1606,-4.4221,-4.3931,-4.542,-5.195,-5.3846,-5.6553,-6.2356,0.0,0.0,-8.1658,-8.5681,-8.8079,-8.8273,-8.9549,-9.0323,-9.013,-8.8737,-8.7795,-8.7615,-8.6958,-8.7112,-8.8157,-8.8853,-8.9898,-9.1367,-9.1643,-9.176,-9.176,-9.1879,-9.1971,-9.1987,-9.2089,-9.2147,-9.2155,-9.2225,-9.2294,-9.2343,-9.2381,-9.2445,-9.2482,-9.2482,-9.2482,-9.2482,-9.2482,-9.2482,-9.2482,-9.2482,-9.2482,-9.2365,-9.1546,-9.1155,-9.0882,-9.0179,-8.9711,-8.9242,-8.8579,-8.8383,-8.8227,-8.7564,-8.7404,-8.7404,-8.7404,-8.7404,-8.7404,-8.7404,-8.7404,-8.7404,-8.7404,-8.7404,-8.7404,-8.7404,-8.7404,-8.7404,-8.7404,-8.7404,-8.7404,-8.7404,-8.7404,-8.7642,-8.8305,-8.7798,-8.7954,-8.9281,-8.8344,-8.8266,-8.9594,-8.9242,-8.9984,-9.2131,-9.1624,-9.1663,-9.2482,-9.3146,-9.3615,-9.381,-9.5567,-9.6503,-9.6738,-9.7401,-9.7714,-4.0247,-4.1568,-4.2772,-4.2694,-4.2733,-4.2767,-4.268,0.0,0.0,0.0,0.0,0.0,-4.4318,-4.5233,-4.7386,0.0,-5.5664,0.0,0.0,0.0,0.0,-8.4173,-8.7345,-8.9201,0.0,-9.0284,-9.0826,-9.0439,-8.9201,-8.8505,-8.8505,-8.7306,-8.719,-8.8466,-8.8582,-8.9395,-9.1097,-9.1484,-9.1716,-9.1716,-9.1747,-9.1816,-9.185,-9.1971,-9.2034,-9.2054,-9.2182,-9.228,-9.2302,-9.2459,-9.2519,-9.2482,-9.2482,-9.2482,-9.2561,-9.2951,-9.2834,-9.2561,-9.2951,-9.2834,-9.2443,-9.1975,-9.1858,-9.1741,-9.1272,-9.1155,-9.0882,-8.9633,-8.9281,-8.9203,-8.8735,-8.8305,-8.7993,-8.7993,-8.7681,-8.7404,-8.7404,-8.7404,-8.7404,-8.7404,-8.7404,-8.7404,-8.7404,-8.7404,-8.7404,-8.7404,-8.7404,-8.7404,-8.7404,-8.7404,-8.772,-8.8618,-8.8266,-8.854,-8.9906,-8.9516,-8.9594,-9.0531,-9.014,-9.0687,-9.2443,-9.2092,-9.2053,-9.2482,-9.2951,-9.3419,-9.381,-9.5137,-9.5996,-9.6425,-9.7284,-9.7714,-3.9975,-4.2146,-4.4277,-4.4399,-4.4127,-4.4039,-4.455,0.0,0.0,0.0,0.0,0.0,0.0,-4.7038,0.0,0.0,0.0,0.0,-7.338,-7.8099,-8.1774,-8.4946,-8.7499,0.0,-8.9008,-9.04,-9.1019,-9.0284,-8.9472,-8.9008,-8.9008,-8.7461,-8.7345,-8.8931,-8.8312,-8.866,-9.0207,-9.1058,-9.1561,-9.1716,-9.1716,-9.1744,-9.1773,-9.1839,-9.1918,-9.1976,-9.2139,-9.2225,-9.2246,-9.246,-9.2521,-9.2463,-9.2493,-9.2525,-9.26,-9.3341,-9.3146,-9.26,-9.3497,-9.3224,-9.2522,-9.2678,-9.26,-9.2482,-9.2482,-9.2482,-9.2209,-9.0765,-9.0296,-9.0179,-9.0023,-8.9359,-8.8696,-8.8696,-8.8032,-8.7404,-8.7404,-8.7404,-8.7404,-8.7404,-8.7404,-8.7404,-8.7404,-8.7404,-8.7404,-8.7404,-8.7404,-8.7486,-8.7759,-8.7798,-8.8227,-8.9359,-8.9359,-8.9672,-9.0687,-9.1194,-9.1585,-9.1858,-9.1624,-9.178,-9.2482,-9.2639,-9.2639,-9.2482,-9.2482,-9.2912,-9.381,-9.4669,-9.5567,-9.6425,-9.7284,-9.7714,-4.1223,-4.4694,-4.6923,-4.3474,-4.4134,-4.5481,-4.4826,0.0,0.0,0.0,0.0,0.0,0.0,-5.1262,-5.3614,0.0,0.0,-7.2258,0.0,0.0,-8.3128,-8.5062,0.0,-8.8118,-8.8118,-8.9008,-8.9511,-8.9395,-8.8582,-8.8118,-8.8118,-8.7151,-8.7074,-8.8079,-8.7963,-8.8389,-8.9356,-9.0168,-9.0981,-9.1716,-9.1716,-9.1716,-9.173,-9.1732,-9.1721,-9.1747,-9.1847,-9.1897,-9.1965,-9.2178,-9.2275,-9.2344,-9.2521,-9.2535,-9.2522,-9.2639,-9.26,-9.26,-9.3497,-9.3224,-9.26,-9.3341,-9.3107,-9.2482,-9.2482,-9.2482,-9.2443,-9.217,-9.1624,-9.0921,-9.0179,-8.9359,-8.8696,-8.8696,-8.8032,-8.7404,-8.7404,-8.7404,-8.7404,-8.7404,-8.7404,-8.7404,-8.7404,-8.7404,-8.7404,-8.7404,-8.7404,-8.7915,-8.9398,-8.9594,-9.0492,-9.2756,-9.2365,-9.2561,-9.4161,-9.3107,-9.2951,-9.4434,-9.3146,-9.2365,-9.2482,-9.3224,-9.3263,-9.2522,-9.2482,-9.2912,-9.381,-9.4669,-9.5567,-9.6425,-9.7284,-9.7714,-3.9646,-4.2498,-4.5031,-4.493,-4.7534,-5.0131,-5.0143,-4.9727,0.0,0.0,0.0,0.0,0.0,0.0,-5.872,-6.6031,0.0,-7.5469,-7.9763,-8.1774,-8.3592,0.0,0.0,-8.7925,-8.7925,-8.8698,-8.9201,-8.9201,-8.8389,-8.8118,-8.8582,-8.7345,-8.6996,-8.7873,-8.7461,-8.7615,-8.8505,-8.8853,-8.9704,-9.0981,-9.1484,-9.1716,-9.1716,-9.1716,-9.1716,-9.173,-9.1798,-9.1872,-9.1889,-9.2093,-9.2194,-9.2298,-9.2383,-9.2493,-9.2627,-9.3095,-9.3525,-9.3955,-9.4345,-9.4228,-9.3955,-9.4384,-9.4228,-9.3837,-9.3361,-9.3202,-9.3081,-9.2642,-9.2248,-9.1858,-9.1467,-9.0726,-9.0218,-9.0648,-9.0101,-8.9633,-9.0062,-8.9828,-8.9359,-8.8891,-8.8422,-8.7954,-8.7486,-8.7798,-8.811,-8.811,-8.8891,-8.9789,-9.0609,-9.1077,-9.1975,-9.3615,-9.3029,-9.3029,-9.4278,-9.3654,-9.3537,-9.4356,-9.3654,-9.3185,-9.3185,-9.3146,-9.2912,-9.2522,-9.2951,-9.3419,-9.381,-9.5137,-9.6,-9.64,-9.7288,-9.7685,-3.8889,-4.092,-4.3451,-4.6706,0.0,-5.27,-5.487,-5.408,0.0,0.0,0.0,0.0,0.0,-5.8797,0.0,-7.0789,-7.4231,-7.7442,-8.1542,-8.2664,-8.3979,-8.6339,-8.719,-8.7615,-8.7615,-8.8196,-8.8582,-8.8582,-8.7963,-8.7886,-8.8544,-8.7345,-8.6919,-8.7577,-8.6958,-8.6919,-8.7577,-8.7809,-8.8737,-9.04,-9.1097,-9.1484,-9.1716,-9.1716,-9.1716,-9.173,-9.1823,-9.185,-9.1877,-9.2004,-9.2117,-9.2209,-9.2278,-9.2577,-9.2993,-9.3657,-9.4399,-9.5142,-9.5337,-9.5259,-9.5104,-9.5102,-9.4985,-9.4673,-9.3767,-9.3528,-9.3369,-9.273,-9.2528,-9.2528,-9.2486,-9.1897,-9.1467,-9.2053,-9.1585,-9.1233,-9.2053,-9.1741,-9.1155,-9.0687,-8.9906,-8.9086,-8.8422,-8.8696,-8.9086,-8.9281,-9.0452,-9.1507,-9.2092,-9.2561,-9.3224,-9.4278,-9.3615,-9.3302,-9.3771,-9.381,-9.3693,-9.3497,-9.3693,-9.3693,-9.3497,-9.2834,-9.26,-9.2795,-9.3458,-9.4005,-9.4395,-9.5765,-9.6517,-9.6724,-9.7379,-9.7701,-4.1256,-4.3152,-4.5041,-4.7752,-4.8023,-4.9333,-5.5672,-5.5818,0.0,-6.0692,0.0,0.0,0.0,-6.4058,-6.8429,-7.2993,-7.6514,-7.9956,-8.3399,0.0,-8.4637,-8.6377,-8.6648,-8.6687,-8.6687,-8.6764,-8.6803,-8.6803,-8.6726,-8.6726,-8.6764,-8.6687,-8.6648,-8.6687,-8.6648,-8.6648,-8.6687,-8.7499,-8.8737,-9.04,-9.0478,-9.0903,-9.1716,-9.1716,-9.1716,-9.1716,-9.1691,-9.1705,-9.1732,-9.185,-9.1909,-9.1962,-9.226,-9.2966,-9.3814,-9.3892,-9.4399,-9.522,-9.604,-9.5766,-9.5102,-9.5102,-9.4595,-9.3814,-9.2954,-9.2681,-9.2679,-9.2627,-9.2585,-9.2583,-9.2528,-9.1897,-9.1311,-9.1389,-9.0726,-9.0335,-9.1194,-9.135,-9.1507,-9.217,-9.1663,-9.1077,-9.1038,-9.0413,-9.0179,-9.0999,-9.1233,-9.2131,-9.4512,-9.4161,-9.4356,-9.6035,-9.541,-9.4591,-9.3849,-9.381,-9.3458,-9.2639,-9.3341,-9.3458,-9.2639,-9.2522,-9.2873,-9.3693,-9.3771,-9.4591,-9.623,-9.6325,-9.6803,-9.7623,-9.7674,-9.7717,-3.9962,-4.2136,-4.4544,-4.7678,-4.8955,0.0,0.0,-5.9648,-6.1466,-6.5528,-6.6533,0.0,0.0,0.0,-7.0905,-7.4115,-7.7094,-8.0188,-8.3631,-8.4095,-8.4714,-8.6416,-8.661,-8.661,-8.661,-8.661,-8.661,-8.661,-8.661,-8.661,-8.661,-8.661,-8.661,-8.661,-8.661,-8.661,-8.661,-8.6919,-8.7693,-8.8853,-8.9898,-9.0865,-9.1716,-9.1716,-9.1716,-9.1716,-9.1716,-9.1716,-9.1677,-9.176,-9.1832,-9.1938,-9.2146,-9.2866,-9.3856,-9.4326,-9.5155,-9.6091,-9.6912,-9.699,-9.6638,-9.6131,-9.5779,-9.5232,-9.3822,-9.3392,-9.3312,-9.2757,-9.2597,-9.2593,-9.2532,-9.2287,-9.217,-9.2717,-9.26,-9.26,-9.3458,-9.3654,-9.3576,-9.3341,-9.3068,-9.2678,-9.2131,-9.2209,-9.2482,-9.2795,-9.3771,-9.463,-9.5059,-9.5293,-9.5449,-9.5567,-9.4825,-9.3927,-9.3068,-9.299,-9.2834,-9.2522,-9.2795,-9.2834,-9.2522,-9.3029,-9.3458,-9.381,-9.4874,-9.5739,-9.6403,-9.6925,-9.7366,-9.7684,-9.7682,-9.7687,-3.9619,-4.1376,-4.3827,-4.7811,0.0,0.0,-5.9609,-6.224,-6.4638,-6.9435,-7.0402,-7.0324,-7.0054,0.0,0.0,0.0,-7.7674,-8.0382,-8.3283,-8.394,-8.4637,-8.6029,-8.6416,-8.661,-8.661,-8.661,-8.661,-8.661,-8.661,-8.661,-8.661,-8.661,-8.661,-8.661,-8.661,-8.661,-8.661,-8.661,-8.7035,-8.7925,-8.9047,-9.0207,-9.129,-9.1561,-9.1716,-9.1716,-9.1716,-9.1716,-9.1716,-9.1716,-9.176,-9.1926,-9.1992,-9.2717,-9.3813,-9.4594,-9.5567,-9.6601,-9.7422,-9.7695,-9.7539,-9.6445,-9.6094,-9.5742,-9.4022,-9.3475,-9.3357,-9.2765,-9.2608,-9.2605,-9.2546,-9.2535,-9.2688,-9.327,-9.3384,-9.3615,-9.4512,-9.4903,-9.4981,-9.4669,-9.463,-9.4434,-9.3849,-9.4005,-9.4317,-9.4591,-9.541,-9.5879,-9.5567,-9.5567,-9.5254,-9.4356,-9.3732,-9.3146,-9.2561,-9.2482,-9.2482,-9.2482,-9.2756,-9.2912,-9.2912,-9.3739,-9.4324,-9.4637,-9.5787,-9.6537,-9.681,-9.7407,-9.7687,-9.7691,-9.7689,-9.7692,-4.0814,-4.1415,-4.3285,0.0,0.0,0.0,-6.1978,-6.3052,-6.4638,-7.2336,-7.2529,-7.1601,-7.2452,-7.2645,0.0,-7.6011,-7.8525,-8.0807,-8.2548,-8.3554,-8.4405,-8.5217,-8.6068,-8.661,-8.661,-8.661,-8.661,-8.661,-8.661,-8.661,-8.661,-8.661,-8.661,-8.661,-8.661,-8.661,-8.661,-8.661,-8.7035,-8.7886,-8.7925,-8.8776,-9.0439,-9.129,-9.1677,-9.1716,-9.1716,-9.1716,-9.1716,-9.1716,-9.176,-9.1905,-9.1905,-9.262,-9.3771,-9.4594,-9.5567,-9.6601,-9.7422,-9.7695,-9.7422,-9.5742,-9.5195,-9.4883,-9.3125,-9.2617,-9.2617,-9.2615,-9.2613,-9.2613,-9.2606,-9.2595,-9.2585,-9.2585,-9.2535,-9.2756,-9.3615,-9.4473,-9.5371,-9.623,-9.6386,-9.6425,-9.6425,-9.5684,-9.541,-9.6269,-9.5684,-9.541,-9.6269,-9.4864,-9.3458,-9.26,-9.2482,-9.2482,-9.2482,-9.2482,-9.2482,-9.2522,-9.3341,-9.381,-9.381,-9.4646,-9.5514,-9.6373,-9.6424,-9.6821,-9.768,-9.7688,-9.7691,-9.7691,-9.7695,-9.7695,-4.079,-4.3602,0.0,-4.9854,0.0,0.0,0.0,-6.5799,0.0,0.0,-7.4773,-7.4038,-7.4309,-7.485,0.0,-7.7094,-7.895,-8.0807,-8.2548,-8.3012,-8.3708,-8.514,-8.5526,-8.5952,-8.6532,-8.661,-8.661,-8.661,-8.661,-8.661,-8.661,-8.661,-8.661,-8.661,-8.661,-8.661,-8.661,-8.661,-8.6726,-8.6996,-8.7615,-8.8776,-9.04,-9.0671,-9.1135,-9.1716,-9.1716,-9.1716,-9.1716,-9.1716,-9.1732,-9.176,-9.176,-9.2405,-9.3445,-9.442,-9.5421,-9.6424,-9.7381,-9.7695,-9.7422,-9.5742,-9.5625,-9.5664,-9.332,-9.3047,-9.3398,-9.2773,-9.2617,-9.2616,-9.2616,-9.2613,-9.2605,-9.259,-9.2583,-9.2616,-9.2837,-9.4044,-9.5176,-9.5449,-9.6464,-9.7323,-9.7323,-9.7089,-9.6816,-9.6464,-9.6191,-9.5645,-9.4708,-9.3576,-9.2795,-9.2522,-9.2482,-9.2482,-9.2482,-9.2482,-9.2756,-9.338,-9.4239,-9.4441,-9.3829,-9.5238,-9.6144,-9.6387,-9.6982,-9.7454,-9.7688,-9.7694,-9.7695,-9.7695,-9.7695,-9.7695,-4.248,-4.58,0.0,-5.3111,-5.783,-6.282,-6.7462,0.0,0.0,0.0,0.0,-7.5314,-7.6011,-7.6552,0.0,-7.8486,-7.984,-8.1078,-8.2122,-8.2587,-8.3167,-8.4173,-8.4908,-8.5526,-8.6029,-8.6416,-8.661,-8.661,-8.661,-8.661,-8.661,-8.661,-8.661,-8.661,-8.661,-8.661,-8.661,-8.661,-8.661,-8.661,-8.7151,-8.8079,-8.9433,-9.0091,-9.0671,-9.1213,-9.1561,-9.1716,-9.1716,-9.1716,-9.1716,-9.1716,-9.1716,-9.2316,-9.3335,-9.4288,-9.525,-9.6271,-9.7281,-9.7607,-9.7415,-9.6132,-9.5859,-9.5625,-9.3711,-9.3242,-9.3281,-9.2734,-9.2617,-9.2617,-9.2617,-9.2617,-9.2614,-9.2605,-9.2593,-9.2583,-9.2535,-9.3622,-9.4591,-9.4591,-9.5723,-9.666,-9.666,-9.666,-9.6503,-9.5957,-9.5606,-9.4864,-9.3458,-9.2834,-9.2482,-9.2482,-9.2482,-9.2482,-9.2482,-9.2528,-9.2883,-9.3742,-9.4607,-9.5009,-9.4827,-9.619,-9.6934,-9.6904,-9.7418,-9.7694,-9.7694,-9.7695,-9.7695,-9.7695,-9.7695,-9.7695,-4.4878,0.0,0.0,0.0,-6.0886,0.0,-7.2142,-7.3844,-7.4386,-7.6049,0.0,-7.574,-7.7403,-7.7751,-7.8332,-7.9956,-8.0923,-8.1491,-8.1491,-8.2161,-8.2703,-8.278,-8.4134,-8.514,-8.5294,-8.6029,-8.6532,-8.661,-8.661,-8.661,-8.661,-8.661,-8.661,-8.661,-8.661,-8.661,-8.661,-8.661,-8.661,-8.661,-8.661,-8.6996,-8.7847,-8.9433,-9.0246,-9.0439,-9.1329,-9.1716,-9.1716,-9.1716,-9.1716,-9.1716,-9.1716,-9.2264,-9.3165,-9.4052,-9.5,-9.6015,-9.7017,-9.744,-9.7376,-9.6638,-9.5898,-9.5117,-9.4101,-9.3281,-9.2695,-9.2617,-9.2617,-9.2617,-9.2617,-9.2617,-9.2617,-9.2615,-9.2605,-9.259,-9.2588,-9.3241,-9.3813,-9.3813,-9.4516,-9.5102,-9.5098,-9.5102,-9.5063,-9.4981,-9.4239,-9.3419,-9.26,-9.2525,-9.2525,-9.2525,-9.2525,-9.2528,-9.2528,-9.2658,-9.3056,-9.3876,-9.4745,-9.5614,-9.648,-9.7295,-9.7685,-9.7691,-9.7695,-9.7695,-9.7695,-9.7695,-9.7695,-9.7695,-9.7695,-9.7695,0.0,-4.8198,0.0,0.0,0.0,0.0,-7.2065,-7.3419,-7.4386,-7.6049,-7.6243,-7.6436,-7.7481,-7.8254,-7.9067,-8.0034,-8.0923,-8.1491,-8.1491,-8.1658,-8.2045,-8.2703,-8.3128,-8.3863,-8.5178,-8.5488,-8.5875,-8.6571,-8.661,-8.661,-8.661,-8.661,-8.661,-8.661,-8.661,-8.661,-8.661,-8.661,-8.661,-8.661,-8.661,-8.6687,-8.6919,-8.7963,-8.9163,-9.0439,-9.1329,-9.1716,-9.1716,-9.1716,-9.1716,-9.1716,-9.1716,-9.1835,-9.2148,-9.3143,-9.4055,-9.4961,-9.61,-9.6937,-9.7298,-9.5934,-9.582,-9.5781,-9.3554,-9.3242,-9.3476,-9.2773,-9.2617,-9.2617,-9.2617,-9.2617,-9.2617,-9.2617,-9.2614,-9.2609,-9.2601,-9.3261,-9.3842,-9.3793,-9.4501,-9.509,-9.5105,-9.5112,-9.488,-9.4165,-9.3341,-9.2717,-9.2522,-9.2535,-9.2583,-9.2583,-9.259,-9.2597,-9.2597,-9.3224,-9.3966,-9.4786,-9.5647,-9.6512,-9.7379,-9.7612,-9.7692,-9.7695,-9.7695,-9.7695,-9.7695,-9.7695,-9.7695,-9.7695,-9.7695,-9.7695,0.0,0.0,0.0,0.0,0.0,0.0,0.0,0.0,-7.3767,-7.543,-7.6127,-7.6668,-7.7519,-7.8061,-7.8796,-7.9995,-8.0575,-8.1039,-8.1465,-8.1491,-8.1658,-8.2122,-8.2548,-8.3128,-8.4018,-8.483,-8.5488,-8.5952,-8.6377,-8.661,-8.661,-8.661,-8.661,-8.661,-8.661,-8.661,-8.661,-8.661,-8.661,-8.661,-8.661,-8.661,-8.6648,-8.7499,-8.8814,-9.0439,-9.0865,-9.1329,-9.1716,-9.1716,-9.1716,-9.1716,-9.1716,-9.218,-9.2904,-9.3052,-9.4149,-9.5646,-9.5906,-9.6575,-9.7071,-9.6016,-9.5688,-9.5418,-9.3749,-9.3242,-9.3164,-9.2734,-9.2617,-9.2617,-9.2617,-9.2617,-9.2617,-9.2617,-9.2616,-9.2613,-9.261,-9.2958,-9.3265,-9.322,-9.3575,-9.3888,-9.3916,-9.3918,-9.3764,-9.3288,-9.2859,-9.2546,-9.2546,-9.259,-9.2595,-9.2595,-9.2601,-9.2759,-9.3189,-9.3623,-9.4406,-9.5656,-9.6166,-9.6833,-9.7655,-9.7694,-9.7695,-9.7695,-9.7695,-9.7695,-9.7695,-9.7695,-9.7695,-9.7695,-9.7695,-9.7695,0.0,0.0,0.0,0.0,0.0,0.0,0.0,0.0,0.0,-7.4386,-7.5469,-7.6436,-7.7287,-7.7597,-7.8138,-7.9531,-7.9995,-8.0459,-8.1194,-8.1414,-8.1491,-8.1491,-8.2122,-8.2625,-8.278,-8.4057,-8.4985,-8.5294,-8.5991,-8.6455,-8.661,-8.661,-8.661,-8.661,-8.661,-8.661,-8.661,-8.661,-8.661,-8.661,-8.661,-8.661,-8.661,-8.7345,-8.8505,-8.9975,-9.0284,-9.0826,-9.1484,-9.1638,-9.1716,-9.1716,-9.1716,-9.2644,-9.3882,-9.307,-9.4385,-9.6479,-9.5798,-9.6189,-9.6885,-9.6207,-9.5485,-9.4757,-9.3903,-9.3164,-9.2617,-9.2617,-9.2617,-9.2617,-9.2617,-9.2617,-9.2617,-9.2617,-9.2616,-9.2614,-9.2614,-9.2611,-9.2608,-9.2606,-9.2605,-9.2603,-9.2605,-9.2605,-9.2603,-9.2603,-9.2603,-9.2603,-9.2603,-9.2605,-9.2606,-9.2606,-9.2723,-9.3115,-9.3858,-9.4175,-9.4959,-9.6326,-9.6601,-9.6992,-9.7656,-9.7695,-9.7695,-9.7695,-9.7695,-9.7695,-9.7695,-9.7695,-9.7695,-9.7695,-9.7695,-9.7695,0.0,0.0,0.0,0.0,0.0,0.0,0.0,0.0,0.0,0.0,-7.4193,-7.5546,-7.6397,-7.7171,-7.7751,-7.7983,-7.926,-8.0227,-8.0382,-8.1039,-8.1491,-8.1491,-8.162,-8.1968,-8.2741,-8.3012,-8.3747,-8.5178,-8.541,-8.5797,-8.6571,-8.661,-8.661,-8.661,-8.661,-8.661,-8.661,-8.661,-8.661,-8.661,-8.661,-8.661,-8.661,-8.6726,-8.7306,-8.8312,-8.9782,-9.0478,-9.0633,-9.1406,-9.1716,-9.1716,-9.1716,-9.2296,-9.307,-9.218,-9.3495,-9.5589,-9.4905,-9.5695,-9.6807,-9.5499,-9.4977,-9.464,-9.32,-9.2695,-9.2617,-9.2617,-9.2617,-9.2617,-9.2617,-9.2617,-9.2617,-9.2617,-9.2617,-9.2617,-9.2617,-9.2617,-9.2616,-9.2613,-9.2608,-9.2606,-9.2611,-9.2608,-9.2603,-9.2603,-9.2603,-9.2603,-9.2603,-9.2609,-9.2613,-9.2613,-9.328,-9.3789,-9.3906,-9.5273,-9.625,-9.6484,-9.7148,-9.7578,-9.7695,-9.7695,-9.7695,-9.7695,-9.7695,-9.7695,-9.7695,-9.7695,-9.7695,-9.7695,-9.7695,-9.7695,0.0,0.0,0.0,0.0,0.0,0.0,0.0,0.0,0.0,0.0,-7.277,-7.4069,-7.5419,-7.6359,-7.7132,-7.7635,-7.8332,-7.8989,-7.9453,-8.0266,-8.0769,-8.0769,-8.1194,-8.1658,-8.2045,-8.2509,-8.3089,-8.3824,-8.4753,-8.5488,-8.5836,-8.6339,-8.661,-8.661,-8.661,-8.661,-8.661,-8.661,-8.661,-8.661,-8.661,-8.661,-8.661,-8.661,-8.7074,-8.7963,-8.9201,-8.9975,-9.0478,-9.1329,-9.1716,-9.1716,-9.1716,-9.2218,-9.2876,-9.2025,-9.2992,-9.4646,-9.3917,-9.4434,-9.5285,-9.4371,-9.4073,-9.3876,-9.2885,-9.2617,-9.2617,-9.2617,-9.2617,-9.2617,-9.2617,-9.2617,-9.2617,-9.2617,-9.2617,-9.2617,-9.2617,-9.2617,-9.2617,-9.2616,-9.2616,-9.2615,-9.2616,-9.2616,-9.2614,-9.2614,-9.2614,-9.2614,-9.2614,-9.2616,-9.2616,-9.2616,-9.3398,-9.4101,-9.4609,-9.5781,-9.6679,-9.7148,-9.75,-9.7695,-9.7695,-9.7695,-9.7695,-9.7695,-9.7695,-9.7695,-9.7695,-9.7695,-9.7695,-9.7695,-9.7695,-9.7695,0.0,0.0,0.0,0.0,0.0,0.0,0.0,0.0,0.0,0.0,-7.1502,-7.2631,-7.4135,-7.5318,-7.6335,-7.7186,-7.7546,-7.7945,-7.8564,-7.9376,-7.9956,-8.0188,-8.0769,-8.1271,-8.1491,-8.2084,-8.2548,-8.278,-8.394,-8.4753,-8.4985,-8.5797,-8.6261,-8.6261,-8.6494,-8.661,-8.661,-8.661,-8.661,-8.661,-8.661,-8.661,-8.661,-8.661,-8.6958,-8.7615,-8.8505,-8.9356,-9.0168,-9.1019,-9.1484,-9.1716,-9.1716,-9.2218,-9.2876,-9.2025,-9.276,-9.4075,-9.3263,-9.3534,-9.4121,-9.3542,-9.3367,-9.3289,-9.2712,-9.2577,-9.2617,-9.2617,-9.2617,-9.2617,-9.2617,-9.2617,-9.2617,-9.2617,-9.2617,-9.2617,-9.2617,-9.2617,-9.2617,-9.2617,-9.2617,-9.2617,-9.2617,-9.2617,-9.2617,-9.2617,-9.2617,-9.2617,-9.2617,-9.2617,-9.2695,-9.289,-9.3711,-9.457,-9.5469,-9.6328,-9.707,-9.7656,-9.7695,-9.7695,-9.7695,-9.7695,-9.7695,-9.7695,-9.7695,-9.7695,-9.7695,-9.7695,-9.7695,-9.7695,-9.7695,-9.7578,0.0,0.0,0.0,0.0,0.0,0.0,0.0,0.0,0.0,0.0,0.0,-7.1465,-7.2365,-7.3908,-7.5347,-7.6236,-7.7135,-7.7713,-7.7751,-7.8525,-7.9337,-8.0111,-8.0227,-8.0614,-8.1414,-8.1542,-8.1929,-8.2741,-8.2857,-8.3283,-8.4134,-8.4946,-8.5372,-8.5372,-8.6184,-8.661,-8.661,-8.661,-8.661,-8.661,-8.661,-8.661,-8.661,-8.661,-8.661,-8.6726,-8.7577,-8.8466,-8.9317,-9.013,-9.0942,-9.1716,-9.1716,-9.2218,-9.2876,-9.2025,-9.276,-9.4075,-9.3263,-9.3534,-9.4093,-9.3442,-9.3306,-9.3276,-9.262,-9.2486,-9.2617,-9.2617,-9.2617,-9.2617,-9.2617,-9.2617,-9.2617,-9.2617,-9.2617,-9.2617,-9.2617,-9.2617,-9.2617,-9.2617,-9.2617,-9.2617,-9.2617,-9.2617,-9.2617,-9.2617,-9.2617,-9.2617,-9.2617,-9.2617,-9.2929,-9.375,-9.4609,-9.5508,-9.6367,-9.7187,-9.7656,-9.7695,-9.7695,-9.7695,-9.7695,-9.7695,-9.7695,-9.7695,-9.7695,-9.7695,-9.7695,-9.7695,-9.7695,-9.7695,-9.7695,-9.7304,0.0,0.0,0.0,0.0,0.0,0.0,0.0,0.0,0.0,0.0,0.0,-7.0491,-7.13,-7.2932,-7.4436,-7.5335,-7.5746,-7.6195,-7.6784,-7.7635,-7.8254,-7.8564,-7.9569,-8.0343,-8.0653,-8.1194,-8.162,-8.1929,-8.2471,-8.2935,-8.3244,-8.4057,-8.4753,-8.5294,-8.5604,-8.6029,-8.661,-8.661,-8.661,-8.661,-8.661,-8.661,-8.661,-8.661,-8.661,-8.661,-8.6919,-8.7577,-8.8466,-8.9859,-9.0594,-9.0903,-9.1484,-9.1909,-9.2141,-9.1832,-9.2064,-9.2567,-9.2257,-9.2335,-9.257,-9.2421,-9.2441,-9.2536,-9.242,-9.2484,-9.2617,-9.2617,-9.2617,-9.2617,-9.2617,-9.2617,-9.2617,-9.2617,-9.2617,-9.2617,-9.2617,-9.2617,-9.2617,-9.2617,-9.2617,-9.2617,-9.2617,-9.2617,-9.2617,-9.2617,-9.2617,-9.2617,-9.2617,-9.2617,-9.2929,-9.3828,-9.4687,-9.5547,-9.6445,-9.7226,-9.7695,-9.7695,-9.7695,-9.7695,-9.7695,-9.7695,-9.7695,-9.7695,-9.7695,-9.7695,-9.7695,-9.7695,-9.7695,-9.7695,-9.7695,-9.7539,-3.1944,0.0,0.0,0.0,0.0,0.0,0.0,0.0,0.0,0.0,0.0,0.0,-6.9873,-7.1325,-7.2842,-7.4295,-7.4783,-7.5168,-7.5859,-7.6683,-7.7341,-7.7674,-7.868,-7.9492,-7.9763,-8.0575,-8.1078,-8.1078,-8.189,0.0,-8.2355,-8.3206,-8.4173,-8.5256,-8.5024,-8.5294,-8.6145,-8.6145,-8.6145,-8.6184,-8.6455,-8.661,-8.661,-8.661,-8.661,-8.661,-8.661,-8.7112,-8.8002,-8.9433,-9.0168,-9.0478,-9.1367,-9.1716,-9.1716,-9.1716,-9.1716,-9.1716,-9.1716,-9.1716,-9.1705,-9.181,-9.1967,-9.21,-9.2261,-9.2432,-9.2617,-9.2617,-9.2617,-9.2617,-9.2617,-9.2617,-9.2617,-9.2617,-9.2617,-9.2617,-9.2617,-9.2617,-9.2617,-9.2617,-9.2617,-9.2617,-9.2617,-9.2617,-9.2617,-9.2617,-9.2617,-9.2617,-9.2617,-9.2851,-9.3359,-9.4258,-9.5117,-9.5976,-9.6836,-9.7383,-9.7695,-9.7695,-9.7695,-9.7695,-9.7695,-9.7695,-9.7695,-9.7695,-9.7695,-9.7695,-9.7695,-9.7695,-9.7695,-9.7695,-9.7695,-9.7383,0.0,0.0,0.0,0.0,0.0,0.0,0.0,0.0,0.0,0.0,0.0,0.0,-6.7975,-6.9013,-7.0464,-7.2995,-7.4192,-7.4874,-7.4936,-7.5721,-7.6596,-7.7507,-7.7674,-7.8022,-7.8873,-7.9685,-8.0176,-8.0176,-8.0988,-8.1452,-8.1491,-8.2316,-8.3554,-8.5178,-8.4521,-8.4521,-8.5294,-8.5333,-8.5333,-8.5333,-8.6184,-8.661,-8.661,-8.661,-8.661,-8.661,-8.661,-8.7074,-8.7925,-8.8814,-8.9665,-9.0439,-9.1367,-9.1716,-9.1716,-9.1716,-9.1716,-9.1716,-9.1716,-9.1716,-9.1716,-9.1716,-9.1883,-9.208,-9.208,-9.2319,-9.2617,-9.2617,-9.2617,-9.2617,-9.2617,-9.2617,-9.2617,-9.2617,-9.2617,-9.2617,-9.2617,-9.2617,-9.2617,-9.2617,-9.2617,-9.2617,-9.2617,-9.2617,-9.2617,-9.2617,-9.2617,-9.2617,-9.2617,-9.3359,-9.4219,-9.5117,-9.5976,-9.6797,-9.7617,-9.7695,-9.7695,-9.7695,-9.7695,-9.7695,-9.7695,-9.7695,-9.7695,-9.7695,-9.7695,-9.7695,-9.7656,-9.7656,-9.7656,-9.7656,-9.7656,-9.6797,-3.0544,0.0,0.0,0.0,0.0,0.0,0.0,0.0,0.0,0.0,0.0,0.0,0.0,-6.6821,-6.8065,-6.877,-7.1223,-7.3266,-7.3947,-7.4771,-7.5388,-7.5645,-7.6842,-7.7704,-7.7885,-7.8735,-7.9469,0.0,-8.0266,-8.0717,-8.1388,-8.229,-8.3012,-8.3476,-8.4443,-8.5062,-8.5294,-8.5952,-8.6261,-8.6261,-8.6494,-8.661,-8.661,-8.661,-8.661,-8.661,-8.661,-8.6726,-8.7074,-8.8582,-8.9317,-8.9665,-9.1135,-9.1716,-9.1716,-9.1716,-9.1716,-9.1716,-9.1716,-9.1716,-9.1716,-9.1716,-9.1883,-9.208,-9.208,-9.2319,-9.2617,-9.2617,-9.2617,-9.2617,-9.2617,-9.2617,-9.2617,-9.2617,-9.2617,-9.2617,-9.2617,-9.2617,-9.2617,-9.2617,-9.2617,-9.2617,-9.2617,-9.2617,-9.2617,-9.2617,-9.2617,-9.2617,-9.2617,-9.2812,-9.3554,-9.5039,-9.5429,-9.6133,-9.7578,-9.7695,-9.7695,-9.7695,-9.7695,-9.7695,-9.7695,-9.7695,-9.7695,-9.7695,-9.7695,-9.7422,-9.6836,-9.6836,-9.6836,-9.6836,-9.6836,-9.625,0.0,0.0,0.0,0.0,0.0,0.0,0.0,-4.5509,0.0,0.0,0.0,0.0,0.0,0.0,0.0,-6.6013,-6.836,-7.0684,-7.2341,-7.3613,-7.4359,-7.4398,-7.562,-7.6443,-7.6404,-7.755,-7.849,-7.8899,-7.9594,-8.0418,-8.1308,-8.1903,-8.2341,-8.2702,-8.3347,-8.4017,-8.4713,-8.5281,-8.572,-8.6068,-8.6416,-8.661,-8.661,-8.661,-8.661,-8.661,-8.661,-8.661,-8.6726,-8.8079,-8.8853,-8.9356,-9.1058,-9.1716,-9.1716,-9.1716,-9.1716,-9.1716,-9.1716,-9.1716,-9.1716,-9.1716,-9.1855,-9.2026,-9.2065,-9.2295,-9.2532,-9.2578,-9.2617,-9.2617,-9.2617,-9.2617,-9.2617,-9.2617,-9.2617,-9.2617,-9.2617,-9.2617,-9.2617,-9.2617,-9.2617,-9.2617,-9.2617,-9.2617,-9.2617,-9.2617,-9.2617,-9.2617,-9.2617,-9.2929,-9.3672,-9.5039,-9.5547,-9.6289,-9.7578,-9.7695,-9.7695,-9.7695,-9.7695,-9.7695,-9.7695,-9.7695,-9.7695,-9.7695,-9.7383,-9.6797,-9.5976,-9.6328,-9.6484,-9.6523,-9.6836,-9.6562,0.0,0.0,0.0,0.0,0.0,0.0,-4.5547,-4.5432,-4.5817,0.0,0.0,0.0,0.0,0.0,0.0,0.0,-6.5089,-6.7539,-7.0452,-7.2276,-7.3368,-7.3511,-7.4269,-7.4771,-7.4758,-7.6224,-7.724,-7.7342,-7.8885,-8.0236,-8.1084,-8.1161,-8.1561,-8.2449,-8.1862,-8.2289,-8.3873,-8.4108,-8.4637,-8.5449,-8.6223,-8.661,-8.661,-8.661,-8.661,-8.661,-8.661,-8.661,-8.6687,-8.7538,-8.8428,-8.9356,-9.0942,-9.16,-9.1716,-9.1716,-9.1716,-9.1716,-9.1716,-9.1716,-9.1716,-9.1716,-9.1785,-9.1918,-9.2074,-9.2251,-9.2421,-9.2576,-9.2617,-9.2617,-9.2734,-9.2656,-9.2656,-9.2851,-9.2812,-9.2773,-9.2851,-9.289,-9.289,-9.289,-9.2734,-9.2617,-9.2617,-9.2617,-9.2617,-9.2617,-9.2617,-9.2617,-9.2617,-9.3281,-9.4101,-9.4961,-9.5859,-9.6679,-9.75,-9.7656,-9.7695,-9.7695,-9.7695,-9.7695,-9.7695,-9.7695,-9.7695,-9.7695,-9.6914,-9.6133,-9.5351,-9.6015,-9.6367,-9.6367,-9.7109,-9.6992,0.0,0.0,0.0,0.0,-4.2324,0.0,-4.0585,-4.1162,-4.3047,0.0,0.0,0.0,0.0,0.0,0.0,0.0,0.0,-6.4679,-6.9309,-7.081,-7.1695,-7.2415,-7.3303,-7.3817,-7.3787,-7.4728,-7.5589,-7.6226,-7.7887,-7.924,-8.0112,-8.0207,-8.0635,-8.1523,-8.2132,-8.2907,-8.3873,-8.4675,-8.5488,-8.6339,-8.6532,-8.661,-8.661,-8.661,-8.661,-8.661,-8.661,-8.661,-8.6687,-8.7538,-8.8428,-8.9279,-9.0284,-9.1097,-9.1716,-9.1716,-9.1716,-9.1716,-9.1716,-9.1716,-9.1716,-9.1716,-9.1785,-9.1918,-9.2074,-9.2251,-9.2421,-9.2576,-9.2617,-9.2773,-9.3476,-9.3125,-9.2969,-9.4375,-9.414,-9.3828,-9.4531,-9.4687,-9.4687,-9.4687,-9.3554,-9.2617,-9.2617,-9.2617,-9.2617,-9.2617,-9.2617,-9.2617,-9.2617,-9.2734,-9.3203,-9.4062,-9.4922,-9.5781,-9.664,-9.7344,-9.7695,-9.7695,-9.7695,-9.7695,-9.7695,-9.7695,-9.7695,-9.7695,-9.6914,-9.6406,-9.625,-9.5703,-9.5469,-9.5469,-9.5625,-9.5234,0.0,0.0,0.0,-4.4598,-4.4624,0.0,0.0,-4.2124,-4.2777,0.0,0.0,0.0,0.0,0.0,0.0,0.0,0.0,-6.1089,-6.3666,-6.7282,-6.9821,-7.0244,-7.1079,-7.1786,-7.2168,-7.2979,-7.4211,-7.5861,-7.6828,-7.8036,-7.9768,-7.9875,-8.029,-8.1176,-8.1673,-8.2554,-8.3832,-8.4364,-8.5255,-8.661,-8.661,-8.661,-8.661,-8.661,-8.661,-8.661,-8.661,-8.661,-8.6648,-8.7074,-8.777,-8.866,-8.9936,-9.0942,-9.1716,-9.1716,-9.1716,-9.1716,-9.1716,-9.1716,-9.1716,-9.1716,-9.1734,-9.1843,-9.2051,-9.229,-9.2528,-9.2577,-9.2617,-9.2812,-9.3672,-9.3594,-9.3594,-9.4883,-9.4883,-9.4687,-9.5117,-9.5195,-9.5195,-9.5195,-9.4492,-9.375,-9.332,-9.3242,-9.3086,-9.2656,-9.2617,-9.2617,-9.2617,-9.2617,-9.2929,-9.3828,-9.4297,-9.5078,-9.6406,-9.6875,-9.7265,-9.7656,-9.7695,-9.7695,-9.7695,-9.7695,-9.75,-9.7109,-9.7109,-9.6914,-9.6484,-9.6054,-9.5859,-9.5859,-9.625,-9.6211,0.0,0.0,0.0,-4.8018,-4.7021,-4.609,0.0,0.0,0.0,0.0,0.0,0.0,0.0,0.0,0.0,0.0,0.0,0.0,0.0,-6.2012,0.0,-6.6628,-6.8052,-6.9167,-6.9629,-7.0321,-7.2014,-7.5053,-7.4822,-7.5861,-7.89,-7.9361,-7.9939,-8.0823,-8.1092,-8.1952,-8.3543,-8.3807,-8.4725,-8.6339,-8.6532,-8.661,-8.661,-8.661,-8.661,-8.661,-8.661,-8.661,-8.661,-8.661,-8.7112,-8.8041,-8.9588,-9.0671,-9.1484,-9.1638,-9.1716,-9.1716,-9.1716,-9.1716,-9.1716,-9.1716,-9.1721,-9.1808,-9.2043,-9.2319,-9.2656,-9.2812,-9.2851,-9.3086,-9.414,-9.4297,-9.4414,-9.5429,-9.5547,-9.5508,-9.5664,-9.5664,-9.5664,-9.5664,-9.5664,-9.5351,-9.4336,-9.414,-9.3867,-9.2969,-9.2851,-9.2773,-9.2617,-9.2617,-9.2851,-9.3554,-9.3789,-9.4453,-9.5898,-9.6328,-9.6797,-9.7422,-9.7617,-9.7695,-9.7695,-9.7695,-9.7383,-9.6758,-9.7383,-9.7383,-9.6719,-9.6719,-9.664,-9.6523,-9.7187,-9.7304,0.0,0.0,0.0,-4.8426,-5.0114,-5.0932,-4.3693,0.0,-4.5615,-4.3154,0.0,0.0,0.0,0.0,0.0,0.0,0.0,0.0,-5.051,-5.428,-5.7973,-6.0242,-6.3974,-6.6051,-6.5397,-6.5397,-6.7475,-7.2283,-7.0552,-7.136,-7.6169,-7.7823,-7.9054,-7.9939,-8.0746,-8.1682,-8.2719,-8.3498,-8.4416,-8.5449,-8.6223,-8.661,-8.661,-8.661,-8.661,-8.661,-8.661,-8.661,-8.661,-8.661,-8.7112,-8.8002,-8.8969,-8.982,-9.0633,-9.1406,-9.1716,-9.1716,-9.1716,-9.1716,-9.1716,-9.1716,-9.185,-9.2074,-9.2073,-9.2319,-9.2773,-9.3515,-9.375,-9.414,-9.5781,-9.5625,-9.5469,-9.7031,-9.6875,-9.6562,-9.7265,-9.7422,-9.7422,-9.7422,-9.7422,-9.6914,-9.5312,-9.5039,-9.4765,-9.3867,-9.375,-9.3476,-9.2695,-9.2617,-9.2656,-9.2734,-9.3437,-9.3984,-9.4179,-9.5625,-9.6523,-9.664,-9.7304,-9.7695,-9.7695,-9.7695,-9.7656,-9.7578,-9.7656,-9.7656,-9.7578,-9.7578,-9.7187,-9.6484,-9.6601,-9.582,0.0,0.0,0.0,0.0,-5.1354,-5.142,-4.6417,-4.5331,-4.5393,0.0,0.0,0.0,0.0,0.0,0.0,0.0,-4.6432,0.0,0.0,0.0,-5.3164,0.0,0.0,0.0,-6.1435,-6.2551,-6.482,-6.8936,-6.7821,-6.9167,-7.4284,-7.613,-7.79,-7.9746,-8.0161,-8.1069,-8.2453,-8.3389,-8.4323,-8.5241,-8.6157,-8.661,-8.661,-8.661,-8.661,-8.661,-8.661,-8.661,-8.661,-8.661,-8.6842,-8.7267,-8.866,-8.9704,-9.0516,-9.1367,-9.1716,-9.1716,-9.1716,-9.1716,-9.1716,-9.1716,-9.182,-9.1965,-9.1965,-9.2228,-9.2677,-9.3536,-9.3823,-9.4297,-9.6054,-9.6211,-9.625,-9.7422,-9.7422,-9.7304,-9.7617,-9.7695,-9.7695,-9.7695,-9.7695,-9.7461,-9.6758,-9.625,-9.5508,-9.4101,-9.3906,-9.3594,-9.2695,-9.2617,-9.2617,-9.2617,-9.2929,-9.3359,-9.3867,-9.5039,-9.5976,-9.6484,-9.7265,-9.7695,-9.7695,-9.7695,-9.7695,-9.7695,-9.7695,-9.7695,-9.7695,-9.7695,-9.7539,-9.7187,-9.7187,-9.6562,-5.1676,0.0,0.0,0.0,-5.1658,-5.1029,-4.79,-4.635,-4.5984,-4.7452,0.0,0.0,0.0,0.0,0.0,0.0,0.0,-4.6009,0.0,0.0,0.0,0.0,0.0,0.0,0.0,-5.8627,-6.0754,-6.5051,-6.4166,-6.609,-7.2129,-7.4284,-7.6476,-7.9015,-7.9554,-8.0508,-8.2062,-8.2998,-8.3919,-8.4839,-8.5796,-8.6377,-8.661,-8.661,-8.661,-8.661,-8.661,-8.661,-8.661,-8.661,-8.661,-8.6764,-8.8273,-8.9356,-9.0207,-9.129,-9.1716,-9.1716,-9.1716,-9.1716,-9.1716,-9.1716,-9.1785,-9.1926,-9.1948,-9.2178,-9.2645,-9.3796,-9.4171,-9.4648,-9.6367,-9.6836,-9.6992,-9.7578,-9.7695,-9.7695,-9.7695,-9.7695,-9.7695,-9.7695,-9.7695,-9.7695,-9.7695,-9.7226,-9.6328,-9.4844,-9.4609,-9.4219,-9.3086,-9.2969,-9.2851,-9.2617,-9.2617,-9.2851,-9.3476,-9.457,-9.5664,-9.6758,-9.7383,-9.7695,-9.7695,-9.7695,-9.7695,-9.7695,-9.7695,-9.7695,-9.7695,-9.7695,-9.7695,-9.7695,-9.7695,-9.7265,0.0,0.0,-5.7198,-5.1545,-5.0987,-5.0566,-4.5963,-4.6938,-4.8499,-4.7194,-4.8817,0.0,0.0,0.0,0.0,0.0,0.0,0.0,0.0,0.0,0.0,0.0,0.0,0.0,0.0,-5.2472,-5.3828,0.0,-5.8676,-6.0935,-6.936,-7.2206,-7.4745,-7.7284,-7.8938,-8.0238,-8.1214,-8.2174,-8.307,-8.395,-8.4868,-8.5797,-8.661,-8.661,-8.661,-8.661,-8.661,-8.661,-8.661,-8.661,-8.661,-8.6687,-8.7577,-8.8466,-8.9433,-9.1097,-9.1716,-9.1716,-9.1716,-9.1716,-9.1716,-9.1716,-9.1785,-9.1918,-9.2067,-9.2251,-9.2772,-9.4645,-9.5156,-9.5547,-9.7226,-9.7656,-9.7656,-9.7695,-9.7695,-9.7695,-9.7695,-9.7695,-9.7695,-9.7695,-9.7695,-9.7695,-9.7695,-9.7695,-9.7383,-9.6523,-9.6406,-9.5781,-9.4062,-9.3867,-9.3554,-9.2695,-9.2617,-9.2617,-9.2656,-9.4219,-9.5898,-9.7578,-9.7695,-9.7695,-9.7695,-9.7695,-9.7695,-9.7695,-9.7695,-9.7695,-9.7695,-9.7695,-9.7695,-9.7695,-9.7695,-9.7265,-5.7296,-5.8771,-5.9231,-5.487,-5.4078,-5.3084,-4.8126,-4.8171,-4.8817,-4.7222,-4.8933,-5.025,0.0,0.0,0.0,0.0,0.0,0.0,0.0,0.0,0.0,0.0,0.0,0.0,0.0,0.0,0.0,-5.7126,-5.8204,0.0,-6.6859,-7.0667,-7.3822,-7.6361,-7.8054,-7.9646,-8.1139,-8.2023,-8.2921,-8.3842,-8.4814,-8.5719,-8.661,-8.661,-8.661,-8.661,-8.661,-8.661,-8.661,-8.661,-8.661,-8.6687,-8.7577,-8.8428,-8.9317,-9.0439,-9.1213,-9.1716,-9.1716,-9.1716,-9.1716,-9.1716,-9.1746,-9.1799,-9.1808,-9.2022,-9.2435,-9.3686,-9.4584,-9.5469,-9.6601,-9.7304,-9.7695,-9.7695,-9.7695,-9.7695,-9.7695,-9.7695,-9.7695,-9.7695,-9.7695,-9.7695,-9.7695,-9.7695,-9.7422,-9.6601,-9.6484,-9.5859,-9.4101,-9.3906,-9.3554,-9.2695,-9.2617,-9.2617,-9.2617,-9.4219,-9.5703,-9.6836,-9.7422,-9.7695,-9.7695,-9.7695,-9.7695,-9.7695,-9.7695,-9.7695,-9.7695,-9.7695,-9.7695,-9.7695,-9.7695,-9.7265,-5.929,-6.0559,-6.0897,-5.742,-5.6639,-5.5526,-5.0849,-5.0909,-5.1506,-4.9913,-5.0894,-5.1972,0.0,0.0,0.0,0.0,0.0,0.0,0.0,-4.1016,0.0,0.0,0.0,0.0,0.0,0.0,-5.0,-5.4049,-5.5588,0.0,0.0,-6.8552,-7.2168,-7.5014,-7.7323,-7.9169,-8.0631,-8.1516,-8.2607,-8.3813,-8.4425,-8.5382,-8.661,-8.661,-8.661,-8.661,-8.661,-8.661,-8.661,-8.661,-8.661,-8.6648,-8.7228,-8.8157,-8.9279,-9.0091,-9.0942,-9.1716,-9.1716,-9.1716,-9.1716,-9.1716,-9.1716,-9.1719,-9.1796,-9.1976,-9.2302,-9.3286,-9.435,-9.539,-9.6289,-9.7109,-9.7695,-9.7695,-9.7695,-9.7695,-9.7695,-9.7695,-9.7617,-9.7344,-9.7265,-9.7265,-9.7265,-9.7265,-9.7187,-9.6953,-9.6914,-9.6406,-9.5,-9.4804,-9.4492,-9.3633,-9.3515,-9.3515,-9.3515,-9.4258,-9.5234,-9.6445,-9.6992,-9.7383,-9.7695,-9.7695,-9.7695,-9.7695,-9.7695,-9.7695,-9.7695,-9.7695,-9.7695,-9.7695,-9.7695,-9.7422]},{"header":{"parameterUnit":"m.s-1","parameterCategory":1,"la1":30.6,"la2":29.2853,"lo1":-89.7004,"lo2":-87.6739,"dy":0.0162,"dx":0.0183,"nx":112,"ny":82,"refTime":"2025-07-15T00:00:00:Z","depth":0,"parameterNumber":3,"parameterNumberName":"V-component_of_WINDS"},"data":[0.0,0.0,0.0,0.0,0.0,0.0,0.0,0.0,0.0,0.0,0.0,0.0,0.0,0.0,0.0,0.0,0.0,0.0,0.0,0.0,0.0,0.0,0.0,0.0,0.0,0.0,0.0,0.0,0.0,0.0,0.0,0.0,0.0,0.0,0.0,0.0,0.0,0.0,0.0,0.0,0.0,0.0,0.0,0.0,0.0,0.0,0.0,0.0,0.0,0.0,0.0,0.0,0.0,0.0,0.0,0.0,0.0,0.0,0.0,0.0,0.0,0.0,0.0,0.0,0.0,0.0,0.0,0.0,0.0,0.0,0.0,0.0,0.0,0.0,0.0,0.0,0.0,0.0,0.0,0.0,0.0,0.0,0.0,0.0,0.0,0.0,0.0,0.0,0.0,0.0,1.857,1.9783,2.2682,2.4819,2.5622,2.5905,2.463,2.136,0.0,0.0,0.0,0.0,0.0,0.0,0.0,0.0,0.0,0.0,0.0,0.0,0.0,0.0,0.0,0.0,0.0,0.0,0.0,0.0,0.0,0.0,0.0,0.0,0.0,0.0,0.0,0.0,0.0,0.0,0.0,0.0,0.0,0.0,0.0,0.0,0.0,0.0,0.0,0.0,0.0,0.0,0.0,0.0,0.0,0.0,0.0,0.0,0.0,0.0,0.0,0.0,0.0,0.0,0.0,0.0,0.0,0.0,0.0,0.0,0.0,0.0,0.0,0.0,0.0,0.0,0.0,0.0,0.0,0.0,0.0,0.0,0.0,0.0,0.0,0.0,0.0,0.0,0.0,0.0,0.0,0.0,0.0,0.0,0.0,0.0,0.0,0.0,0.0,0.0,0.0,0.0,0.0,0.0,0.0,0.0,0.0,0.0,0.0,0.0,0.0,0.0,0.0,0.0,1.7895,1.9697,2.1011,2.1845,2.1972,2.2709,2.2128,1.9763,0.0,0.0,0.0,0.0,0.0,0.0,0.0,0.0,0.0,0.0,0.0,0.0,0.0,0.0,0.0,0.0,0.0,0.0,0.0,0.0,0.0,0.0,0.0,0.0,0.0,0.0,0.0,0.0,0.0,0.0,0.0,0.0,0.0,0.0,0.0,0.0,0.0,0.0,0.0,0.0,0.0,0.0,0.0,0.0,0.0,0.0,0.0,0.0,0.0,0.0,0.0,0.0,0.0,0.0,0.0,0.0,0.0,0.0,0.0,0.0,0.0,0.0,0.0,0.0,0.0,0.0,0.0,0.0,0.0,0.0,0.0,0.0,0.0,0.0,0.0,0.0,0.0,0.0,0.0,0.0,0.0,0.0,0.0,0.0,0.0,0.0,0.0,0.0,0.0,0.0,0.0,0.0,0.0,0.0,0.0,0.0,0.0,0.0,0.0,0.0,0.0,0.0,0.0,1.5757,1.7076,2.0181,2.0056,2.016,2.1141,2.1246,2.0587,1.9027,1.825,0.0,0.0,0.0,0.0,0.0,0.0,0.0,0.0,0.0,0.0,0.0,0.0,0.0,0.0,0.0,0.0,0.0,0.0,0.0,0.0,0.0,0.0,0.0,0.0,0.0,0.0,0.0,0.0,0.0,0.0,0.0,0.0,0.0,0.0,0.0,0.0,0.0,0.0,0.0,0.0,0.0,0.0,0.0,0.0,0.0,0.0,0.0,0.0,0.0,0.0,0.0,0.0,0.0,0.0,0.0,0.0,0.0,0.0,0.0,0.0,0.0,0.0,0.0,0.0,0.0,0.0,0.0,0.0,0.0,0.0,0.0,0.0,0.0,0.0,0.0,0.0,0.0,0.0,0.0,0.0,0.0,0.0,0.0,0.0,0.0,0.0,0.0,0.0,0.0,0.0,0.0,0.0,0.0,0.0,0.0,0.0,0.0,0.0,0.0,0.0,0.0,0.0,1.576,1.6274,1.9524,1.8736,1.8563,1.9916,1.9564,1.8914,1.8001,1.6726,0.0,0.0,0.0,0.0,0.0,0.0,0.0,0.0,0.0,0.0,0.0,0.0,0.0,0.0,0.0,0.0,0.0,0.0,0.0,0.0,0.0,0.0,0.0,0.0,0.0,0.0,0.0,0.0,0.0,0.0,0.0,0.0,0.0,0.0,0.0,0.0,0.0,0.0,0.0,0.0,0.0,0.0,0.0,0.0,0.0,0.0,0.0,0.0,0.0,0.0,0.0,0.0,0.0,0.0,0.0,0.0,0.0,0.0,0.0,0.0,0.0,0.0,0.0,0.0,0.0,0.0,0.0,0.0,0.0,0.0,0.0,0.0,0.0,0.0,0.0,0.0,0.0,0.0,0.0,0.0,0.0,0.0,0.0,0.0,0.0,0.0,0.0,0.0,0.0,0.0,0.0,0.0,0.0,0.0,0.0,0.0,0.0,0.0,0.0,0.0,0.0,0.0,1.4709,1.5437,1.651,1.6386,1.627,1.6601,1.6603,1.6461,1.6106,1.5271,0.0,0.0,0.0,0.0,0.0,0.0,0.0,0.0,0.0,0.0,0.0,0.0,0.0,0.0,0.0,0.0,0.0,0.0,0.0,0.0,0.0,0.0,0.0,0.0,0.0,0.0,0.0,0.0,0.0,0.0,0.0,0.0,0.0,0.0,0.0,0.0,0.0,0.0,0.0,0.0,0.0,0.0,0.0,0.0,0.0,0.0,0.0,0.0,0.0,0.0,0.0,0.0,0.0,0.0,0.0,0.0,0.0,0.0,0.0,0.0,0.0,0.0,0.0,0.0,0.0,0.0,0.0,0.0,0.0,0.0,0.0,0.0,0.0,0.0,0.0,0.0,0.0,0.0,0.0,0.0,0.0,0.0,0.0,0.0,0.0,0.0,0.0,0.0,0.0,0.0,0.0,0.0,0.0,0.0,0.0,0.0,0.0,0.0,0.0,0.0,0.0,0.0,1.3742,1.4862,1.6324,1.6219,1.599,1.6137,1.5606,1.5035,1.4505,0.0,0.0,0.0,0.0,0.0,0.0,0.0,0.0,0.0,0.0,0.0,0.0,0.0,0.0,0.0,0.0,0.0,0.0,0.0,0.0,0.0,0.0,0.0,0.0,0.0,0.0,0.0,0.0,0.0,0.0,0.0,0.0,0.0,0.0,0.0,0.0,0.0,0.0,0.0,0.0,0.0,0.0,0.0,0.0,0.0,0.0,0.0,0.0,0.0,0.0,0.0,0.0,0.0,0.0,0.0,0.0,0.0,0.0,0.0,0.0,0.0,0.0,0.0,0.0,0.0,0.0,0.0,0.0,0.0,0.0,0.0,0.0,0.0,0.0,0.0,0.0,0.0,0.0,0.0,0.0,0.0,0.0,0.0,0.0,0.0,0.0,0.0,0.0,0.0,0.0,0.0,0.0,0.0,0.0,0.0,0.0,0.0,0.0,0.0,0.0,0.0,0.0,1.2117,1.3539,1.4968,1.6422,1.6259,1.6064,1.6121,1.4992,1.4056,1.3544,0.0,0.0,0.0,0.0,0.0,0.0,0.0,0.0,0.0,0.0,0.0,0.0,0.0,0.0,0.0,0.0,0.0,0.0,0.0,0.0,0.0,0.0,0.0,0.0,0.0,0.0,0.0,0.0,0.0,0.0,0.0,0.0,0.0,0.0,0.0,0.0,0.0,0.0,0.0,0.0,0.0,0.0,0.0,0.0,0.0,0.0,0.0,0.0,0.0,0.0,0.0,0.0,0.0,0.0,0.0,0.0,0.0,0.0,0.0,0.0,0.0,0.0,0.0,0.0,0.0,0.0,0.0,0.0,0.0,0.0,0.0,0.0,0.0,0.0,0.0,0.0,0.0,0.0,0.0,0.0,0.0,0.0,0.0,0.0,0.0,0.0,0.0,0.0,0.0,0.0,0.0,0.0,0.0,0.0,0.0,0.0,0.0,0.0,0.0,0.0,0.0,0.0,1.2215,1.4188,1.5788,1.6503,1.6259,1.6113,1.6284,1.4513,1.3394,0.0,0.0,0.0,0.0,0.0,0.0,0.0,0.0,0.0,0.0,0.0,0.0,0.0,0.0,0.0,0.0,0.0,0.0,0.0,0.0,0.0,0.0,0.0,0.0,0.0,0.0,0.0,0.0,0.0,0.0,0.0,0.0,0.0,0.0,0.0,0.0,0.0,0.0,0.0,0.0,0.0,0.0,0.0,0.0,0.0,0.0,0.0,0.0,0.0,0.0,0.0,0.0,0.0,0.0,0.0,0.0,0.0,0.0,0.0,0.0,0.0,0.0,0.0,0.0,0.0,0.0,0.0,0.0,0.0,0.0,0.0,0.0,0.0,0.0,0.0,0.0,0.0,0.0,0.0,0.0,0.0,0.0,0.0,0.0,0.0,0.0,0.0,0.0,0.0,0.0,0.0,0.0,0.0,0.0,0.0,0.0,0.0,0.0,0.0,0.0,0.0,0.0,0.0,1.2215,1.4188,1.574,1.6324,1.6178,1.6016,1.5934,1.5049,1.3932,1.2499,0.0,0.0,0.0,0.0,0.0,0.0,0.0,0.0,0.0,0.0,0.0,0.0,0.0,0.0,0.0,0.0,0.0,0.0,0.0,0.0,0.0,0.0,0.0,0.0,0.0,0.0,0.0,0.0,0.0,0.0,0.0,0.0,0.0,0.0,0.0,0.0,0.0,0.0,0.0,0.0,0.0,0.0,0.0,0.0,0.0,0.0,0.0,0.0,0.0,0.0,0.0,0.0,0.0,0.0,0.0,0.0,0.0,0.0,0.0,0.0,0.0,0.0,0.0,0.0,0.0,0.0,0.0,0.0,0.0,0.0,0.0,0.0,0.0,0.0,0.0,0.0,0.0,0.0,0.0,0.0,0.0,0.0,0.0,0.0,0.0,0.0,0.0,0.0,0.0,0.0,0.0,0.0,0.0,0.0,0.0,0.0,0.0,0.0,0.0,0.0,0.0,0.0,1.2304,1.4229,1.5715,1.6243,1.6146,1.5999,1.5894,1.5317,1.4221,1.2403,0.0,0.0,0.0,0.0,0.0,0.0,0.0,0.0,0.0,0.0,0.0,0.0,0.0,0.0,0.0,0.0,0.0,0.0,0.0,0.0,0.0,0.0,0.0,0.0,0.0,0.0,0.0,0.0,0.0,0.0,0.0,0.0,0.0,0.0,0.0,0.0,0.0,0.0,0.0,0.0,0.0,0.0,0.0,0.0,0.0,0.0,0.0,0.0,0.0,0.0,0.0,0.0,0.0,0.0,0.0,0.0,0.0,0.0,0.0,0.0,0.0,0.0,0.0,0.0,0.0,0.0,0.0,0.0,0.0,0.0,0.0,0.0,0.0,0.0,0.0,0.0,0.0,0.0,0.0,0.0,0.0,0.0,0.0,0.0,0.0,0.0,0.0,0.0,0.0,0.0,0.0,0.0,0.0,0.0,0.0,0.0,0.0,0.0,0.0,0.0,0.0,0.0,1.245,1.4294,1.5715,1.6227,1.6137,1.5958,1.5942,1.5407,1.4424,1.296,0.0,0.0,0.0,0.0,0.0,0.0,0.0,0.0,0.0,0.0,0.0,0.0,0.0,0.0,0.0,0.0,0.0,0.0,0.0,0.0,0.0,0.0,0.0,0.0,0.0,0.0,0.0,0.0,0.0,0.0,0.0,0.0,0.0,0.0,0.0,0.0,0.0,0.0,0.0,0.0,0.0,0.0,0.0,0.0,0.0,0.0,0.0,0.0,0.0,0.0,0.0,0.0,0.0,0.0,0.0,0.0,0.0,0.0,0.0,0.0,1.141,1.1852,0.0,0.0,0.0,0.0,0.0,0.0,0.0,0.0,0.0,0.0,0.0,0.0,0.0,0.0,0.0,0.0,0.0,0.0,0.0,0.0,0.0,0.0,0.0,0.0,0.0,0.0,0.0,0.0,0.0,0.0,0.0,0.0,0.0,0.0,0.0,0.0,0.0,0.0,0.0,0.0,1.245,1.4294,1.5666,1.6056,1.6064,1.5991,1.5845,1.5569,1.4903,1.375,1.267,0.0,0.0,0.0,0.0,0.0,0.0,0.0,0.0,0.0,0.0,0.0,0.0,0.0,0.0,0.0,0.0,0.0,0.0,0.0,0.0,0.0,0.0,0.0,0.0,0.0,0.0,0.0,0.0,0.0,0.0,0.0,0.0,0.0,0.0,0.0,0.0,0.0,0.0,0.0,0.0,0.0,0.0,0.0,0.0,0.0,0.0,0.0,0.0,0.0,0.0,0.0,0.0,0.0,0.0,0.0,0.0,0.0,0.0,0.0,1.0577,1.0753,0.0,0.0,0.0,0.0,0.0,0.0,0.0,0.0,0.0,0.0,0.0,0.0,0.0,0.0,0.0,0.0,0.0,0.0,0.0,0.0,0.0,0.0,0.0,0.0,0.0,0.0,0.0,0.0,0.0,0.0,0.0,0.0,0.0,0.0,0.0,0.0,0.0,0.0,0.0,0.0,1.2816,1.4448,1.565,1.5925,1.5966,1.6008,1.591,1.574,1.5252,1.4343,1.3449,0.0,0.0,0.0,0.0,0.0,0.0,0.0,0.0,0.0,0.0,0.0,0.0,0.0,0.0,0.0,0.0,0.0,0.0,0.0,0.0,0.0,0.0,0.0,0.0,0.0,0.0,0.0,0.0,0.0,0.0,0.0,0.0,0.0,0.0,0.0,0.0,0.0,0.0,0.0,0.0,0.0,0.0,0.0,0.0,0.0,0.0,0.0,0.0,0.0,0.0,0.0,0.0,0.0,1.1461,1.1168,1.0727,1.0369,1.0091,0.9897,0.8985,0.9082,0.9885,1.0306,0.0,0.0,0.0,0.0,0.0,0.0,0.0,0.0,0.0,0.0,0.0,0.0,0.0,0.0,0.0,0.0,0.0,0.0,0.0,0.0,0.0,0.0,1.4011,1.4344,1.4637,1.449,1.2856,0.0,0.0,0.0,0.0,0.0,0.0,0.0,0.0,0.0,0.0,0.0,1.3271,1.4676,1.5683,1.5933,1.5966,1.5883,1.5883,1.5796,1.5353,1.4657,1.4035,1.3146,0.0,0.0,0.0,0.0,0.0,0.0,0.0,0.0,0.0,0.0,0.0,0.0,0.0,0.0,0.0,0.0,0.0,0.0,0.0,0.0,0.0,0.0,0.0,0.0,0.0,0.0,0.0,0.0,0.0,0.0,0.0,0.0,1.0146,1.0083,0.0,0.0,0.0,0.0,0.0,0.0,0.0,0.0,0.0,0.0,0.0,0.0,0.0,1.1699,1.2216,1.2734,1.281,1.2259,1.2589,1.17,0.982,0.9244,0.8344,0.7299,0.6512,0.0,1.0086,0.9613,0.0,0.0,0.0,0.0,0.0,0.0,0.0,0.0,0.0,0.0,0.0,0.0,0.0,0.0,0.0,0.0,0.0,0.0,0.0,0.0,0.0,0.0,1.5551,1.5683,1.5683,1.5601,1.5472,1.3961,1.237,1.1801,1.1321,1.081,0.0,0.0,0.0,0.0,0.0,0.0,1.3506,1.4854,1.5821,1.5942,1.5711,1.5463,1.5463,1.5315,1.495,1.4305,1.3976,1.3413,1.263,1.1627,0.0,0.0,0.0,0.0,0.0,0.0,0.0,0.0,0.0,0.0,0.0,0.0,0.0,0.0,0.0,0.0,0.0,0.0,0.0,0.0,0.0,0.0,0.0,0.0,0.0,0.0,0.0,0.0,0.0,1.0237,1.0541,1.0553,1.0527,1.023,0.0,0.0,0.0,0.0,0.0,0.0,0.0,0.0,0.0,1.1038,1.1332,1.1195,1.0645,1.0965,1.0803,1.0004,1.0289,0.9649,0.8193,0.801,0.7283,0.6305,0.5911,0.657,0.7765,0.8193,0.8094,0.7761,0.0,0.0,0.0,0.0,1.0201,1.0498,1.0845,1.1555,1.2383,1.2645,0.0,0.0,0.0,0.0,0.0,0.0,0.0,1.4093,1.4769,1.5445,1.6024,1.6321,1.6511,1.6519,1.6418,1.5683,1.4635,1.3587,1.3108,1.2523,1.1386,1.1118,0.0,0.0,0.0,1.3352,1.427,1.5195,1.5764,1.5695,1.5546,1.5298,1.5043,1.49,1.4667,1.4244,1.4117,1.377,1.3193,1.2422,1.1703,0.0,0.0,0.0,0.0,0.0,0.0,0.0,0.0,0.0,0.0,0.0,0.0,0.0,0.0,0.0,0.0,0.0,0.0,0.0,0.0,0.0,0.0,0.0,0.0,0.0,0.0,0.0,0.0,1.0244,1.0341,1.0381,1.0566,1.0345,0.0,0.0,0.0,0.0,0.0,0.0,1.0554,1.0898,1.1113,1.1113,1.1063,1.0454,0.9474,0.9293,0.8753,0.7936,0.8126,0.7678,0.6783,0.6905,0.6592,0.5946,0.5962,0.5943,0.5966,0.6832,0.7071,0.6982,0.8425,0.8611,0.8252,0.9158,0.957,0.9723,1.0037,1.0623,1.122,1.1884,1.2098,1.2349,1.3058,0.0,0.0,0.0,0.0,1.3322,1.4172,1.4555,1.492,1.5327,1.5513,1.5564,1.5446,1.5327,1.5165,1.4905,1.4732,1.4164,1.2824,1.2161,0.0,1.1908,1.2079,1.2619,1.3487,1.3931,1.4092,1.3922,1.4149,1.421,1.388,1.4264,1.4289,1.3931,1.3989,1.3791,1.3268,1.2801,1.2286,1.1641,0.0,0.0,0.0,0.0,0.0,0.0,0.0,0.0,0.0,0.0,0.0,0.0,0.0,0.0,0.0,0.0,0.0,0.0,0.0,0.0,0.0,0.0,0.0,0.0,0.0,0.0,0.0,0.0,0.0,0.8285,0.8694,0.0,0.0,0.0,0.0,0.8612,0.8877,0.9264,0.9977,1.0219,1.0437,1.0935,1.0018,0.9669,0.9908,0.9019,0.8121,0.7364,0.7374,0.6832,0.6008,0.6072,0.6008,0.6011,0.6066,0.6087,0.6066,0.5908,0.5734,0.5874,0.7322,0.6906,0.5778,0.744,0.8243,0.8607,0.8713,0.986,1.1321,1.1587,1.2196,1.2966,1.2943,1.2494,0.0,0.0,1.0136,1.0508,1.1257,1.1395,1.1521,1.1654,1.1688,1.1688,1.1682,1.1677,1.2517,1.5646,1.5926,1.5504,1.4911,0.0,1.1945,1.1656,1.025,0.9332,0.9657,0.9721,0.9797,0.97,1.0697,1.1463,1.154,1.3008,1.3605,1.313,1.3429,1.3282,1.2579,1.2415,1.212,1.1783,1.107,0.0,0.0,0.0,0.0,0.0,0.0,0.0,0.0,0.0,0.0,0.0,0.0,0.0,0.0,0.0,0.0,0.0,0.0,0.0,0.0,0.0,0.0,0.0,0.0,0.0,0.0,0.0,0.0,0.8703,0.899,0.0,0.8618,0.8864,0.9166,0.9372,0.9693,1.0085,1.0574,1.0056,0.9919,1.0287,0.9333,0.8643,0.822,0.786,0.7249,0.6383,0.6424,0.6258,0.5984,0.6041,0.6068,0.6068,0.609,0.6098,0.609,0.6006,0.5924,0.5936,0.6413,0.6195,0.5825,0.6407,0.6737,0.6895,0.6946,0.7363,0.8129,0.9438,1.0845,1.2039,1.183,1.1696,1.1458,1.0837,1.0849,1.0972,1.1231,1.1362,1.1373,1.1417,1.1427,1.1427,1.1427,1.1427,1.1743,1.2917,1.2844,1.249,1.1899,1.1221,1.0621,1.0328,0.9759,0.9462,0.9769,0.954,0.9324,0.9018,0.9413,0.9562,0.9305,1.0733,1.1109,0.9701,1.1682,1.2212,1.0772,1.1635,1.2067,1.1825,1.1159,1.0342,0.0,0.0,0.0,0.0,0.0,0.0,0.0,0.0,0.0,0.0,0.0,0.0,0.0,0.0,0.0,0.0,0.0,0.0,0.0,0.0,0.0,0.0,0.0,0.0,0.0,0.0,0.8523,0.8617,0.8688,0.8597,0.8306,0.8671,0.9002,0.9179,0.943,0.9785,1.0073,0.952,0.9302,0.9447,0.8583,0.7849,0.7336,0.7061,0.6517,0.5981,0.6022,0.6052,0.6074,0.609,0.6109,0.6128,0.6106,0.6098,0.6098,0.6098,0.6076,0.6038,0.5997,0.5981,0.5981,0.5981,0.6008,0.6041,0.6041,0.6066,0.6364,0.8211,0.9665,1.0549,1.0367,1.0426,1.0259,0.9573,0.9428,0.9473,0.9473,0.9473,0.9473,0.9473,0.9473,0.9473,0.9473,0.9473,0.9473,0.9473,1.0302,1.0929,1.0407,0.9825,0.9551,0.985,0.8579,0.79,0.8679,0.7889,0.7042,0.6816,0.7266,0.7525,0.7244,0.9146,0.9602,0.7856,1.0208,1.0874,0.9031,1.0339,1.1116,1.0948,1.0796,1.0378,0.968,0.0,0.0,0.0,0.0,0.0,0.0,0.0,0.0,0.0,0.0,0.0,0.0,0.0,0.0,0.0,0.0,0.0,0.0,0.0,0.0,0.0,0.0,0.0,0.8127,0.8287,0.8149,0.7803,0.765,0.7524,0.7269,0.7565,0.7888,0.798,0.8069,0.8195,0.8372,0.8465,0.8554,0.8647,0.7816,0.7339,0.7323,0.6483,0.6044,0.6098,0.6098,0.6128,0.6183,0.6125,0.6131,0.6183,0.6123,0.6098,0.6098,0.6098,0.6098,0.6098,0.6098,0.6098,0.6098,0.6098,0.6098,0.6098,0.6098,0.6098,0.6372,0.8184,0.8752,0.8664,0.8663,0.8574,0.8149,0.6189,0.5744,0.5744,0.5741,0.5741,0.5741,0.5741,0.5741,0.5741,0.5741,0.5741,0.5741,0.5741,0.8602,1.1123,1.0929,0.9365,0.867,1.007,0.671,0.0,0.6205,0.428,0.277,0.2742,0.4226,0.5267,0.5296,0.8181,0.9315,0.7774,0.908,0.9137,0.7455,0.8602,0.923,0.9307,0.9892,1.0253,1.0317,0.0,0.0,0.0,0.0,0.0,0.0,0.0,0.0,0.0,0.0,0.0,0.0,0.0,0.0,0.0,0.0,0.0,0.0,0.0,0.0,0.0,0.7192,0.7804,0.7942,0.8131,0.8113,0.7723,0.7764,0.7778,0.7795,0.794,0.8187,0.8251,0.8288,0.8381,0.8648,0.796,0.7674,0.7717,0.6907,0.6389,0.645,0.6168,0.6082,0.6098,0.6098,0.6106,0.6123,0.6106,0.6106,0.6123,0.6104,0.6098,0.6098,0.6098,0.6098,0.6098,0.6098,0.6098,0.6098,0.6098,0.6098,0.6098,0.6098,0.6098,0.6182,0.6688,0.6749,0.6718,0.6651,0.6617,0.6501,0.5908,0.5807,0.5796,0.5752,0.5741,0.5741,0.5741,0.5741,0.5741,0.5741,0.5741,0.5741,0.5741,0.6574,0.7135,0.6676,0.6135,0.581,0.5822,0.4539,0.369,0.4157,0.3365,0.2722,0.2736,0.3087,0.3432,0.342,0.5297,0.5739,0.4094,0.6505,0.7233,0.5612,0.6939,0.8244,0.9521,0.815,0.8606,0.0,0.0,0.0,0.0,0.0,0.0,0.0,0.0,0.0,0.0,0.0,0.0,0.0,0.0,0.0,0.0,0.0,0.0,0.0,0.0,0.0,0.0,0.7125,0.7391,0.731,0.7401,0.7419,0.7134,0.6944,0.6818,0.693,0.7007,0.7187,0.7223,0.7293,0.737,0.746,0.6977,0.6771,0.6852,0.6318,0.6066,0.6098,0.6098,0.6098,0.6098,0.6098,0.6112,0.6134,0.6109,0.6112,0.6134,0.6109,0.6098,0.6098,0.6098,0.6098,0.6098,0.0,0.0,0.0,0.0,0.6098,0.6098,0.6098,0.6098,0.6093,0.606,0.6033,0.6008,0.5973,0.5924,0.5878,0.5842,0.5831,0.5818,0.5758,0.576,0.5771,0.5747,0.5741,0.5741,0.5741,0.5741,0.5652,0.547,0.5444,0.0,0.4446,0.4679,0.4867,0.5066,0.4122,0.3597,0.4194,0.3331,0.2699,0.2717,0.2742,0.2757,0.2757,0.4172,0.0,0.0,0.0,0.574,0.4657,0.5562,0.0,0.0,0.0,0.0,0.0,0.0,0.0,0.0,1.0796,1.1687,0.0,0.0,0.0,0.0,0.0,0.0,0.0,0.0,0.0,0.0,0.0,0.0,0.0,0.0,0.0,0.0,0.7019,0.6755,0.6349,0.6241,0.6277,0.6344,0.5766,0.536,0.5474,0.5537,0.5594,0.5657,0.5766,0.5834,0.5842,0.0,0.0,0.0,0.0,0.6098,0.6098,0.6098,0.6098,0.6098,0.6098,0.6125,0.6177,0.6123,0.6128,0.6175,0.6123,0.6098,0.6098,0.6098,0.6098,0.6098,0.6098,0.6098,0.6098,0.6098,0.6098,0.6098,0.6098,0.0,0.0,0.6098,0.6063,0.6025,0.6025,0.5948,0.5861,0.5853,0.5853,0.5839,0.5777,0.5801,0.5828,0.5774,0.5755,0.5662,0.5662,0.5654,0.547,0.5022,0.4933,0.4664,0.3768,0.4152,0.5023,0.5927,0.448,0.386,0.5158,0.3826,0.2697,0.2692,0.274,0.0,0.2773,0.3956,0.4148,0.277,0.388,0.4461,0.4214,0.4343,0.507,0.6611,0.6534,0.6832,0.7529,0.7458,0.7667,0.8066,1.0369,1.1837,0.0,0.0,0.0,0.0,0.0,0.0,0.0,0.0,0.0,0.0,0.0,0.0,0.0,0.0,0.0,0.596,0.611,0.6095,0.5416,0.5439,0.5508,0.5522,0.5457,0.5466,0.5537,0.5684,0.5657,0.5719,0.579,0.5853,0.5902,0.5973,0.6036,0.6079,0.6093,0.6098,0.6098,0.6098,0.6098,0.6098,0.6098,0.0,0.6115,0.6104,0.6104,0.6115,0.6104,0.6098,0.6098,0.6098,0.6098,0.6098,0.6098,0.6098,0.6098,0.6098,0.6098,0.6098,0.6098,0.6098,0.6098,0.6098,0.609,0.6082,0.6082,0.6066,0.0,0.5992,0.5978,0.5965,0.5902,0.5897,0.5902,0.5891,0.585,0.5633,0.5268,0.5143,0.5022,0.4487,0.4397,0.4218,0.3678,0.3755,0.373,0.3507,0.3152,0.304,0.3228,0.2976,0.272,0.2695,0.2703,0.271,0.271,0.2921,0.2897,0.2656,0.2904,0.3066,0.3053,0.3113,0.3893,0.5441,0.4236,0.502,0.7796,0.6644,0.6836,0.8353,0.8718,0.9087,0.0,0.0,0.0,0.0,0.0,0.0,0.0,0.0,0.0,0.0,0.0,0.7222,0.6593,0.0,0.6422,0.5887,0.572,0.5575,0.5272,0.5256,0.5294,0.5294,0.5401,0.5499,0.5553,0.5704,0.5687,0.5779,0.5842,0.5905,0.5965,0.6025,0.6068,0.6098,0.6098,0.6098,0.6098,0.6098,0.6098,0.6098,0.6098,0.6098,0.6098,0.6098,0.6098,0.6098,0.6098,0.6098,0.6101,0.6131,0.6142,0.6145,0.6177,0.6153,0.6098,0.6098,0.6098,0.6098,0.6098,0.6098,0.6098,0.6098,0.6098,0.6098,0.6098,0.6079,0.6049,0.6022,0.5826,0.5618,0.5531,0.5367,0.5208,0.5156,0.5125,0.5012,0.483,0.4699,0.4485,0.4038,0.3949,0.3769,0.3321,0.3231,0.3131,0.2833,0.2829,0.2812,0.2766,0.2761,0.2755,0.274,0.2737,0.2744,0.2759,0.2747,0.2732,0.2716,0.2729,0.2737,0.2737,0.2767,0.3217,0.3995,0.3234,0.3689,0.5379,0.4686,0.4837,0.5684,0.5621,0.674,0.0,0.0,0.0,0.0,0.0,0.0,0.0,0.0,0.7459,0.717,0.7145,0.7069,0.652,0.6103,0.5856,0.5952,0.5496,0.5183,0.5281,0.5305,0.5308,0.5294,0.5412,0.551,0.5556,0.5624,0.5714,0.5823,0.5888,0.5948,0.6011,0.6066,0.6098,0.6098,0.6098,0.6098,0.6098,0.6098,0.6098,0.6098,0.6098,0.6098,0.6098,0.6098,0.6098,0.6098,0.6014,0.5932,0.5849,0.5896,0.5917,0.5919,0.5969,0.5927,0.5847,0.6038,0.6038,0.6038,0.6134,0.603,0.6019,0.6115,0.6106,0.6098,0.6003,0.5876,0.5842,0.5748,0.5463,0.5068,0.4986,0.4737,0.4489,0.4418,0.4389,0.4379,0.4296,0.4171,0.405,0.36,0.342,0.3329,0.2965,0.2874,0.2866,0.2841,0.2837,0.2826,0.2796,0.2792,0.2789,0.2784,0.2784,0.2793,0.2818,0.2819,0.2812,0.2793,0.2792,0.2795,0.28,0.2801,0.2815,0.2845,0.2845,0.2871,0.2924,0.2956,0.2983,0.3007,0.3037,0.4742,0.7051,0.706,0.7116,0.7351,0.7463,0.7714,0.0,0.0,0.7645,0.7969,0.7647,0.705,0.6318,0.6227,0.6109,0.5337,0.528,0.5278,0.5292,0.5341,0.5354,0.53,0.5444,0.5553,0.5559,0.5662,0.576,0.5826,0.5888,0.5948,0.6011,0.6066,0.6098,0.6098,0.6098,0.6098,0.6098,0.6098,0.6098,0.6098,0.6098,0.6098,0.6098,0.6098,0.6098,0.6101,0.5675,0.5241,0.4891,0.4898,0.49,0.49,0.4906,0.49,0.4989,0.5966,0.5969,0.5676,0.6064,0.5932,0.5601,0.5987,0.6142,0.6003,0.553,0.543,0.533,0.4854,0.4757,0.466,0.465,0.4625,0.4504,0.4494,0.4432,0.4296,0.3873,0.3758,0.3549,0.3092,0.3001,0.2993,0.2878,0.2874,0.2872,0.287,0.2868,0.2857,0.2827,0.2823,0.2814,0.2787,0.2784,0.2785,0.2788,0.2788,0.2799,0.2822,0.2823,0.2836,0.2863,0.2864,0.2876,0.2905,0.2906,0.2923,0.2957,0.2987,0.3003,0.3007,0.3037,0.3335,0.7492,0.7642,0.7809,0.0,0.7949,0.803,0.8414,0.7891,0.7246,0.7006,0.6838,0.646,0.5602,0.5495,0.5478,0.0,0.5207,0.5182,0.5002,0.5002,0.4906,0.4553,0.4633,0.4871,0.5075,0.5005,0.4937,0.4958,0.5233,0.5464,0.5585,0.5866,0.6063,0.6098,0.5813,0.5625,0.5625,0.5625,0.5527,0.5242,0.5813,0.5813,0.5242,0.5847,0.5977,0.5723,0.5259,0.4889,0.4714,0.4741,0.4751,0.4753,0.478,0.479,0.4784,0.5223,0.5203,0.51,0.5266,0.5144,0.4928,0.5188,0.5239,0.5107,0.4947,0.4824,0.4785,0.4623,0.433,0.4117,0.4093,0.3812,0.3632,0.3632,0.3592,0.3474,0.3325,0.32,0.3162,0.2982,0.2891,0.2887,0.2876,0.2874,0.2874,0.2874,0.2874,0.287,0.2856,0.2855,0.2851,0.2837,0.2836,0.2836,0.2836,0.2836,0.2841,0.2855,0.2855,0.2868,0.2897,0.2898,0.2912,0.2942,0.2942,0.2957,0.2988,0.3001,0.3016,0.3033,0.3046,0.3148,0.7606,0.7912,0.0,0.8144,0.8159,0.815,0.7915,0.7369,0.6812,0.6256,0.6078,0.5724,0.5097,0.5036,0.5,0.5024,0.5053,0.4933,0.4528,0.4498,0.4383,0.4055,0.3916,0.4042,0.4357,0.4361,0.4285,0.4397,0.4752,0.4981,0.5119,0.5376,0.5661,0.5715,0.5337,0.5149,0.5149,0.5149,0.4956,0.4575,0.5337,0.5344,0.4596,0.5413,0.5566,0.5026,0.4632,0.4441,0.4257,0.4385,0.4399,0.44,0.433,0.4343,0.4334,0.4264,0.4344,0.4544,0.4598,0.4574,0.4459,0.4608,0.4563,0.453,0.4456,0.4324,0.4281,0.411,0.3816,0.3511,0.3485,0.3215,0.2949,0.2949,0.2926,0.2912,0.2942,0.2916,0.2886,0.2886,0.2886,0.2883,0.2875,0.2874,0.2874,0.2874,0.2874,0.2874,0.2874,0.2874,0.2874,0.2874,0.2874,0.2874,0.2874,0.2874,0.2874,0.2874,0.2874,0.2886,0.2915,0.2916,0.2934,0.2973,0.2973,0.2988,0.302,0.302,0.3031,0.3148,0.3148,0.3148,0.7126,0.0,0.8143,0.767,0.7842,0.8053,0.749,0.6829,0.6346,0.6268,0.5645,0.5022,0.5022,0.5068,0.4968,0.4621,0.4593,0.448,0.4113,0.3999,0.3972,0.389,0.3559,0.3341,0.0,0.3925,0.4349,0.4399,0.4443,0.4416,0.4504,0.4508,0.4623,0.4668,0.4671,0.4575,0.4575,0.4575,0.4575,0.4575,0.4671,0.4598,0.4643,0.4688,0.4437,0.398,0.398,0.3701,0.3227,0.3228,0.3228,0.3228,0.323,0.323,0.3227,0.3197,0.3605,0.413,0.4591,0.4449,0.4015,0.4558,0.461,0.447,0.3959,0.3853,0.375,0.3156,0.3055,0.3053,0.3052,0.2939,0.2917,0.2917,0.2896,0.2883,0.2912,0.2916,0.2915,0.2915,0.2915,0.2906,0.2879,0.2874,0.2874,0.2874,0.2874,0.2874,0.2874,0.2874,0.2874,0.2874,0.2874,0.2874,0.2874,0.2874,0.2874,0.2874,0.2874,0.2886,0.2915,0.2916,0.2945,0.3005,0.3005,0.3021,0.3051,0.3051,0.3051,0.3148,0.3148,0.3148,0.7653,0.0,0.7269,0.7851,0.7459,0.6865,0.6689,0.602,0.5414,0.5414,0.5114,0.4675,0.3905,0.4151,0.4267,0.3403,0.3795,0.4034,0.3692,0.3606,0.3421,0.3064,0.2998,0.0,0.0,0.0,0.0,0.3471,0.3695,0.3909,0.4072,0.431,0.45,0.4573,0.4291,0.4101,0.4101,0.4101,0.391,0.3624,0.3647,0.3982,0.4735,0.4057,0.3786,0.3919,0.3618,0.3322,0.323,0.323,0.323,0.323,0.323,0.323,0.3227,0.3198,0.3294,0.3495,0.3636,0.351,0.3398,0.3557,0.3616,0.3496,0.3414,0.3276,0.3133,0.3051,0.2934,0.2904,0.2904,0.2896,0.2893,0.2912,0.2909,0.2911,0.2939,0.293,0.2921,0.2942,0.293,0.2913,0.2904,0.2902,0.2896,0.2876,0.2874,0.2874,0.2874,0.2874,0.2874,0.2874,0.2874,0.2874,0.2874,0.2874,0.2882,0.2901,0.2902,0.2924,0.2975,0.2976,0.2995,0.3036,0.3037,0.3041,0.3148,0.3148,0.3148,0.3052,0.3073,0.3082,0.7379,0.7181,0.6701,0.7327,0.6934,0.6196,0.5883,0.5414,0.4852,0.4422,0.4558,0.4394,0.3172,0.3583,0.3836,0.3002,0.3299,0.3465,0.3197,0.3111,0.3017,0.2694,0.2703,0.2714,0.0,0.0,0.0,0.2906,0.3159,0.3378,0.3504,0.3749,0.3938,0.4097,0.372,0.3529,0.3529,0.3529,0.344,0.3069,0.311,0.3544,0.4183,0.3498,0.3414,0.3735,0.3332,0.323,0.323,0.323,0.323,0.323,0.323,0.3224,0.3212,0.3183,0.3165,0.315,0.3111,0.3097,0.3093,0.3062,0.3039,0.3025,0.3033,0.2995,0.2947,0.2946,0.2917,0.2886,0.2876,0.2874,0.2879,0.2897,0.2901,0.2909,0.2939,0.2921,0.2909,0.2939,0.2921,0.2901,0.2901,0.2901,0.2896,0.2876,0.2874,0.2874,0.2874,0.2874,0.2874,0.2874,0.2883,0.2889,0.2889,0.2898,0.2913,0.2931,0.2932,0.2954,0.3005,0.3006,0.3021,0.3051,0.3148,0.3148,0.3148,0.3063,0.3069,0.3069,0.31,0.3114,0.6256,0.6515,0.6402,0.626,0.6115,0.5802,0.5016,0.4779,0.451,0.3336,0.3842,0.4028,0.0,0.0,0.3592,0.3055,0.2952,0.2814,0.2622,0.2436,0.2434,0.0,0.0,0.0,0.0,0.0,0.0,0.2833,0.0,0.2972,0.3007,0.3007,0.3021,0.3051,0.3148,0.3148,0.3148,0.3054,0.307,0.3103,0.316,0.3189,0.3191,0.3217,0.323,0.323,0.323,0.323,0.323,0.323,0.323,0.323,0.323,0.3213,0.3186,0.3155,0.3125,0.3099,0.3096,0.3095,0.3091,0.3062,0.3148,0.3047,0.3018,0.3009,0.2995,0.2936,0.2919,0.2909,0.2883,0.2875,0.2874,0.2874,0.2875,0.2883,0.2911,0.2896,0.2885,0.2913,0.2896,0.2876,0.2876,0.2875,0.2874,0.2876,0.2876,0.2875,0.2874,0.2875,0.2876,0.2876,0.2901,0.2919,0.2919,0.2945,0.2962,0.2964,0.2964,0.2977,0.3007,0.3009,0.3022,0.3051,0.3054,0.3055,0.3055,0.3085,0.31,0.31,0.3131,0.3145,0.6569,0.5441,0.4105,0.4751,0.3683,0.2503,0.2326,0.2228,0.2041,0.1387,0.1466,0.1403,0.0,0.0,0.0,0.1614,0.1127,0.0,0.0587,-0.0596,0.0,0.0526,0.0,0.1241,0.2662,0.2872,0.0,0.0,0.2896,0.2939,0.3036,0.3018,0.3021,0.3051,0.3148,0.3148,0.3148,0.3074,0.3112,0.3165,0.318,0.32,0.322,0.3227,0.323,0.323,0.323,0.323,0.323,0.323,0.323,0.323,0.323,0.3225,0.3213,0.3161,0.3138,0.3125,0.308,0.3063,0.3062,0.3055,0.3148,0.3051,0.3043,0.3025,0.3003,0.2988,0.2951,0.2915,0.2906,0.289,0.2874,0.2874,0.289,0.2906,0.2915,0.2911,0.2915,0.2943,0.2926,0.2905,0.2905,0.2887,0.2881,0.2902,0.2905,0.2898,0.2876,0.2891,0.2905,0.2905,0.2932,0.295,0.295,0.2957,0.2971,0.2994,0.2995,0.3009,0.3039,0.304,0.3044,0.3148,0.3074,0.3086,0.3086,0.3116,0.3131,0.3131,0.3163,0.3176,0.5179,0.4611,0.3811,0.3208,0.2587,0.1944,0.1503,0.1186,0.0868,0.0135,0.0449,0.0,-0.0351,0.0121,0.0,0.0,0.0,0.0,-0.1258,-0.1453,-0.1218,0.0,0.072,0.0,0.2814,0.2936,0.2961,0.0,0.2949,0.2968,0.3048,0.3036,0.3035,0.3051,0.3148,0.3058,0.3071,0.3103,0.3141,0.3189,0.3201,0.3215,0.323,0.323,0.323,0.323,0.323,0.323,0.323,0.323,0.323,0.323,0.323,0.3223,0.3206,0.316,0.3134,0.3116,0.3069,0.3148,0.3148,0.3148,0.3148,0.3148,0.3148,0.304,0.3024,0.301,0.2983,0.2949,0.2923,0.2904,0.2889,0.2876,0.2886,0.2901,0.2913,0.2906,0.2902,0.292,0.2909,0.2897,0.2897,0.2885,0.2879,0.2896,0.2897,0.2897,0.2893,0.2917,0.2936,0.2936,0.2962,0.2981,0.2981,0.2994,0.3009,0.3025,0.3026,0.3035,0.3051,0.3148,0.3058,0.3071,0.3089,0.3104,0.3118,0.3148,0.3163,0.3164,0.3193,0.3206,0.318,0.3766,0.3922,0.1647,0.1644,0.1998,0.1085,0.0496,-0.0137,-0.1039,0.0,0.0447,-0.0691,-0.049,-0.0174,-0.0386,0.0,-0.2876,-0.2939,-0.1705,-0.0608,-0.0363,0.1368,0.2667,0.3001,0.3006,0.3017,0.3044,0.3022,0.302,0.3051,0.3148,0.3148,0.3148,0.3056,0.3073,0.3103,0.3134,0.3164,0.3194,0.3219,0.323,0.323,0.323,0.323,0.323,0.323,0.323,0.323,0.323,0.323,0.323,0.323,0.3215,0.319,0.3156,0.3126,0.3099,0.3065,0.3148,0.3148,0.3148,0.3148,0.3148,0.3148,0.3148,0.3047,0.3021,0.301,0.2995,0.2942,0.2926,0.2916,0.2891,0.2882,0.2886,0.2911,0.2894,0.2874,0.2874,0.2874,0.2874,0.2874,0.2874,0.2876,0.2885,0.2882,0.2891,0.2924,0.2947,0.2962,0.2966,0.2995,0.3013,0.3013,0.3037,0.3148,0.3148,0.3148,0.3054,0.3058,0.3058,0.3073,0.3103,0.3108,0.3123,0.3149,0.3179,0.3194,0.3194,0.3219,0.323,0.3123,0.2511,0.1569,0.0078,-0.1313,-0.2328,-0.2278,-0.2716,0.0,0.0,-0.2675,-0.1774,-0.1603,-0.1436,-0.1152,-0.0564,-0.2611,-0.4527,-0.4984,-0.4666,-0.3827,0.0,-0.0553,0.1204,0.2816,0.3006,0.0,0.0,0.301,0.302,0.3051,0.3148,0.3148,0.3148,0.3077,0.3104,0.3134,0.3165,0.3194,0.3223,0.3228,0.323,0.323,0.323,0.323,0.323,0.323,0.323,0.323,0.323,0.323,0.323,0.323,0.3227,0.3216,0.3163,0.314,0.3127,0.3071,0.3148,0.3148,0.3148,0.3148,0.3148,0.3148,0.3148,0.3051,0.3046,0.3026,0.3005,0.2994,0.2972,0.2953,0.2947,0.2927,0.2911,0.2915,0.2894,0.2874,0.2874,0.2874,0.2874,0.2874,0.2874,0.289,0.2939,0.2924,0.2928,0.2984,0.2973,0.2971,0.2996,0.3026,0.3044,0.3044,0.305,0.3148,0.3148,0.3148,0.3063,0.3088,0.3089,0.3104,0.3134,0.316,0.3175,0.318,0.3209,0.3223,0.3223,0.3228,0.323,0.1327,0.0941,0.0157,-0.1804,-0.2696,-0.3255,-0.3528,0.0,0.0,0.0,-0.289,-0.2084,-0.2306,-0.2077,0.0,-0.2232,-0.4085,-0.574,0.0,-0.4834,0.0,-0.4272,-0.1749,0.0,0.0,-0.019,-0.0191,-0.0191,-0.0287,0.0671,0.2957,0.3148,0.2574,0.1524,0.2503,0.2041,-0.0098,0.2081,0.2601,0.1513,0.2623,0.323,0.323,0.323,0.323,0.323,0.323,0.323,0.323,0.323,0.323,0.323,0.323,0.323,0.3225,0.3182,0.3156,0.3137,0.3092,0.3066,0.3148,0.3148,0.3148,0.3148,0.3148,0.3148,0.3148,0.3148,0.3041,0.3026,0.3011,0.2996,0.2981,0.2965,0.295,0.2939,0.2939,0.2928,0.2915,0.2898,0.2909,0.2909,0.2879,0.2886,0.2901,0.2913,0.2904,0.2911,0.2954,0.2946,0.295,0.298,0.301,0.3028,0.3028,0.3058,0.3076,0.3076,0.3091,0.3106,0.312,0.3122,0.3135,0.3165,0.318,0.3195,0.321,0.3224,0.323,0.3231,0.3246,0.3254,-0.0311,-0.0469,-0.094,-0.3217,-0.3682,-0.3644,-0.4085,-0.4462,0.0,0.0,-0.2762,-0.2102,-0.2756,0.0,-0.2652,0.0,-0.5194,-0.65,0.0,0.0,0.0,0.0,0.0,0.0,-0.3237,-0.3454,0.0,-0.3475,-0.3492,-0.1935,0.153,0.1813,0.1048,-0.0571,0.0964,0.0195,-0.3038,0.0595,0.1703,0.0,0.222,0.323,0.323,0.323,0.323,0.323,0.323,0.323,0.323,0.323,0.323,0.323,0.323,0.323,0.3227,0.3198,0.317,0.3138,0.3108,0.3078,0.3148,0.3148,0.3148,0.3148,0.3148,0.3148,0.3148,0.3148,0.3148,0.3047,0.3022,0.3017,0.3009,0.2979,0.2971,0.2969,0.2962,0.2961,0.2954,0.293,0.2945,0.2946,0.2901,0.2911,0.292,0.2905,0.2891,0.2896,0.2931,0.2924,0.2927,0.2958,0.2988,0.301,0.3016,0.3066,0.3097,0.3097,0.3126,0.3145,0.3152,0.3153,0.3167,0.3197,0.3197,0.3208,0.323,0.3236,0.324,0.324,0.327,0.3285,-0.0537,-0.1168,-0.2039,-0.3454,-0.4621,-0.5347,-0.4846,0.0,0.0,-0.4474,-0.3503,-0.2801,-0.2803,-0.292,0.0,0.0,0.0,-0.6292,0.0,0.0,0.0,0.0,0.0,0.0,0.0,-0.4492,0.0,-0.4528,-0.4022,-0.3444,-0.27,-0.2487,-0.257,-0.276,-0.2617,-0.2741,-0.3135,-0.0798,0.0201,0.0,0.222,0.323,0.323,0.323,0.323,0.323,0.323,0.323,0.323,0.323,0.323,0.323,0.323,0.323,0.3227,0.3198,0.317,0.3138,0.3108,0.3078,0.3148,0.3148,0.3148,0.3148,0.3148,0.3148,0.3148,0.3148,0.3148,0.3051,0.3048,0.3048,0.304,0.301,0.3002,0.2995,0.2968,0.2961,0.2961,0.2958,0.296,0.296,0.2954,0.2956,0.2965,0.2991,0.2947,0.2932,0.2991,0.295,0.2927,0.2958,0.2988,0.3018,0.3046,0.3078,0.3097,0.3097,0.3126,0.3155,0.3183,0.3185,0.3197,0.3225,0.3227,0.3228,0.323,0.3258,0.3272,0.3272,0.3302,0.3317,-0.2409,-0.3479,-0.4703,-0.5176,-0.5862,-0.6251,-0.5605,0.0,-0.512,-0.4483,-0.3557,-0.3054,-0.3622,-0.3319,-0.337,0.0,0.0,0.0,0.0,0.0,0.0,0.0,0.0,0.0,0.0,0.0,-0.8447,-0.8532,-0.8224,-0.7978,-0.7818,-0.5067,-0.3995,-0.523,-0.4169,-0.4211,-0.5387,-0.1797,0.0,0.0,0.222,0.323,0.323,0.323,0.323,0.323,0.323,0.323,0.323,0.323,0.323,0.323,0.323,0.323,0.3228,0.3217,0.3195,0.3168,0.3156,0.3131,0.3104,0.3085,0.308,0.3076,0.3058,0.3148,0.3148,0.3148,0.3148,0.3148,0.3148,0.3148,0.305,0.3037,0.3035,0.3031,0.3018,0.3016,0.301,0.2992,0.3003,0.3005,0.2968,0.2976,0.2987,0.298,0.2958,0.2951,0.2976,0.2958,0.2956,0.2986,0.2999,0.3011,0.3024,0.3086,0.3125,0.3125,0.317,0.3201,0.3213,0.3213,0.3219,0.323,0.323,0.3239,0.3257,0.3269,0.3285,0.3303,0.3335,0.3348,-0.3548,-0.4898,-0.6179,-0.6203,-0.6518,-0.6619,0.0,-0.5529,-0.4978,-0.4422,-0.3764,-0.3537,-0.43,-0.3919,-0.3856,0.0,0.0,-0.6014,0.0,0.0,0.0,0.0,0.0,0.0,0.0,-1.1336,-1.1475,-1.152,-1.1158,-1.096,-1.096,-0.7823,-0.6663,-0.7929,-0.6694,-0.6664,-0.8162,-0.3496,-0.1209,-0.1108,0.1815,0.323,0.323,0.323,0.323,0.323,0.323,0.323,0.323,0.323,0.323,0.323,0.323,0.323,0.323,0.323,0.3212,0.3189,0.3189,0.3168,0.3138,0.3107,0.3097,0.3092,0.3061,0.3148,0.3148,0.3148,0.3148,0.3148,0.3148,0.3148,0.3148,0.3148,0.3148,0.3148,0.3148,0.3148,0.3046,0.3024,0.3037,0.3039,0.2995,0.3006,0.3013,0.2991,0.298,0.2979,0.2987,0.298,0.2987,0.3017,0.302,0.302,0.302,0.3096,0.3142,0.3142,0.3198,0.323,0.323,0.323,0.323,0.323,0.323,0.3245,0.3276,0.3284,0.3305,0.3336,0.3366,0.338,-0.332,-0.4644,-0.5887,-0.5961,-0.6278,-0.6451,-0.5904,-0.5435,-0.4957,-0.441,-0.43,-0.4389,-0.4661,-0.474,-0.492,-0.5407,0.0,0.0,0.0,0.0,0.0,0.0,0.0,0.0,0.0,-1.2254,-1.2487,-1.2368,-1.1768,0.0,-1.1416,-1.1321,-1.1182,-1.0811,-1.0911,-1.1016,-1.1022,-0.6309,-0.3924,-0.3924,0.0907,0.323,0.323,0.323,0.323,0.323,0.323,0.323,0.323,0.323,0.323,0.323,0.323,0.323,0.323,0.323,0.3212,0.3189,0.3189,0.3168,0.3138,0.3107,0.3097,0.3092,0.3061,0.3148,0.3148,0.3148,0.3148,0.3148,0.3148,0.3148,0.3148,0.3148,0.3148,0.3148,0.3148,0.3148,0.3148,0.3052,0.3148,0.3148,0.3051,0.3051,0.3051,0.3146,0.3025,0.3017,0.3047,0.3025,0.3018,0.3048,0.3052,0.3052,0.3052,0.3108,0.3142,0.3142,0.3198,0.323,0.323,0.323,0.323,0.323,0.323,0.3245,0.3276,0.3306,0.3336,0.3367,0.3397,0.3411,-0.3738,-0.4817,-0.5984,-0.5954,-0.595,-0.5835,-0.5414,-0.5112,-0.4802,-0.4385,-0.4433,-0.4616,-0.4705,-0.4817,-0.5158,-0.5874,-0.6241,0.0,0.0,0.0,0.0,0.0,0.0,0.0,0.0,0.0,-1.252,-1.2482,-1.2096,-1.1983,-1.1983,-1.1983,-1.1752,-1.1387,-1.1406,-1.082,-0.9522,-0.7708,-0.6037,-0.4525,-0.1108,0.0504,0.0504,0.232,0.323,0.323,0.323,0.323,0.323,0.323,0.323,0.323,0.323,0.323,0.323,0.323,0.3224,0.3217,0.3217,0.321,0.3198,0.317,0.3145,0.3123,0.3092,0.3069,0.3148,0.3148,0.3148,0.3148,0.3148,0.3148,0.3148,0.3148,0.3148,0.3148,0.3148,0.3148,0.3148,0.3148,0.3148,0.3148,0.3148,0.3148,0.3148,0.3148,0.3044,0.3041,0.3051,0.3044,0.3041,0.3051,0.3148,0.3148,0.3148,0.3089,0.312,0.3141,0.316,0.318,0.3201,0.3201,0.3201,0.3201,0.322,0.3255,0.3307,0.3317,0.3347,0.3397,0.3407,0.3412,-0.4024,-0.4936,-0.5782,-0.5818,-0.5592,-0.5362,-0.5124,-0.4892,-0.4655,-0.4497,-0.4572,-0.475,-0.4928,-0.512,-0.5467,-0.6052,-0.6515,0.0,0.0,0.0,0.0,0.0,0.0,0.0,0.0,-1.2493,-1.258,-1.2536,-1.2352,-1.2221,-1.2172,-1.2172,-1.2153,-1.1935,-1.2008,-1.1407,-1.0213,-0.9009,-0.7744,-0.6336,-0.3621,-0.2214,-0.1913,0.0605,0.1815,0.2018,0.2826,0.323,0.0,0.323,0.323,0.323,0.323,0.323,0.323,0.323,0.323,0.323,0.323,0.323,0.3225,0.3197,0.3168,0.314,0.312,0.3085,0.3148,0.3148,0.3148,0.3148,0.3148,0.3148,0.3148,0.3148,0.3148,0.3148,0.3148,0.3148,0.3148,0.3148,0.3148,0.3148,0.3148,0.3148,0.3148,0.3148,0.3148,0.3148,0.3148,0.3148,0.3148,0.3148,0.3148,0.3148,0.3148,0.308,0.3106,0.3125,0.3137,0.3156,0.3187,0.3189,0.3193,0.3204,0.3221,0.3254,0.3303,0.3326,0.3363,0.3412,0.3412,0.3412,0.0,-0.4858,-0.5451,-0.5471,-0.531,-0.5087,-0.4965,-0.4786,0.0,-0.4701,-0.4705,-0.4893,-0.537,-0.5619,-0.5826,-0.6149,-0.6681,0.0,0.0,0.0,0.0,0.0,-1.1438,0.0,-1.2015,-1.2439,-1.2661,-1.2553,-1.2428,-1.2303,-1.2188,-1.2178,-1.2281,-1.2515,-1.2531,-1.2596,-1.2716,-1.0414,-0.9151,-0.9151,-0.6433,-0.4829,-0.4226,-0.2113,-0.0805,0.0,0.1815,0.2725,0.2927,0.2927,0.3028,0.323,0.323,0.323,0.323,0.323,0.323,0.323,0.323,0.323,0.3225,0.3197,0.317,0.3145,0.3144,0.3103,0.3058,0.3056,0.3055,0.3055,0.3052,0.3148,0.3148,0.3148,0.3148,0.3148,0.3148,0.3148,0.3148,0.3148,0.3148,0.3148,0.3148,0.3148,0.3148,0.3148,0.3148,0.3148,0.3148,0.3148,0.3052,0.3055,0.3054,0.3054,0.3058,0.3081,0.3096,0.31,0.3125,0.3155,0.319,0.3189,0.3201,0.323,0.3232,0.3247,0.3276,0.3337,0.3381,0.3408,0.3411,0.3412,-0.4258,0.0,-0.4627,-0.4626,-0.4622,-0.455,0.0,-0.4602,-0.4761,-0.4687,-0.4973,-0.5385,-0.5871,-0.5979,-0.6333,-0.7301,-0.7568,-0.7948,-0.8764,0.0,0.0,-1.1476,-1.2042,-1.2379,-1.2406,-1.2585,-1.2694,-1.2667,-1.2471,-1.2436,-1.2314,-1.2221,-1.2243,-1.239,-1.2487,-1.2634,-1.2841,-1.2269,-1.1979,-1.1979,-0.9252,-0.7844,-0.7644,-0.5028,-0.3822,-0.3621,-0.2717,-0.141,0.0201,0.0605,0.1715,0.323,0.323,0.323,0.323,0.323,0.323,0.323,0.323,0.323,0.3225,0.3197,0.3183,0.3174,0.3149,0.3133,0.3116,0.3093,0.3086,0.3081,0.3058,0.3148,0.3148,0.3148,0.3148,0.3148,0.3148,0.3148,0.3148,0.3148,0.3148,0.3148,0.3148,0.3148,0.3148,0.3148,0.3148,0.3148,0.3148,0.3148,0.3061,0.3084,0.3066,0.3071,0.3118,0.3085,0.3082,0.3129,0.3116,0.3142,0.3217,0.32,0.3201,0.323,0.3253,0.3269,0.3276,0.3337,0.337,0.3378,0.3401,0.3412,-0.423,-0.4369,-0.4496,-0.4487,-0.4491,-0.4542,-0.4627,0.0,0.0,0.0,0.0,0.0,-0.6031,-0.6257,-0.666,0.0,-0.7823,0.0,0.0,0.0,0.0,-1.183,-1.2275,-1.2536,0.0,-1.2689,-1.2765,-1.271,-1.2536,-1.2439,-1.2439,-1.227,-1.2254,-1.2433,-1.2449,-1.2564,-1.2803,-1.2857,-1.289,-1.289,-1.1468,-1.0563,-1.0262,-0.7844,-0.6537,-0.6235,-0.3924,-0.2114,-0.0705,0.0605,0.1918,0.323,0.323,0.323,0.3232,0.3246,0.3242,0.3232,0.3246,0.3242,0.3228,0.3212,0.3208,0.3204,0.3187,0.3183,0.3174,0.313,0.3118,0.3115,0.3099,0.3084,0.3073,0.3073,0.3062,0.3148,0.3148,0.3148,0.3148,0.3148,0.3148,0.3148,0.3148,0.3148,0.3148,0.3148,0.3148,0.3148,0.3148,0.3148,0.3063,0.3095,0.3082,0.3092,0.314,0.3126,0.3129,0.3161,0.3148,0.3167,0.3228,0.3216,0.3215,0.323,0.3246,0.3262,0.3276,0.3322,0.3352,0.3367,0.3397,0.3412,-0.4202,-0.4476,-0.4751,-0.4715,-0.4687,-0.4774,-0.5125,0.0,0.0,0.0,0.0,0.0,0.0,-0.6611,0.0,0.0,0.0,0.0,-1.0313,-1.0976,-1.1493,-1.1938,-1.2297,0.0,-1.2509,-1.2705,-1.2792,-1.2689,-1.2574,-1.2509,-1.2509,-1.2292,-1.2275,-1.2498,-1.2411,-1.246,-1.2678,-1.2797,-1.2868,-1.289,-1.289,-1.269,-1.2184,-1.0362,-0.9256,-0.8654,-0.4829,-0.2717,-0.1912,0.0403,0.1817,0.2623,0.2927,0.313,0.3234,0.326,0.3253,0.3234,0.3265,0.3255,0.3231,0.3236,0.3234,0.323,0.323,0.323,0.322,0.317,0.3153,0.3149,0.3144,0.312,0.3097,0.3097,0.3074,0.3148,0.3148,0.3148,0.3148,0.3148,0.3148,0.3148,0.3148,0.3148,0.3148,0.3148,0.3148,0.3055,0.3065,0.3066,0.3081,0.312,0.312,0.3131,0.3167,0.3185,0.3198,0.3208,0.32,0.3205,0.323,0.3235,0.3235,0.323,0.323,0.3245,0.3276,0.3306,0.3337,0.3367,0.3397,0.3412,-0.4287,-0.4895,-0.5346,-0.4905,-0.498,-0.5232,-0.5454,0.0,0.0,0.0,0.0,0.0,0.0,-0.7147,-0.7535,0.0,0.0,-1.0155,0.0,0.0,-1.1683,-1.1955,0.0,-1.2384,-1.2384,-1.2509,-1.258,-1.2564,-1.2449,-1.2384,-1.2384,-1.2248,-1.2237,-1.2379,-1.2362,-1.2422,-1.2558,-1.2672,-1.2786,-1.289,-1.289,-1.289,-1.279,-1.2484,-1.2279,-1.2079,-1.0972,-0.9456,-0.744,-0.4831,-0.2316,0.0,0.1817,0.2827,0.3231,0.3235,0.3234,0.3234,0.3265,0.3255,0.3234,0.326,0.3251,0.323,0.323,0.323,0.3228,0.3219,0.32,0.3175,0.3149,0.312,0.3097,0.3097,0.3074,0.3148,0.3148,0.3148,0.3148,0.3148,0.3148,0.3148,0.3148,0.3148,0.3148,0.3148,0.3148,0.307,0.3122,0.3129,0.316,0.3239,0.3225,0.3232,0.3288,0.3251,0.3246,0.3298,0.3253,0.3225,0.323,0.3255,0.3257,0.3231,0.323,0.3245,0.3276,0.3306,0.3337,0.3367,0.3397,0.3412,-0.4342,-0.4842,-0.538,-0.5566,-0.5836,-0.6155,-0.6379,-0.6547,0.0,0.0,0.0,0.0,0.0,0.0,-0.8253,-0.928,0.0,-1.0606,-1.121,-1.1493,-1.1748,0.0,0.0,-1.2357,-1.2357,-1.2466,-1.2536,-1.2536,-1.2422,-1.2384,-1.2449,-1.2275,-1.2227,-1.2447,-1.2292,-1.2314,-1.2439,-1.2487,-1.2607,-1.2786,-1.2857,-1.289,-1.289,-1.289,-1.289,-1.279,-1.1373,-1.0062,-0.8747,-0.6238,-0.3622,-0.1108,-0.0101,0.111,0.2324,0.2336,0.2347,0.2358,0.2368,0.2365,0.2358,0.2369,0.2365,0.2355,0.2649,0.2746,0.2844,0.3134,0.3221,0.3208,0.3194,0.3168,0.315,0.3165,0.3146,0.313,0.3145,0.3137,0.312,0.3104,0.3088,0.3071,0.3055,0.3066,0.3077,0.3077,0.3104,0.3135,0.3164,0.318,0.3212,0.3269,0.3249,0.3249,0.3292,0.327,0.3266,0.3295,0.327,0.3254,0.3254,0.3253,0.3245,0.3231,0.3246,0.3262,0.3276,0.3322,0.3248,0.2945,0.3291,0.3091,-0.4431,-0.4888,-0.5431,-0.6149,0.0,-0.6704,-0.7285,-0.73,0.0,0.0,0.0,0.0,0.0,-0.8263,0.0,-0.9949,-1.0433,-1.0884,-1.146,-1.1618,-1.1803,-1.2134,-1.2254,-1.2314,-1.2314,-1.2395,-1.2449,-1.2449,-1.2362,-1.2352,-1.2444,-1.2275,-1.2216,-1.2308,-1.2221,-1.2216,-1.2308,-1.2341,-1.2471,-1.2705,-1.2803,-1.2857,-1.289,-1.289,-1.289,-1.279,-1.1173,-1.0262,-0.9657,-0.7443,-0.5231,-0.322,-0.2215,-0.0404,0.1623,0.1635,0.1648,0.1661,0.1664,0.1663,0.1556,0.166,0.1658,0.1653,0.2046,0.2245,0.2343,0.2833,0.3029,0.3029,0.3129,0.3209,0.3194,0.3215,0.3198,0.3186,0.3215,0.3204,0.3183,0.3167,0.314,0.3111,0.3088,0.3097,0.3111,0.3118,0.3159,0.3195,0.3216,0.3232,0.3255,0.3292,0.3269,0.3258,0.3275,0.3276,0.3272,0.3265,0.3272,0.3272,0.3265,0.3242,0.3234,0.324,0.3264,0.3283,0.3296,0.324,0.2949,0.2533,0.2869,0.2558,-0.4701,-0.5298,-0.593,-0.6287,-0.6322,-0.655,-0.7762,-0.7845,0.0,-0.853,0.0,0.0,0.0,-0.9003,-0.9617,-1.0259,-1.0753,-1.1237,-1.1721,0.0,-1.1895,-1.214,-1.2178,-1.2183,-1.2183,-1.2194,-1.2199,-1.2199,-1.2188,-1.2188,-1.2194,-1.2183,-1.2178,-1.2183,-1.2178,-1.2178,-1.2183,-1.2297,-1.2471,-1.2705,-1.2716,-1.2776,-1.289,-1.289,-1.289,-1.289,-1.2784,-1.2684,-1.2484,-1.0262,-0.8951,-0.7945,-0.3927,-0.071,0.1638,0.1639,0.1648,0.1662,0.1676,0.1672,0.166,0.166,0.1651,0.1638,0.1623,0.1618,0.1719,0.2324,0.2424,0.2525,0.3029,0.3209,0.3189,0.3191,0.3168,0.3155,0.3185,0.319,0.3195,0.3219,0.3201,0.318,0.3179,0.3157,0.3149,0.3178,0.3186,0.3217,0.33,0.3288,0.3295,0.3354,0.3332,0.3303,0.3277,0.3276,0.3264,0.3235,0.326,0.3264,0.3235,0.3231,0.3243,0.3272,0.3275,0.3303,0.336,0.2838,0.2535,0.2556,0.2025,0.1812,-0.4995,-0.5547,-0.6112,-0.6542,-0.6717,0.0,0.0,-0.8383,-0.8638,-0.9209,-0.9351,0.0,0.0,0.0,-0.9965,-1.0416,-1.0835,-1.127,-1.1754,-1.1819,-1.1906,-1.2145,-1.2172,-1.2172,-1.2172,-1.2172,-1.2172,-1.2172,-1.2172,-1.2172,-1.2172,-1.2172,-1.2172,-1.2172,-1.2172,-1.2172,-1.2172,-1.2216,-1.2324,-1.2487,-1.2634,-1.277,-1.289,-1.289,-1.289,-1.289,-1.289,-1.289,-1.2884,-1.1979,-1.0767,-0.9055,-0.604,-0.3446,-0.1433,-0.1338,-0.0519,0.0629,0.0634,0.0635,0.0633,0.0629,0.0627,0.0623,0.1023,0.1121,0.1222,0.172,0.1919,0.2121,0.2928,0.3223,0.3219,0.3238,0.3234,0.3234,0.3264,0.327,0.3268,0.326,0.325,0.3236,0.3217,0.322,0.323,0.324,0.3275,0.3305,0.332,0.3328,0.3333,0.3337,0.3311,0.328,0.325,0.3247,0.3242,0.3231,0.324,0.3242,0.3231,0.3249,0.3264,0.3276,0.3002,0.2821,0.284,0.2326,0.1806,0.1492,0.1598,0.1279,-0.5216,-0.5631,-0.6159,-0.6719,0.0,0.0,-0.8378,-0.8747,-0.9084,-0.9758,-0.9894,-0.9883,-0.9845,0.0,0.0,0.0,-1.0916,-1.1297,-1.1705,-1.1797,-1.1895,-1.2091,-1.2145,-1.2172,-1.2172,-1.2172,-1.2172,-1.2172,-1.2172,-1.2172,-1.2172,-1.2172,-1.2172,-1.2172,-1.2172,-1.2172,-1.2172,-1.2172,-1.2232,-1.2357,-1.2515,-1.2678,-1.283,-1.2868,-1.289,-1.289,-1.289,-1.289,-1.289,-1.289,-1.1673,-0.956,-0.8048,-0.5671,-0.3174,-0.32,-0.1877,0.0,0.0,0.0,0.0,0.0,0.0,0.0104,0.041,0.051,0.0611,0.1214,0.1313,0.1515,0.2423,0.2827,0.2933,0.3053,0.3159,0.3269,0.33,0.3314,0.3317,0.3306,0.3305,0.3298,0.3277,0.3283,0.3294,0.3303,0.3332,0.3348,0.3337,0.3337,0.3326,0.3295,0.3273,0.3253,0.3232,0.323,0.323,0.323,0.3239,0.3245,0.3245,0.3069,0.3088,0.3098,0.2508,0.2212,0.2218,0.17,0.1279,0.0853,0.1066,0.0746,-0.5419,-0.5636,-0.6083,0.0,0.0,0.0,-0.8642,-0.8861,-0.9084,-1.0166,-1.0193,-1.0063,-1.0182,-1.021,0.0,-1.0683,-1.1036,-1.1357,-1.1601,-1.1743,-1.1862,-1.1976,-1.2096,-1.2172,-1.2172,-1.2172,-1.2172,-1.2172,-1.2172,-1.2172,-1.2172,-1.2172,-1.2172,-1.2172,-1.2172,-1.2172,-1.2172,-1.2172,-1.2232,-1.2352,-1.2357,-1.2477,-1.271,-1.283,-1.2884,-1.289,-1.289,-1.289,-1.289,-1.289,-1.1673,-0.9761,-0.9761,-0.7086,-0.3275,-0.32,-0.1877,0.0,0.0,0.0,0.0,0.0,0.0,0.0,0.0,0.0,0.0101,0.0606,0.0808,0.0909,0.1414,0.202,0.2424,0.2424,0.2827,0.3239,0.3269,0.3299,0.333,0.336,0.3366,0.3367,0.3367,0.3341,0.3332,0.3362,0.3341,0.3332,0.3362,0.3313,0.3264,0.3234,0.323,0.323,0.323,0.323,0.323,0.3231,0.326,0.3276,0.3276,0.2788,0.2501,0.2524,0.1999,0.169,0.1705,0.1172,0.0853,0.0853,0.032,0.0,-0.5597,-0.6079,0.0,-0.7062,0.0,0.0,0.0,-0.9247,0.0,0.0,-1.0509,-1.0405,-1.0443,-1.052,0.0,-1.0835,-1.1096,-1.1357,-1.1601,-1.1667,-1.1764,-1.1966,-1.202,-1.208,-1.2161,-1.2172,-1.2172,-1.2172,-1.2172,-1.2172,-1.2172,-1.2172,-1.2172,-1.2172,-1.2172,-1.2172,-1.2172,-1.2172,-1.2188,-1.2227,-1.2314,-1.2477,-1.2705,-1.2743,-1.2808,-1.289,-1.289,-1.289,-1.289,-1.289,-1.2484,-1.1979,-1.1979,-1.0222,-0.7559,-0.5982,-0.4062,-0.1999,-0.0531,0.0,0.0,0.0,0.0,0.0,0.0,0.0,0.0,0.0202,0.0202,0.0303,0.0404,0.0909,0.1515,0.2222,0.2525,0.2729,0.3141,0.3284,0.3324,0.3333,0.3369,0.3399,0.3399,0.339,0.3381,0.3369,0.3359,0.334,0.3307,0.3268,0.324,0.3231,0.323,0.323,0.323,0.323,0.3239,0.3261,0.3291,0.3092,0.2662,0.2598,0.2308,0.1893,0.1375,0.1169,0.1172,0.0533,0.032,0.0213,0.0107,0.0,-0.5923,-0.6437,0.0,-0.7464,-0.8127,-0.8829,-0.9481,0.0,0.0,0.0,0.0,-1.0585,-1.0683,-1.0759,0.0,-1.1031,-1.1221,-1.1395,-1.1542,-1.1607,-1.1688,-1.183,-1.1933,-1.202,-1.2091,-1.2145,-1.2172,-1.2172,-1.2172,-1.2172,-1.2172,-1.2172,-1.2172,-1.2172,-1.2172,-1.2172,-1.2172,-1.2172,-1.2172,-1.2172,-1.2248,-1.2379,-1.2569,-1.2661,-1.2743,-1.2819,-1.2868,-1.289,-1.289,-1.289,-1.289,-1.289,-1.289,-1.1642,-0.9604,-0.8249,-0.6452,-0.4308,-0.2123,-0.1384,-0.1169,-0.0315,0.0,0.0,0.0,0.0,0.0,0.0,0.0,0.0,0.0,0.0202,0.0707,0.1515,0.2121,0.2525,0.2827,0.3065,0.3303,0.3303,0.3343,0.3375,0.3375,0.3375,0.337,0.3351,0.3339,0.3313,0.3264,0.3242,0.323,0.323,0.323,0.323,0.323,0.3029,0.2939,0.2966,0.2787,0.2384,0.1759,0.1994,0.1904,0.1374,0.085,0.0533,0.0533,0.0213,0.0,0.0,0.0,0.0,-0.6257,0.0,0.0,0.0,-0.8557,0.0,-1.0139,-1.0378,-1.0454,-1.0688,0.0,-1.0645,-1.0878,-1.0927,-1.1009,-1.1237,-1.1373,-1.1543,-1.1543,-1.1547,-1.1623,-1.1634,-1.1824,-1.1966,-1.1987,-1.2091,-1.2161,-1.2172,-1.2172,-1.2172,-1.2172,-1.2172,-1.2172,-1.2172,-1.2172,-1.2172,-1.2172,-1.2172,-1.2172,-1.2172,-1.2172,-1.2227,-1.2346,-1.2569,-1.2683,-1.271,-1.2835,-1.289,-1.289,-1.289,-1.289,-1.289,-1.289,-1.1737,-1.01,-0.9885,-0.8625,-0.6714,-0.4236,-0.3403,-0.2975,-0.0738,0.0,0.0,0.0,0.0,0.0,0.0,0.0,0.0,0.0,0.0,0.0101,0.0606,0.1515,0.2222,0.2323,0.2747,0.3174,0.3174,0.3197,0.3217,0.3321,0.3217,0.3216,0.3317,0.3291,0.3262,0.3234,0.313,0.313,0.313,0.313,0.3029,0.3029,0.2629,0.2335,0.2356,0.1964,0.146,0.0842,0.138,0.1385,0.0853,0.032,0.0,0.0,0.0,0.0,0.0,0.0,0.0,0.0,-0.6774,0.0,0.0,0.0,0.0,-1.0128,-1.0318,-1.0454,-1.0688,-1.0715,-1.0742,-1.0889,-1.0998,-1.1112,-1.1248,-1.1373,-1.1543,-1.1543,-1.1476,-1.1531,-1.1623,-1.1683,-1.1786,-1.1971,-1.2015,-1.2069,-1.2167,-1.2172,-1.2172,-1.2172,-1.2172,-1.2172,-1.2172,-1.2172,-1.2172,-1.2172,-1.2172,-1.2172,-1.2172,-1.2172,-1.2183,-1.2216,-1.2362,-1.2531,-1.271,-1.2835,-1.289,-1.289,-1.289,-1.289,-1.289,-1.289,-1.26,-1.2029,-1.0304,-0.9471,-0.8621,-0.4616,-0.3279,-0.2973,-0.0733,0.0,0.0,0.0,0.0,0.0,0.0,0.0,0.0,0.0,0.0,0.0,0.0101,0.0707,0.1212,0.1717,0.1933,0.215,0.2558,0.2371,0.2282,0.3113,0.2906,0.2795,0.3185,0.326,0.3238,0.3231,0.2827,0.2525,0.2525,0.2222,0.1919,0.1919,0.1831,0.1845,0.1861,0.1774,0.1474,0.085,0.0958,0.0746,0.0213,0.0107,0.0,0.0,0.0,0.0,0.0,0.0,0.0,0.0,0.0,0.0,0.0,0.0,0.0,0.0,0.0,-1.0367,-1.0601,-1.0699,-1.0775,-1.0895,-1.0971,-1.1074,-1.1243,-1.1324,-1.1389,-1.1449,-1.1543,-1.1476,-1.1542,-1.1601,-1.1683,-1.1808,-1.1922,-1.2015,-1.208,-1.214,-1.2172,-1.2172,-1.2172,-1.2172,-1.2172,-1.2172,-1.2172,-1.2172,-1.2172,-1.2172,-1.2172,-1.2172,-1.2172,-1.2178,-1.2297,-1.2482,-1.271,-1.277,-1.2835,-1.289,-1.289,-1.289,-1.289,-1.289,-1.2955,-1.285,-1.1735,-1.1456,-1.1109,-0.7653,-0.6542,-0.615,-0.2724,-0.167,-0.1457,-0.0307,0.0,0.0,0.0,0.0,0.0,0.0,0.0,0.0,0.0,0.0404,0.0909,0.1111,0.142,0.173,0.2034,0.1838,0.1844,0.2357,0.2254,0.2148,0.2443,0.2432,0.2423,0.2423,0.2222,0.202,0.202,0.1717,0.1619,0.1627,0.1328,0.1236,0.1252,0.1049,0.0739,0.0533,0.0426,0.032,0.0,0.0,0.0,0.0,0.0,0.0,0.0,0.0,0.0,0.0,0.0,0.0,0.0,0.0,0.0,0.0,0.0,0.0,-1.0454,-1.0606,-1.0742,-1.0862,-1.0905,-1.0982,-1.1177,-1.1243,-1.1308,-1.1411,-1.1533,-1.1543,-1.1543,-1.1542,-1.1612,-1.1634,-1.1813,-1.1944,-1.1987,-1.2085,-1.215,-1.2172,-1.2172,-1.2172,-1.2172,-1.2172,-1.2172,-1.2172,-1.2172,-1.2172,-1.2172,-1.2172,-1.2172,-1.2172,-1.2275,-1.2439,-1.2645,-1.2689,-1.2765,-1.2857,-1.2879,-1.289,-1.289,-1.289,-1.302,-1.3194,-1.308,-1.3265,-1.3237,-1.0809,-1.011,-0.9436,-0.4832,-0.3439,-0.2999,-0.0717,0.0,0.0,0.0,0.0,0.0,0.0,0.0,0.0,0.0,0.0303,0.0707,0.0707,0.101,0.1313,0.1414,0.1515,0.1616,0.1515,0.1515,0.1616,0.1616,0.1616,0.1616,0.1616,0.1515,0.1414,0.1414,0.1416,0.1321,0.1331,0.0925,0.0622,0.063,0.0211,0.0,0.0,0.0,0.0,0.0,0.0,0.0,0.0,0.0,0.0,0.0,0.0,0.0,0.0,0.0,0.0,0.0,0.0,0.0,0.0,0.0,0.0,0.0,-1.0427,-1.0617,-1.0737,-1.0846,-1.0927,-1.096,-1.1139,-1.1275,-1.1297,-1.1389,-1.1543,-1.1543,-1.1471,-1.152,-1.1629,-1.1667,-1.177,-1.1971,-1.2004,-1.2058,-1.2167,-1.2172,-1.2172,-1.2172,-1.2172,-1.2172,-1.2172,-1.2172,-1.2172,-1.2172,-1.2172,-1.2172,-1.2172,-1.2188,-1.227,-1.2411,-1.2618,-1.2716,-1.2738,-1.2846,-1.289,-1.289,-1.289,-1.2971,-1.308,-1.2955,-1.314,-1.3115,-1.0708,-0.9952,-0.9428,-0.49,-0.342,-0.2995,-0.0712,0.0,0.0,0.0,0.0,0.0,0.0,0.0,0.0,0.0,0.0101,0.0101,0.0101,0.0202,0.0303,0.0808,0.1313,0.1414,0.101,0.1313,0.1616,0.1616,0.1616,0.1616,0.1616,0.1212,0.0909,0.0909,0.0509,0.0205,0.0205,0.0104,0.0105,0.0105,0.0,0.0,0.0,0.0,0.0,0.0,0.0,0.0,0.0,0.0,0.0,0.0,0.0,0.0,0.0,0.0,0.0,0.0,0.0,0.0,0.0,0.0,0.0,0.0,-1.0713,-1.074,-1.0683,-1.0732,-1.084,-1.0911,-1.1009,-1.1101,-1.1166,-1.1281,-1.1351,-1.1351,-1.1411,-1.1476,-1.1531,-1.1596,-1.1677,-1.1781,-1.1911,-1.2015,-1.2063,-1.2134,-1.2172,-1.2172,-1.2172,-1.2172,-1.2172,-1.2172,-1.2172,-1.2172,-1.2172,-1.2172,-1.2172,-1.2172,-1.2237,-1.2362,-1.2536,-1.2645,-1.2716,-1.2835,-1.289,-1.289,-1.289,-1.296,-1.3053,-1.2933,-1.3069,-1.3091,-1.2052,-1.17,-1.1172,-0.6703,-0.5239,-0.4509,-0.1013,0.0,0.0,0.0,0.0,0.0,0.0,0.0,0.0,0.0,0.0,0.0,0.0,0.0,0.0101,0.0303,0.0505,0.0606,0.0404,0.0505,0.0707,0.0707,0.0707,0.0707,0.0707,0.0505,0.0303,0.0303,0.0102,0.0,0.0,0.0,0.0,0.0,0.0,0.0,0.0,0.0,0.0,0.0,0.0,0.0,0.0,0.0,0.0,0.0,0.0,0.0,0.0,0.0,0.0,0.0,0.0,0.0,0.0,0.0,0.0,0.0,-1.1005,-1.0855,-1.0832,-1.0837,-1.0898,-1.102,-1.0985,-1.0954,-1.1041,-1.1156,-1.1237,-1.127,-1.1351,-1.1422,-1.1543,-1.1536,-1.1601,-1.1634,-1.1797,-1.1911,-1.1944,-1.2058,-1.2123,-1.2123,-1.2156,-1.2172,-1.2172,-1.2172,-1.2172,-1.2172,-1.2172,-1.2172,-1.2172,-1.2172,-1.2221,-1.2314,-1.2439,-1.2558,-1.2672,-1.2792,-1.2857,-1.289,-1.289,-1.296,-1.3053,-1.2933,-1.3037,-1.3221,-1.3107,-1.3145,-1.26,-0.8698,-0.7041,-0.591,-0.2023,-0.0404,0.0,0.0,0.0,0.0,0.0,0.0,0.0,0.0,0.0,0.0,0.0,0.0,0.0,0.0,0.0,0.0,0.0,0.0,0.0,0.0,0.0,0.0,0.0,0.0,0.0,0.0,0.0,0.0,0.0,0.0,0.0,0.0,0.0,0.0,0.0,0.0,0.0,0.0,0.0,0.0,0.0,0.0,0.0,0.0,0.0,0.0,0.0,0.0,0.0,0.0,0.0,0.0,0.0,0.0,0.0,0.0,0.0,-1.1239,-1.13,-1.1293,-1.1177,-1.1309,-1.1098,-1.0922,-1.0927,-1.1036,-1.115,-1.1259,-1.1275,-1.133,-1.1533,-1.146,-1.1514,-1.1629,-1.1645,-1.1705,-1.1824,-1.1938,-1.1998,-1.1998,-1.2112,-1.2172,-1.2172,-1.2172,-1.2172,-1.2172,-1.2172,-1.2172,-1.2172,-1.2172,-1.2172,-1.2188,-1.2308,-1.2433,-1.2553,-1.2667,-1.2781,-1.289,-1.289,-1.296,-1.3053,-1.2933,-1.3037,-1.3221,-1.3107,-1.3145,-1.2806,-1.044,-0.8266,-0.6114,-0.374,-0.1614,0.0,0.0,0.0,0.0,0.0,0.0,0.0,0.0,0.0,0.0,0.0,0.0,0.0,0.0,0.0,0.0,0.0,0.0,0.0,0.0,0.0,0.0,0.0,0.0,0.0,0.0,0.0,0.0,0.0,0.0,0.0,0.0,0.0,0.0,0.0,0.0,0.0,0.0,0.0,0.0,0.0,0.0,0.0,0.0,0.0,0.0,0.0,0.0,0.0,0.0,0.0,0.0,0.0,0.0,0.0,0.0,0.0,-1.1638,-1.2011,-1.1714,-1.1457,-1.1259,-1.1151,-1.1048,-1.0791,-1.0911,-1.0998,-1.1041,-1.1183,-1.1291,-1.1335,-1.1411,-1.1471,-1.1514,-1.159,-1.1656,-1.1699,-1.1813,-1.1911,-1.1987,-1.2031,-1.2091,-1.2172,-1.2172,-1.2172,-1.2172,-1.2172,-1.2172,-1.2172,-1.2172,-1.2172,-1.2172,-1.2216,-1.2308,-1.2433,-1.2629,-1.2732,-1.2776,-1.2857,-1.2917,-1.295,-1.2906,-1.2939,-1.3009,-1.2966,-1.2977,-1.2701,-1.0428,-0.8291,-0.6065,-0.3833,-0.1715,0.0,0.0,0.0,0.0,0.0,0.0,0.0,0.0,0.0,0.0,0.0,0.0,0.0,0.0,0.0,0.0,0.0,0.0,0.0,0.0,0.0,0.0,0.0,0.0,0.0,0.0,0.0,0.0,0.0,0.0,0.0,0.0,0.0,0.0,0.0,0.0,0.0,0.0,0.0,0.0,0.0,0.0,0.0,0.0,0.0,0.0,-0.531,0.0,0.0,0.0,0.0,0.0,0.0,0.0,0.0,0.0,0.0,0.0,-1.2242,-1.2096,-1.1782,-1.1601,-1.151,-1.1318,-1.0915,-1.0948,-1.1042,-1.0916,-1.1058,-1.1172,-1.121,-1.1324,-1.1395,-1.1395,-1.1509,0.0,-1.1574,-1.1694,-1.183,-1.1982,-1.1949,-1.1987,-1.2107,-1.2107,-1.2107,-1.2112,-1.215,-1.2172,-1.2172,-1.2172,-1.2172,-1.2172,-1.2172,-1.2243,-1.2368,-1.2569,-1.2672,-1.2716,-1.2841,-1.289,-1.289,-1.289,-1.289,-1.289,-1.289,-1.289,-1.2684,-1.1273,-0.8754,-0.6137,-0.4734,-0.232,0.0,0.0,0.0,0.0,0.0,0.0,0.0,0.0,0.0,0.0,0.0,0.0,0.0,0.0,0.0,0.0,0.0,0.0,0.0,0.0,0.0,0.0,0.0,0.0,0.0,0.0,0.0,0.0,0.0,0.0,0.0,0.0,0.0,0.0,0.0,0.0,0.0,0.0,0.0,0.0,0.0,0.0,0.0,0.0,0.0,0.0,0.0,0.0,0.0,0.0,0.0,0.0,0.0,0.0,0.0,0.0,0.0,0.0,-1.1986,-1.2169,-1.2266,-1.2297,-1.2,-1.1691,-1.1283,-1.1317,-1.1277,-1.0979,-1.0916,-1.0965,-1.1085,-1.1199,-1.1357,-1.1357,-1.1472,-1.1538,-1.1543,-1.1569,-1.1743,-1.1971,-1.1879,-1.1879,-1.1987,-1.1993,-1.1993,-1.1993,-1.2112,-1.2172,-1.2172,-1.2172,-1.2172,-1.2172,-1.2172,-1.2237,-1.2357,-1.2482,-1.2602,-1.271,-1.2841,-1.289,-1.289,-1.289,-1.289,-1.289,-1.289,-1.289,-1.289,-1.289,-0.9961,-0.6439,-0.6439,-0.3426,0.0,0.0,0.0,0.0,0.0,0.0,0.0,0.0,0.0,0.0,0.0,0.0,0.0,0.0,0.0,0.0,0.0,0.0,0.0,0.0,0.0,0.0,0.0,0.0,0.0,0.0,0.0,0.0,0.0,0.0,0.0,0.0,0.0,0.0,0.0,0.0,0.0,0.0,0.0,0.0,0.0,0.0,0.0,0.0,0.0,0.0,-0.5386,0.0,0.0,0.0,0.0,0.0,0.0,0.0,0.0,0.0,0.0,0.0,0.0,-1.1782,-1.1925,-1.1971,-1.1998,-1.185,-1.1547,-1.1592,-1.1688,-1.1558,-1.1484,-1.1526,-1.1901,-1.1767,-1.1877,0.0,-1.2354,-1.2243,-1.1982,-1.1748,-1.1667,-1.1732,-1.1868,-1.1955,-1.1987,-1.208,-1.2123,-1.2123,-1.2156,-1.2172,-1.2172,-1.2172,-1.2172,-1.2172,-1.2172,-1.2188,-1.2237,-1.2449,-1.2553,-1.2602,-1.2808,-1.289,-1.289,-1.289,-1.289,-1.289,-1.289,-1.289,-1.289,-1.289,-0.9961,-0.6439,-0.6439,-0.3426,0.0,0.0,0.0,0.0,0.0,0.0,0.0,0.0,0.0,0.0,0.0,0.0,0.0,0.0,0.0,0.0,0.0,0.0,0.0,0.0,0.0,0.0,0.0,0.0,0.0,0.0,0.0,0.0,0.0,0.0,0.0,0.0,0.0,0.0,0.0,0.0,0.0,0.0,0.0,0.0,0.0,0.0,0.0,0.0,0.0,0.0,0.0,0.0,0.0,0.0,0.0,0.0,0.0,-0.8024,0.0,0.0,0.0,0.0,0.0,0.0,0.0,-1.164,-1.1823,-1.1908,-1.17,-1.1906,-1.1944,-1.17,-1.1723,-1.1766,-1.2016,-1.2023,-1.2081,-1.2496,-1.2606,-1.2647,-1.2514,-1.224,-1.2214,-1.2176,-1.2085,-1.2088,-1.2189,-1.208,-1.2047,-1.2096,-1.2145,-1.2172,-1.2172,-1.2172,-1.2172,-1.2172,-1.2172,-1.2172,-1.2188,-1.2379,-1.2487,-1.2558,-1.2797,-1.289,-1.289,-1.289,-1.289,-1.289,-1.289,-1.289,-1.289,-1.289,-1.0567,-0.7647,-0.664,-0.403,-0.111,-0.0202,0.0,0.0,0.0,0.0,0.0,0.0,0.0,0.0,0.0,0.0,0.0,0.0,0.0,0.0,0.0,0.0,0.0,0.0,0.0,0.0,0.0,0.0,0.0,0.0,0.0,0.0,0.0,0.0,0.0,0.0,0.0,0.0,0.0,0.0,0.0,0.0,0.0,0.0,0.0,0.0,0.0,0.0,0.0,0.0,0.0,0.0,0.0,0.0,0.0,0.0,-0.8031,-0.8011,-0.8079,0.0,0.0,0.0,0.0,0.0,0.0,0.0,-1.1477,-1.1757,-1.1869,-1.2095,-1.2195,-1.1807,-1.1763,-1.1843,-1.1924,-1.2158,-1.2234,-1.2336,-1.2582,-1.2798,-1.2933,-1.2945,-1.2918,-1.3059,-1.2508,-1.2298,-1.2535,-1.2008,-1.1895,-1.2009,-1.2118,-1.2172,-1.2172,-1.2172,-1.2172,-1.2172,-1.2172,-1.2172,-1.2183,-1.2303,-1.2428,-1.2558,-1.2781,-1.2873,-1.289,-1.289,-1.289,-1.289,-1.289,-1.289,-1.289,-1.289,-1.1473,-0.9256,-0.7044,-0.4936,-0.2723,-0.0606,0.0,0.0,0.0,0.0,0.0,0.0,0.0,0.0,0.0,0.0,0.0,0.0,0.0,0.0,0.0,0.0,0.0,0.0,0.0,0.0,0.0,0.0,0.0,0.0,0.0,0.0,0.0,0.0,0.0,0.0,0.0,0.0,0.0,0.0,0.0,0.0,0.0,0.0,0.0,0.0,0.0,0.0,0.0,0.0,0.0,0.0,0.0,0.0,-0.7415,0.0,-0.7156,-0.7258,-0.759,0.0,0.0,0.0,0.0,0.0,0.0,0.0,0.0,-1.1332,-1.2065,-1.2326,-1.2481,-1.2443,-1.2349,-1.2353,-1.2762,-1.2589,-1.2649,-1.3098,-1.3121,-1.3083,-1.3316,-1.2973,-1.2771,-1.2912,-1.255,-1.2391,-1.2535,-1.2183,-1.2015,-1.2134,-1.2161,-1.2172,-1.2172,-1.2172,-1.2172,-1.2172,-1.2172,-1.2172,-1.2183,-1.2303,-1.2428,-1.2547,-1.2689,-1.2803,-1.289,-1.289,-1.289,-1.289,-1.289,-1.289,-1.289,-1.289,-1.1473,-0.9256,-0.7044,-0.4936,-0.2723,-0.0606,0.0,0.0,0.0,0.0,0.0,0.0,0.0,0.0,0.0,0.0,0.0,0.0,0.0,0.0,0.0,0.0,0.0,0.0,0.0,0.0,0.0,0.0,0.0,0.0,0.0,0.0,0.0,0.0,0.0,0.0,0.0,0.0,0.0,0.0,0.0,0.0,0.0,0.0,0.0,0.0,0.0,0.0,0.0,0.0,0.0,0.0,0.0,-0.8014,-0.7868,0.0,0.0,-0.7428,-0.7543,0.0,0.0,0.0,0.0,0.0,0.0,0.0,0.0,-1.0772,-1.1226,-1.1864,-1.2311,-1.2386,-1.2373,-1.2416,-1.2725,-1.2622,-1.2835,-1.3376,-1.3288,-1.3409,-1.3707,-1.3546,-1.3436,-1.3584,-1.321,-1.2891,-1.2809,-1.242,-1.2266,-1.2172,-1.2172,-1.2172,-1.2172,-1.2172,-1.2172,-1.2172,-1.2172,-1.2172,-1.2178,-1.2237,-1.2335,-1.246,-1.264,-1.2781,-1.289,-1.289,-1.289,-1.289,-1.289,-1.289,-1.289,-1.289,-1.2179,-1.0667,-0.7346,-0.413,-0.1413,-0.0303,0.0,0.0,0.0,0.0,0.0,0.0,0.0,0.0,0.0,0.0,0.0,0.0,0.0,0.0,0.0,0.0,0.0,0.0,0.0,0.0,0.0,0.0,0.0,0.0,0.0,0.0,0.0,0.0,0.0,0.0,0.0,0.0,0.0,0.0,0.0,0.0,0.0,0.0,0.0,0.0,0.0,0.0,0.0,0.0,0.0,0.0,0.0,-0.9279,-0.8874,-0.8542,0.0,0.0,0.0,0.0,0.0,0.0,0.0,0.0,0.0,0.0,0.0,0.0,0.0,-1.0934,0.0,-1.1748,-1.1999,-1.2196,-1.2277,-1.24,-1.2698,-1.3234,-1.3193,-1.3376,-1.3912,-1.3994,-1.4095,-1.4251,-1.3843,-1.3439,-1.3139,-1.2712,-1.2379,-1.2134,-1.2161,-1.2172,-1.2172,-1.2172,-1.2172,-1.2172,-1.2172,-1.2172,-1.2172,-1.2172,-1.2243,-1.2373,-1.2591,-1.2743,-1.2857,-1.2879,-1.289,-1.289,-1.289,-1.289,-1.289,-1.289,-1.2279,-1.0968,-0.7446,-0.3426,0.0,0.0,0.0,0.0,0.0,0.0,0.0,0.0,0.0,0.0,0.0,0.0,0.0,0.0,0.0,0.0,0.0,0.0,0.0,0.0,0.0,0.0,0.0,0.0,0.0,0.0,0.0,0.0,0.0,0.0,0.0,0.0,0.0,0.0,0.0,0.0,0.0,0.0,0.0,0.0,0.0,0.0,0.0,0.0,0.0,0.0,0.0,0.0,0.0,-1.213,-1.1455,-1.0826,-0.9188,0.0,-0.8095,-0.7658,0.0,0.0,0.0,0.0,0.0,0.0,0.0,0.0,-0.8906,-0.9571,-1.0222,-1.0622,-1.128,-1.1647,-1.1531,-1.1531,-1.1898,-1.2745,-1.244,-1.2583,-1.3431,-1.3722,-1.3939,-1.4095,-1.3784,-1.3394,-1.3101,-1.2665,-1.2334,-1.2009,-1.2118,-1.2172,-1.2172,-1.2172,-1.2172,-1.2172,-1.2172,-1.2172,-1.2172,-1.2172,-1.2243,-1.2368,-1.2504,-1.2623,-1.2738,-1.2846,-1.289,-1.289,-1.289,-1.289,-1.289,-1.289,-1.0262,-0.7044,-0.6539,-0.3426,0.0,0.0,0.0,0.0,0.0,0.0,0.0,0.0,0.0,0.0,0.0,0.0,0.0,0.0,0.0,0.0,0.0,0.0,0.0,0.0,0.0,0.0,0.0,0.0,0.0,0.0,0.0,0.0,0.0,0.0,0.0,0.0,0.0,0.0,0.0,0.0,0.0,0.0,0.0,0.0,0.0,0.0,0.0,0.0,0.0,0.0,0.0,0.0,0.0,0.0,-1.0331,-0.9995,-0.8917,-0.835,-0.8004,0.0,0.0,0.0,0.0,0.0,0.0,0.0,-0.8187,0.0,0.0,0.0,-0.9374,0.0,0.0,0.0,-1.0833,-1.1029,-1.143,-1.2155,-1.1959,-1.2196,-1.3098,-1.3424,-1.3736,-1.4061,-1.3954,-1.3748,-1.3521,-1.3114,-1.2696,-1.2359,-1.23,-1.2172,-1.2172,-1.2172,-1.2172,-1.2172,-1.2172,-1.2172,-1.2172,-1.2172,-1.2205,-1.2265,-1.246,-1.2607,-1.2721,-1.2841,-1.289,-1.289,-1.289,-1.289,-1.289,-1.289,-1.0868,-0.8349,-0.8349,-0.5338,-0.182,-0.1837,-0.0921,0.0,0.0,0.0,0.0,0.0,0.0,0.0,0.0,0.0,0.0,0.0,0.0,0.0,0.0,0.0,0.0,0.0,0.0,0.0,0.0,0.0,0.0,0.0,0.0,0.0,0.0,0.0,0.0,0.0,0.0,0.0,0.0,0.0,0.0,0.0,0.0,0.0,0.0,0.0,0.0,0.0,0.0,0.0,-1.421,0.0,0.0,0.0,-1.098,-1.0556,-0.9474,-0.8852,-0.8471,-0.8474,0.0,0.0,0.0,0.0,0.0,0.0,0.0,-0.8113,0.0,0.0,0.0,0.0,0.0,0.0,0.0,-1.0337,-1.0644,-1.147,-1.1314,-1.1653,-1.2718,-1.3098,-1.3485,-1.3933,-1.4027,-1.4015,-1.3732,-1.3331,-1.301,-1.2679,-1.2344,-1.214,-1.2172,-1.2172,-1.2172,-1.2172,-1.2172,-1.2172,-1.2172,-1.2172,-1.2172,-1.2194,-1.2406,-1.2558,-1.2678,-1.283,-1.289,-1.289,-1.289,-1.289,-1.289,-1.289,-1.1473,-0.956,-0.8955,-0.6143,-0.3033,-0.2456,-0.1233,0.0,0.0,0.0,0.0,0.0,0.0,0.0,0.0,0.0,0.0,0.0,0.0,0.0,0.0,0.0,0.0,0.0,0.0,0.0,0.0,0.0,0.0,0.0,0.0,0.0,0.0,0.0,0.0,0.0,0.0,0.0,0.0,0.0,0.0,0.0,0.0,0.0,0.0,0.0,0.0,0.0,0.0,0.0,0.0,0.0,-1.8378,-1.6562,-1.5467,-1.4261,-1.1673,-1.0621,-0.9867,-0.8587,-0.8608,0.0,0.0,0.0,0.0,0.0,0.0,0.0,0.0,0.0,0.0,0.0,0.0,0.0,0.0,-0.9252,-0.9431,0.0,-1.028,-1.0744,-1.223,-1.2732,-1.318,-1.3627,-1.3919,-1.3968,-1.3591,-1.3291,-1.2878,-1.2546,-1.2211,-1.2058,-1.2172,-1.2172,-1.2172,-1.2172,-1.2172,-1.2172,-1.2172,-1.2172,-1.2172,-1.2183,-1.2308,-1.2433,-1.2569,-1.2803,-1.289,-1.289,-1.289,-1.289,-1.289,-1.289,-1.1473,-0.9256,-0.7145,-0.4936,-0.2733,-0.0723,-0.0104,0.0,0.0,0.0,0.0,0.0,0.0,0.0,0.0,0.0,0.0,0.0,0.0,0.0,0.0,0.0,0.0,0.0,0.0,0.0,0.0,0.0,0.0,0.0,0.0,0.0,0.0,0.0,0.0,0.0,0.0,0.0,0.0,0.0,0.0,0.0,0.0,0.0,0.0,0.0,0.0,0.0,0.0,0.0,-1.6159,-1.5954,-1.5594,-1.2731,-1.1803,-1.1223,-0.9737,-0.9309,-0.9048,-0.8433,-0.8628,-0.8804,0.0,0.0,0.0,0.0,0.0,0.0,0.0,0.0,0.0,0.0,0.0,0.0,0.0,0.0,0.0,-1.0073,-1.0263,0.0,-1.1789,-1.2461,-1.3017,-1.3464,-1.3763,-1.3954,-1.4033,-1.3726,-1.3319,-1.2998,-1.2581,-1.2333,-1.2172,-1.2172,-1.2172,-1.2172,-1.2172,-1.2172,-1.2172,-1.2172,-1.2172,-1.2183,-1.2308,-1.2428,-1.2553,-1.271,-1.2819,-1.289,-1.289,-1.289,-1.289,-1.289,-1.2384,-1.1678,-1.0968,-0.8152,-0.5148,-0.4398,-0.2167,0.0,0.0,0.0,0.0,0.0,0.0,0.0,0.0,0.0,0.0,0.0,0.0,0.0,0.0,0.0,0.0,0.0,0.0,0.0,0.0,0.0,0.0,0.0,0.0,0.0,0.0,0.0,0.0,0.0,0.0,0.0,0.0,0.0,0.0,0.0,0.0,0.0,0.0,0.0,0.0,0.0,0.0,0.0,-1.6861,-1.6227,-1.5395,-1.2795,-1.1781,-1.0982,-0.9654,-0.955,-0.9546,-0.8913,-0.8974,-0.9164,0.0,0.0,0.0,0.0,0.0,0.0,0.0,-0.7186,0.0,0.0,0.0,0.0,0.0,0.0,-0.8873,-0.953,-0.9802,0.0,0.0,-1.2088,-1.2725,-1.3227,-1.3634,-1.396,-1.4217,-1.3915,-1.3546,-1.3181,-1.2806,-1.2475,-1.2172,-1.2172,-1.2172,-1.2172,-1.2172,-1.2172,-1.2172,-1.2172,-1.2172,-1.2178,-1.2259,-1.239,-1.2547,-1.2661,-1.2781,-1.289,-1.289,-1.289,-1.289,-1.289,-1.289,-1.2584,-1.1068,-0.8654,-0.605,-0.4583,-0.2162,0.0,0.0,0.0,0.0,0.0,0.0,0.0,0.0,0.0,0.0,0.0,0.0,0.0,0.0,0.0,0.0,0.0,0.0,0.0,0.0,0.0,0.0,0.0,0.0,0.0,0.0,0.0,0.0,0.0,0.0,0.0,0.0,0.0,0.0,0.0,0.0,0.0,0.0,0.0,0.0,0.0,0.0,0.0]}]]